[[{"header":{"parameterUnit":"m.s-1","parameterCategory":1,"la1":30.6,"la2":29.2853,"lo1":-89.7004,"lo2":-87.6739,"dx":0.0162,"dy":0.0183,"nx":112,"ny":82,"refTime":"2022-12-03T06:00:00:Z","depth":0,"parameterNumber":2,"parameterNumberName":"U-component_of_WINDS"},"data":[0.0,0.0,0.0,0.0,0.0,0.0,0.0,0.0,0.0,0.0,0.0,0.0,0.0,0.0,0.0,0.0,0.0,0.0,0.0,0.0,0.0,0.0,0.0,0.0,0.0,0.0,0.0,0.0,0.0,0.0,0.0,0.0,0.0,0.0,0.0,0.0,0.0,0.0,0.0,0.0,0.0,0.0,0.0,0.0,0.0,0.0,0.0,0.0,0.0,0.0,0.0,0.0,0.0,0.0,0.0,0.0,0.0,0.0,0.0,0.0,0.0,0.0,0.0,0.0,0.0,0.0,0.0,0.0,0.0,0.0,0.0,0.0,0.0,0.0,0.0,0.0,0.0,0.0,0.0,0.0,0.0,0.0,0.0,0.0,0.0,0.0,0.0,0.0,0.0,0.0,-4.0845,-4.1005,-4.0905,-4.0784,-4.0735,-4.0589,-3.9627,-3.7537,0.0,0.0,0.0,0.0,0.0,0.0,0.0,0.0,0.0,0.0,0.0,0.0,0.0,0.0,0.0,0.0,0.0,0.0,0.0,0.0,0.0,0.0,0.0,0.0,0.0,0.0,0.0,0.0,0.0,0.0,0.0,0.0,0.0,0.0,0.0,0.0,0.0,0.0,0.0,0.0,0.0,0.0,0.0,0.0,0.0,0.0,0.0,0.0,0.0,0.0,0.0,0.0,0.0,0.0,0.0,0.0,0.0,0.0,0.0,0.0,0.0,0.0,0.0,0.0,0.0,0.0,0.0,0.0,0.0,0.0,0.0,0.0,0.0,0.0,0.0,0.0,0.0,0.0,0.0,0.0,0.0,0.0,0.0,0.0,0.0,0.0,0.0,0.0,0.0,0.0,0.0,0.0,0.0,0.0,0.0,0.0,0.0,0.0,0.0,0.0,0.0,0.0,0.0,0.0,-4.0164,-4.1071,-4.1003,-4.0878,-4.0863,-4.0693,-3.9668,-3.7528,0.0,0.0,0.0,0.0,0.0,0.0,0.0,0.0,0.0,0.0,0.0,0.0,0.0,0.0,0.0,0.0,0.0,0.0,0.0,0.0,0.0,0.0,0.0,0.0,0.0,0.0,0.0,0.0,0.0,0.0,0.0,0.0,0.0,0.0,0.0,0.0,0.0,0.0,0.0,0.0,0.0,0.0,0.0,0.0,0.0,0.0,0.0,0.0,0.0,0.0,0.0,0.0,0.0,0.0,0.0,0.0,0.0,0.0,0.0,0.0,0.0,0.0,0.0,0.0,0.0,0.0,0.0,0.0,0.0,0.0,0.0,0.0,0.0,0.0,0.0,0.0,0.0,0.0,0.0,0.0,0.0,0.0,0.0,0.0,0.0,0.0,0.0,0.0,0.0,0.0,0.0,0.0,0.0,0.0,0.0,0.0,0.0,0.0,0.0,0.0,0.0,0.0,0.0,-3.9802,-4.0563,-4.1132,-4.1029,-4.0889,-4.0889,-4.0717,-3.9676,-3.7538,-3.5827,0.0,0.0,0.0,0.0,0.0,0.0,0.0,0.0,0.0,0.0,0.0,0.0,0.0,0.0,0.0,0.0,0.0,0.0,0.0,0.0,0.0,0.0,0.0,0.0,0.0,0.0,0.0,0.0,0.0,0.0,0.0,0.0,0.0,0.0,0.0,0.0,0.0,0.0,0.0,0.0,0.0,0.0,0.0,0.0,0.0,0.0,0.0,0.0,0.0,0.0,0.0,0.0,0.0,0.0,0.0,0.0,0.0,0.0,0.0,0.0,0.0,0.0,0.0,0.0,0.0,0.0,0.0,0.0,0.0,0.0,0.0,0.0,0.0,0.0,0.0,0.0,0.0,0.0,0.0,0.0,0.0,0.0,0.0,0.0,0.0,0.0,0.0,0.0,0.0,0.0,0.0,0.0,0.0,0.0,0.0,0.0,0.0,0.0,0.0,0.0,0.0,0.0,-4.0354,-4.1081,-4.1191,-4.1031,-4.0915,-4.0915,-4.0916,-3.9922,-3.7576,-3.6026,0.0,0.0,0.0,0.0,0.0,0.0,0.0,0.0,0.0,0.0,0.0,0.0,0.0,0.0,0.0,0.0,0.0,0.0,0.0,0.0,0.0,0.0,0.0,0.0,0.0,0.0,0.0,0.0,0.0,0.0,0.0,0.0,0.0,0.0,0.0,0.0,0.0,0.0,0.0,0.0,0.0,0.0,0.0,0.0,0.0,0.0,0.0,0.0,0.0,0.0,0.0,0.0,0.0,0.0,0.0,0.0,0.0,0.0,0.0,0.0,0.0,0.0,0.0,0.0,0.0,0.0,0.0,0.0,0.0,0.0,0.0,0.0,0.0,0.0,0.0,0.0,0.0,0.0,0.0,0.0,0.0,0.0,0.0,0.0,0.0,0.0,0.0,0.0,0.0,0.0,0.0,0.0,0.0,0.0,0.0,0.0,0.0,0.0,0.0,0.0,0.0,0.0,-4.0037,-4.1191,-4.1191,-4.1076,-4.099,-4.099,-4.1488,-4.0577,-3.7679,-3.6615,0.0,0.0,0.0,0.0,0.0,0.0,0.0,0.0,0.0,0.0,0.0,0.0,0.0,0.0,0.0,0.0,0.0,0.0,0.0,0.0,0.0,0.0,0.0,0.0,0.0,0.0,0.0,0.0,0.0,0.0,0.0,0.0,0.0,0.0,0.0,0.0,0.0,0.0,0.0,0.0,0.0,0.0,0.0,0.0,0.0,0.0,0.0,0.0,0.0,0.0,0.0,0.0,0.0,0.0,0.0,0.0,0.0,0.0,0.0,0.0,0.0,0.0,0.0,0.0,0.0,0.0,0.0,0.0,0.0,0.0,0.0,0.0,0.0,0.0,0.0,0.0,0.0,0.0,0.0,0.0,0.0,0.0,0.0,0.0,0.0,0.0,0.0,0.0,0.0,0.0,0.0,0.0,0.0,0.0,0.0,0.0,0.0,0.0,0.0,0.0,0.0,0.0,-3.9913,-4.1104,-4.1191,-4.1116,-4.1052,-4.0994,-4.1126,-4.0151,-3.7659,0.0,0.0,0.0,0.0,0.0,0.0,0.0,0.0,0.0,0.0,0.0,0.0,0.0,0.0,0.0,0.0,0.0,0.0,0.0,0.0,0.0,0.0,0.0,0.0,0.0,0.0,0.0,0.0,0.0,0.0,0.0,0.0,0.0,0.0,0.0,0.0,0.0,0.0,0.0,0.0,0.0,0.0,0.0,0.0,0.0,0.0,0.0,0.0,0.0,0.0,0.0,0.0,0.0,0.0,0.0,0.0,0.0,0.0,0.0,0.0,0.0,0.0,0.0,0.0,0.0,0.0,0.0,0.0,0.0,0.0,0.0,0.0,0.0,0.0,0.0,0.0,0.0,0.0,0.0,0.0,0.0,0.0,0.0,0.0,0.0,0.0,0.0,0.0,0.0,0.0,0.0,0.0,0.0,0.0,0.0,0.0,0.0,0.0,0.0,0.0,0.0,0.0,-3.8312,-3.9938,-4.1103,-4.1191,-4.1143,-4.1074,-4.1016,-4.1129,-4.0185,-3.7738,0.0,0.0,0.0,0.0,0.0,0.0,0.0,0.0,0.0,0.0,0.0,0.0,0.0,0.0,0.0,0.0,0.0,0.0,0.0,0.0,0.0,0.0,0.0,0.0,0.0,0.0,0.0,0.0,0.0,0.0,0.0,0.0,0.0,0.0,0.0,0.0,0.0,0.0,0.0,0.0,0.0,0.0,0.0,0.0,0.0,0.0,0.0,0.0,0.0,0.0,0.0,0.0,0.0,0.0,0.0,0.0,0.0,0.0,0.0,0.0,0.0,0.0,0.0,0.0,0.0,0.0,0.0,0.0,0.0,0.0,0.0,0.0,0.0,0.0,0.0,0.0,0.0,0.0,0.0,0.0,0.0,0.0,0.0,0.0,0.0,0.0,0.0,0.0,0.0,0.0,0.0,0.0,0.0,0.0,0.0,0.0,0.0,0.0,0.0,0.0,0.0,0.0,-3.8385,-4.0031,-4.1191,-4.1191,-4.1143,-4.1074,-4.1016,-4.1673,-4.0854,0.0,0.0,0.0,0.0,0.0,0.0,0.0,0.0,0.0,0.0,0.0,0.0,0.0,0.0,0.0,0.0,0.0,0.0,0.0,0.0,0.0,0.0,0.0,0.0,0.0,0.0,0.0,0.0,0.0,0.0,0.0,0.0,0.0,0.0,0.0,0.0,0.0,0.0,0.0,0.0,0.0,0.0,0.0,0.0,0.0,0.0,0.0,0.0,0.0,0.0,0.0,0.0,0.0,0.0,0.0,0.0,0.0,0.0,0.0,0.0,0.0,0.0,0.0,0.0,0.0,0.0,0.0,0.0,0.0,0.0,0.0,0.0,0.0,0.0,0.0,0.0,0.0,0.0,0.0,0.0,0.0,0.0,0.0,0.0,0.0,0.0,0.0,0.0,0.0,0.0,0.0,0.0,0.0,0.0,0.0,0.0,0.0,0.0,0.0,0.0,0.0,0.0,0.0,-3.8395,-4.0033,-4.1191,-4.1191,-4.1143,-4.1074,-4.1016,-4.1166,-4.0264,-3.7959,0.0,0.0,0.0,0.0,0.0,0.0,0.0,0.0,0.0,0.0,0.0,0.0,0.0,0.0,0.0,0.0,0.0,0.0,0.0,0.0,0.0,0.0,0.0,0.0,0.0,0.0,0.0,0.0,0.0,0.0,0.0,0.0,0.0,0.0,0.0,0.0,0.0,0.0,0.0,0.0,0.0,0.0,0.0,0.0,0.0,0.0,0.0,0.0,0.0,0.0,0.0,0.0,0.0,0.0,0.0,0.0,0.0,0.0,0.0,0.0,0.0,0.0,0.0,0.0,0.0,0.0,0.0,0.0,0.0,0.0,0.0,0.0,0.0,0.0,0.0,0.0,0.0,0.0,0.0,0.0,0.0,0.0,0.0,0.0,0.0,0.0,0.0,0.0,0.0,0.0,0.0,0.0,0.0,0.0,0.0,0.0,0.0,0.0,0.0,0.0,0.0,0.0,-3.8477,-4.0053,-4.1191,-4.1191,-4.1169,-4.1114,-4.1054,-4.099,-4.0092,-3.8119,0.0,0.0,0.0,0.0,0.0,0.0,0.0,0.0,0.0,0.0,0.0,0.0,0.0,0.0,0.0,0.0,0.0,0.0,0.0,0.0,0.0,0.0,0.0,0.0,0.0,0.0,0.0,0.0,0.0,0.0,0.0,0.0,0.0,0.0,0.0,0.0,0.0,0.0,0.0,0.0,0.0,0.0,0.0,0.0,0.0,0.0,0.0,0.0,0.0,0.0,0.0,0.0,0.0,0.0,0.0,0.0,0.0,0.0,0.0,0.0,0.0,0.0,0.0,0.0,0.0,0.0,0.0,0.0,0.0,0.0,0.0,0.0,0.0,0.0,0.0,0.0,0.0,0.0,0.0,0.0,0.0,0.0,0.0,0.0,0.0,0.0,0.0,0.0,0.0,0.0,0.0,0.0,0.0,0.0,0.0,0.0,0.0,0.0,0.0,0.0,0.0,0.0,-3.86,-4.0073,-4.1191,-4.1191,-4.1191,-4.1169,-4.1111,-4.1047,-4.024,-3.8408,0.0,0.0,0.0,0.0,0.0,0.0,0.0,0.0,0.0,0.0,0.0,0.0,0.0,0.0,0.0,0.0,0.0,0.0,0.0,0.0,0.0,0.0,0.0,0.0,0.0,0.0,0.0,0.0,0.0,0.0,0.0,0.0,0.0,0.0,0.0,0.0,0.0,0.0,0.0,0.0,0.0,0.0,0.0,0.0,0.0,0.0,0.0,0.0,0.0,0.0,0.0,0.0,0.0,0.0,0.0,0.0,0.0,0.0,0.0,0.0,-3.9143,-3.812,0.0,0.0,0.0,0.0,0.0,0.0,0.0,0.0,0.0,0.0,0.0,0.0,0.0,0.0,0.0,0.0,0.0,0.0,0.0,0.0,0.0,0.0,0.0,0.0,0.0,0.0,0.0,0.0,0.0,0.0,0.0,0.0,0.0,0.0,0.0,0.0,0.0,0.0,0.0,0.0,-3.8667,-4.0117,-4.1191,-4.1191,-4.1147,-4.1116,-4.1109,-4.1047,-4.024,-3.8408,-3.8413,0.0,0.0,0.0,0.0,0.0,0.0,0.0,0.0,0.0,0.0,0.0,0.0,0.0,0.0,0.0,0.0,0.0,0.0,0.0,0.0,0.0,0.0,0.0,0.0,0.0,0.0,0.0,0.0,0.0,0.0,0.0,0.0,0.0,0.0,0.0,0.0,0.0,0.0,0.0,0.0,0.0,0.0,0.0,0.0,0.0,0.0,0.0,0.0,0.0,0.0,0.0,0.0,0.0,0.0,0.0,0.0,0.0,0.0,0.0,-3.9326,-3.8507,0.0,0.0,0.0,0.0,0.0,0.0,0.0,0.0,0.0,0.0,0.0,0.0,0.0,0.0,0.0,0.0,0.0,0.0,0.0,0.0,0.0,0.0,0.0,0.0,0.0,0.0,0.0,0.0,0.0,0.0,0.0,0.0,0.0,0.0,0.0,0.0,0.0,0.0,0.0,0.0,-3.8703,-4.0097,-4.1191,-4.1191,-4.1169,-4.1146,-4.1146,-4.1081,-4.0479,-3.9101,-3.8956,0.0,0.0,0.0,0.0,0.0,0.0,0.0,0.0,0.0,0.0,0.0,0.0,0.0,0.0,0.0,0.0,0.0,0.0,0.0,0.0,0.0,0.0,0.0,0.0,0.0,0.0,0.0,0.0,0.0,0.0,0.0,0.0,0.0,0.0,0.0,0.0,0.0,0.0,0.0,0.0,0.0,0.0,0.0,0.0,0.0,0.0,0.0,0.0,0.0,0.0,0.0,0.0,0.0,-3.9348,-4.014,-4.099,-4.099,-4.1273,-4.1702,-3.97,-3.9129,-3.9563,-3.8867,0.0,0.0,0.0,0.0,0.0,0.0,0.0,0.0,0.0,0.0,0.0,0.0,0.0,0.0,0.0,0.0,0.0,0.0,0.0,0.0,0.0,0.0,-3.8184,-3.9582,-3.9394,-3.8476,-3.6825,0.0,0.0,0.0,0.0,0.0,0.0,0.0,0.0,0.0,0.0,0.0,-3.897,-4.0175,-4.1191,-4.1191,-4.1191,-4.1191,-4.1191,-4.1146,-4.0744,-3.9861,-3.9543,-3.8698,0.0,0.0,0.0,0.0,0.0,0.0,0.0,0.0,0.0,0.0,0.0,0.0,0.0,0.0,0.0,0.0,0.0,0.0,0.0,0.0,0.0,0.0,0.0,0.0,0.0,0.0,0.0,0.0,0.0,0.0,0.0,0.0,-3.6537,-3.8037,0.0,0.0,0.0,0.0,0.0,0.0,0.0,0.0,0.0,0.0,0.0,0.0,0.0,-3.8961,-3.9821,-3.8906,-3.9214,-4.0711,-4.0762,-4.1258,-4.208,-4.208,-4.1862,-4.1456,-4.113,0.0,-4.0468,-3.9615,0.0,0.0,0.0,0.0,0.0,0.0,0.0,0.0,0.0,0.0,0.0,0.0,0.0,0.0,0.0,0.0,0.0,0.0,0.0,0.0,0.0,0.0,-4.0473,-4.0698,-4.0656,-4.034,-3.9391,-3.8594,-3.7986,-3.7752,-3.7807,-3.7926,0.0,0.0,0.0,0.0,0.0,0.0,-3.9921,-4.0523,-4.1142,-4.1191,-4.1191,-4.1191,-4.1191,-4.1191,-4.0798,-3.9863,-3.9075,-3.8172,-3.7131,-3.6456,0.0,0.0,0.0,0.0,0.0,0.0,0.0,0.0,0.0,0.0,0.0,0.0,0.0,0.0,0.0,0.0,0.0,0.0,0.0,0.0,0.0,0.0,0.0,0.0,0.0,0.0,0.0,0.0,0.0,-3.759,-3.7672,-3.9236,-3.9664,-4.0125,0.0,0.0,0.0,0.0,0.0,0.0,0.0,0.0,0.0,-4.0496,-4.0049,-4.0179,-4.1018,-4.0608,-4.08,-4.1546,-4.1568,-4.1751,-4.2127,-4.2164,-4.207,-4.1854,-4.1854,-4.1746,-4.1531,-4.0542,-4.0178,-4.0266,0.0,0.0,0.0,0.0,-3.965,-3.9623,-3.9519,-3.927,-3.9178,-4.033,0.0,0.0,0.0,0.0,0.0,0.0,0.0,-3.9683,-4.0031,-4.0142,-4.0278,-4.0731,-4.0874,-4.0797,-4.0447,-4.0079,-3.9522,-3.8587,-3.8437,-3.8767,-3.9745,-4.0098,0.0,0.0,0.0,-4.1101,-3.9948,-4.0558,-4.1114,-4.1143,-4.1171,-4.1191,-4.1191,-4.1191,-4.1015,-4.0602,-3.9312,-3.8346,-3.7901,-3.6582,-3.5396,0.0,0.0,0.0,0.0,0.0,0.0,0.0,0.0,0.0,0.0,0.0,0.0,0.0,0.0,0.0,0.0,0.0,0.0,0.0,0.0,0.0,0.0,0.0,0.0,0.0,0.0,0.0,0.0,-3.862,-3.8721,-3.9777,-4.0308,-4.0594,0.0,0.0,0.0,0.0,0.0,0.0,-4.1638,-4.1268,-4.1267,-4.1753,-4.0953,-4.0881,-4.1703,-4.1301,-4.1301,-4.1712,-4.1589,-4.163,-4.1855,-4.1908,-4.1982,-4.2065,-4.2065,-4.2158,-4.223,-4.1511,-4.1103,-4.0939,-4.1034,-4.0971,-4.074,-4.0106,-3.9888,-3.9864,-3.9725,-3.9757,-3.992,-4.0474,-4.0713,-4.0776,-4.077,0.0,0.0,0.0,0.0,-3.9587,-3.9772,-3.9844,-4.0019,-4.0604,-4.078,-4.082,-4.082,-4.0857,-4.0517,-3.9276,-3.909,-3.955,-4.0859,-4.0671,0.0,-4.0992,-4.1187,-4.097,-4.0146,-4.063,-4.1061,-4.1074,-4.1122,-4.117,-4.117,-4.1191,-4.1191,-4.1191,-3.9766,-3.8807,-3.8543,-3.7074,-3.5825,-3.4883,0.0,0.0,0.0,0.0,0.0,0.0,0.0,0.0,0.0,0.0,0.0,0.0,0.0,0.0,0.0,0.0,0.0,0.0,0.0,0.0,0.0,0.0,0.0,0.0,0.0,0.0,0.0,0.0,0.0,-3.8759,-3.97,0.0,0.0,0.0,0.0,-4.0766,-4.0778,-4.0648,-4.0388,-4.1084,-4.1363,-4.1142,-4.0368,-4.0315,-4.1126,-3.9694,-3.9721,-4.1233,-4.0535,-4.0618,-4.1428,-4.1428,-4.1538,-4.1721,-4.1721,-4.1911,-4.2231,-4.2481,-4.2181,-4.1574,-4.1763,-4.1416,-4.0781,-4.0676,-4.0629,-4.0636,-4.0487,-4.0454,-4.0462,-4.0492,-4.0596,-4.0709,-4.0709,-4.0218,0.0,0.0,-4.0039,-3.9572,-4.0275,-4.0511,-4.0552,-4.061,-4.06,-4.0615,-4.0615,-4.0717,-4.0806,-4.0777,-4.0828,-4.0899,-4.0997,0.0,-4.1835,-4.1114,-4.1599,-4.1769,-4.1023,-4.0914,-4.0937,-4.101,-4.1068,-4.1111,-4.1111,-4.1169,-4.1191,-4.1191,-4.0332,-3.9453,-3.8633,-3.7715,-3.6792,-3.5841,-3.497,0.0,0.0,0.0,0.0,0.0,0.0,0.0,0.0,0.0,0.0,0.0,0.0,0.0,0.0,0.0,0.0,0.0,0.0,0.0,0.0,0.0,0.0,0.0,0.0,0.0,0.0,0.0,0.0,-3.9389,-3.9124,0.0,-3.9961,-4.0119,-4.04,-4.0922,-4.0944,-4.0917,-4.0827,-4.1088,-4.1206,-4.1095,-4.0836,-4.0802,-4.1095,-4.1071,-4.1344,-4.1914,-4.2216,-4.2507,-4.2836,-4.2904,-4.2982,-4.3039,-4.3039,-4.3116,-4.3249,-4.3533,-4.2714,-4.1292,-4.1501,-4.1102,-4.0435,-4.0526,-4.0559,-4.0552,-4.0519,-4.0496,-4.0496,-4.0496,-4.0523,-4.0574,-4.0574,-4.039,-4.023,-4.0498,-4.0361,-4.0167,-4.0435,-4.0523,-4.0531,-4.0531,-4.0561,-4.0591,-4.0591,-4.0641,-4.0681,-4.0709,-4.083,-4.1107,-4.1624,-4.1485,-4.1398,-4.1676,-4.1446,-4.117,-4.0916,-4.0888,-4.0902,-4.0932,-4.1007,-4.1044,-4.1044,-4.1106,-4.1142,-4.1142,-4.0369,-3.9766,-3.9453,-3.8066,-3.7148,-3.6812,-3.5934,-3.5748,0.0,0.0,0.0,0.0,0.0,0.0,0.0,0.0,0.0,0.0,0.0,0.0,0.0,0.0,0.0,0.0,0.0,0.0,0.0,0.0,0.0,0.0,0.0,0.0,0.0,-3.861,-3.8578,-3.9361,-3.9009,-3.8994,-3.9797,-3.9987,-4.0289,-4.0821,-4.1249,-4.1515,-4.1515,-4.1772,-4.1919,-4.1919,-4.1662,-4.1644,-4.1919,-4.1901,-4.2029,-4.2304,-4.2612,-4.2757,-4.2757,-4.2842,-4.3041,-4.3281,-4.3281,-4.3445,-4.3753,-4.3923,-4.3038,-4.1588,-4.1635,-4.1155,-4.0423,-4.0318,-4.0319,-4.0417,-4.0473,-4.0496,-4.0496,-4.0496,-4.0496,-4.0496,-4.0496,-4.0496,-4.0496,-4.0496,-4.0496,-4.0496,-4.0496,-4.0496,-4.0496,-4.0496,-4.0531,-4.0573,-4.0573,-4.0583,-4.0586,-4.0579,-4.0687,-4.0976,-4.1507,-4.1119,-4.0932,-4.1535,-4.1149,-4.0759,-4.079,-4.0848,-4.0872,-4.0872,-4.0924,-4.0976,-4.0976,-4.1291,-4.1378,-4.109,-4.0846,-4.0444,-3.983,-3.9017,-3.8297,-3.7671,-3.6855,-3.6675,-3.717,0.0,0.0,0.0,0.0,0.0,0.0,0.0,0.0,0.0,0.0,0.0,0.0,0.0,0.0,0.0,0.0,0.0,0.0,0.0,0.0,0.0,0.0,0.0,-3.7541,-3.8146,-3.8608,-3.8645,-3.9302,-3.98,-3.9838,-4.0201,-4.0438,-4.0456,-4.1608,-4.2307,-4.2307,-4.3041,-4.3462,-4.3425,-4.2691,-4.2636,-4.3388,-4.1867,-4.1501,-4.2252,-4.1484,-4.1152,-4.1152,-4.1152,-4.159,-4.2341,-4.2341,-4.2832,-4.3599,-4.3599,-4.3188,-4.2504,-4.2282,-4.1652,-4.079,-4.0067,-3.9963,-4.0223,-4.0406,-4.0481,-4.0481,-4.0489,-4.0489,-4.0489,-4.0496,-4.0496,-4.0496,-4.0496,-4.0496,-4.0496,-4.0496,-4.0496,-4.0496,-4.0496,-4.0496,-4.0496,-4.0496,-4.0539,-4.0573,-4.0504,-4.0557,-4.0607,-4.0607,-4.0595,-4.0621,-4.0694,-4.0694,0.0,-4.079,-4.079,-4.079,-4.079,-4.0881,-4.0922,-4.0903,-4.1755,-4.1929,-4.1049,-4.1788,-4.1476,-3.9717,-4.0552,-4.0203,-3.8393,-3.7689,-3.7262,-3.7107,0.0,0.0,0.0,0.0,0.0,0.0,0.0,0.0,0.0,0.0,0.0,0.0,0.0,0.0,0.0,0.0,0.0,0.0,0.0,0.0,0.0,-3.8015,-3.8017,-3.8251,-3.8254,-3.853,-3.9371,-3.9421,-3.9714,-4.0586,-4.0778,-4.1088,-4.1662,-4.2031,-4.2233,-4.2233,-4.2431,-4.2289,-4.1713,-4.1759,-4.1488,-4.0811,-4.1252,-4.1433,-4.1352,-4.173,-4.2081,-4.2414,-4.2414,-4.2667,-4.3167,-4.3167,-4.3313,-4.3532,-4.3532,-4.3402,-4.3137,-4.2211,-4.1365,-4.0603,-3.9955,-3.9797,-3.9922,-3.9964,-3.9984,-4.0014,-4.0223,-4.0286,-4.0313,-4.0457,-4.0496,-4.0496,-4.0496,-4.0496,-4.0496,-4.0496,-4.0496,-4.0496,-4.0496,-4.0496,-4.0496,-4.0496,-4.0504,-4.0523,-4.0496,-4.0512,-4.0534,-4.0583,-4.0593,-4.0614,-4.0621,-4.0628,-4.0628,-4.0641,-4.0641,-4.0668,-4.0713,-4.1306,-4.1441,-4.0809,-4.1621,-4.1781,-4.0921,-4.1119,-4.1052,-4.0558,-4.0195,-3.9186,-3.7426,-3.7894,-3.779,0.0,0.0,0.0,0.0,0.0,0.0,0.0,0.0,0.0,0.0,0.0,0.0,0.0,0.0,0.0,0.0,0.0,0.0,0.0,0.0,0.0,0.0,-3.8105,-3.8397,-3.8891,-3.8874,-3.9023,-3.9698,-3.9857,-4.0198,-4.0879,-4.1107,-4.141,-4.1871,-4.2095,-4.2198,-4.2198,-4.2198,-4.2002,-4.1517,-4.1721,-4.1505,-4.0802,-4.1505,-4.1721,-4.15,-4.1984,-4.2358,-4.2614,-4.2614,-4.2732,-4.2976,-4.316,-4.325,-4.3268,-4.3427,-4.3313,-4.2889,0.0,0.0,0.0,0.0,-3.959,-3.9648,-3.9754,-3.9808,-3.9829,-3.9973,-4.0032,-4.0072,-4.0294,-4.0372,-4.0381,-4.0473,-4.0496,-4.0481,-4.0408,-4.0372,-4.0347,-4.023,-4.0212,-4.0212,-4.0212,-4.0212,-4.0239,-4.0356,-4.0372,0.0,-4.0531,-4.0569,-4.0571,-4.0605,-4.0605,-4.0593,-4.0607,-4.0595,-4.0621,-4.0654,-4.1105,-4.1221,-4.0699,-4.1521,0.0,0.0,0.0,-4.1356,-4.1356,-4.0524,0.0,0.0,0.0,-3.8339,-3.7037,-3.7596,0.0,0.0,-3.7328,-3.6908,0.0,0.0,0.0,0.0,0.0,0.0,0.0,0.0,0.0,0.0,0.0,0.0,0.0,0.0,0.0,0.0,-3.8249,-3.8786,-3.9547,-3.9766,-3.9836,-3.9836,-4.048,-4.0912,-4.0912,-4.1214,-4.1423,-4.1423,-4.1821,-4.2053,-4.2053,-4.2053,0.0,0.0,0.0,-4.2095,-4.2053,-4.2095,-4.2095,-4.2053,-4.2053,-4.2074,-4.2115,-4.2115,-4.2136,-4.2218,-4.2634,-4.2825,-4.2844,-4.3196,-4.2826,-4.1946,-4.1305,-4.102,-4.079,-3.9751,-3.9337,-3.9376,-3.9625,0.0,0.0,-3.9742,-3.9754,-3.9808,-4.0091,-4.0148,-4.0186,-4.0372,-4.0422,-4.0381,-4.0195,-4.0148,-4.0081,-3.9851,-3.9808,-3.9808,-3.9808,-3.9808,-3.9861,-4.012,-4.0148,-4.0204,-4.0389,-4.0454,-4.0523,-4.0573,-4.058,-4.0595,-4.0593,-4.06,-4.0581,-4.0607,-4.0684,0.0,-4.0607,-4.1448,-4.1613,-4.0732,-4.1408,-4.1842,-4.1823,-4.1104,-4.0696,-4.0715,-3.9964,-3.8808,-3.7206,-3.7238,-3.7241,-3.7227,-3.7148,-3.677,0.0,0.0,0.0,0.0,0.0,0.0,0.0,0.0,0.0,0.0,0.0,0.0,0.0,0.0,0.0,-3.9015,-3.9227,-3.9604,-4.0496,-4.0647,-4.067,-4.067,-4.0808,-4.0912,-4.0912,-4.0965,-4.1035,-4.1035,-4.1111,-4.1157,-4.1157,-4.1157,-4.1157,-4.1157,-4.1468,-4.149,-4.114,-4.1468,-4.1468,-4.1157,-4.1157,0.0,-4.1626,-4.1626,-4.1842,-4.2216,-4.2297,-4.2338,-4.2358,-4.242,-4.1598,-4.0291,-4.0248,-3.9841,-3.9245,-3.9061,-3.9007,-3.8989,-3.9073,-3.911,-3.9192,-3.9408,-3.952,-3.9597,-3.9816,-3.9891,0.0,-3.9924,-3.9934,-3.9924,-3.9882,-3.9891,-3.9861,-3.9808,-3.9808,-3.9808,-3.9808,-3.9808,-3.9819,-3.9861,-3.9891,-3.9882,-3.9924,-4.0248,-4.0496,-4.0523,-4.0523,-4.0531,-4.0519,-4.0519,-4.0546,-4.0595,-4.1239,-4.1354,-4.066,-4.1412,-4.1542,-4.0668,-4.0786,-4.0851,-4.0783,-4.0682,-4.0291,-3.9617,-3.9547,-3.8981,-3.7904,-3.8012,-3.8075,-3.8059,-3.7396,-3.7394,0.0,0.0,0.0,0.0,0.0,0.0,0.0,0.0,0.0,0.0,0.0,-3.7647,0.0,0.0,-3.8796,-3.9356,-3.9825,-4.0274,-4.0724,-4.0864,-4.0912,-4.0912,-4.0912,-4.0912,-4.0912,-4.0912,-4.0912,-4.0912,-4.0912,-4.0912,-4.0912,-4.0912,-4.0912,-4.0912,-4.1071,-4.1094,-4.0912,-4.1094,-4.1111,-4.0912,-4.0912,-4.1012,-4.1209,-4.1209,-4.1328,-4.1574,-4.1756,-4.1842,-4.181,-4.1223,-4.0308,-3.9222,-3.8884,-3.8629,-3.8462,-3.8523,-3.868,-3.8848,-3.8896,-3.8921,-3.8964,-3.9101,-3.9183,-3.9259,-3.9525,-3.9609,-3.9625,-3.9765,-3.9808,-3.9775,-3.9671,-3.9648,-3.9614,-3.9482,-3.9445,-3.9445,-3.9445,-3.9445,-3.9494,-3.9614,-3.9648,-3.9683,-3.9786,-3.9984,-4.0148,-4.0148,-4.0148,-4.0148,-4.0148,-4.0148,-4.0157,-4.0194,-4.0586,-4.0682,-4.0233,-4.0622,-4.0752,-4.0411,-4.0397,-4.0422,-4.0496,-4.0531,-4.0365,-3.9961,-4.003,-3.9612,-3.8742,-3.8828,-3.8855,-3.8835,-3.8476,-3.8342,0.0,0.0,0.0,0.0,0.0,0.0,0.0,0.0,-3.6369,-3.7634,-3.7806,-3.7858,-3.8271,-3.8826,-3.9231,-3.9214,-3.9904,-4.0419,-4.0328,-4.0517,-4.0638,-4.0638,-4.0799,-4.0912,-4.0912,-4.0912,-4.0912,-4.0912,-4.0912,-4.0912,-4.0912,-4.0912,-4.0912,-4.0912,-4.0912,-4.0912,-4.0912,-4.0912,-4.0912,-4.0912,-4.0912,-4.0912,-4.0912,-4.0912,-4.0912,-4.0918,-4.108,-4.1151,-4.1073,-3.9835,-3.9006,-3.8386,-3.7585,-3.7523,-3.7896,-3.8032,-3.833,-3.8667,-3.8728,-3.8803,-3.8881,-3.8803,-3.877,-3.8826,-3.9105,-3.92,-3.9248,-3.9536,-3.963,-3.9583,-3.9446,-3.9401,-3.935,-3.9156,-3.9101,-3.9101,-3.9101,-3.9101,-3.9151,-3.9389,-3.9408,-3.9464,-3.963,-3.9664,-3.9698,-3.9786,-3.9808,-3.9808,-3.9808,-3.9808,-3.9808,-3.9808,-3.9808,-3.9808,-3.9808,-3.9859,-3.9943,-4.012,-4.012,-4.0211,-4.0422,-4.0449,-4.0492,-4.0573,-4.0543,-4.0196,-3.9572,-3.9521,-3.9509,-3.9509,-3.9585,-3.9354,-3.6508,-3.6169,-3.5603,-3.5603,-3.5681,-3.5907,0.0,0.0,-3.6979,-3.7749,-3.7463,-3.732,-3.8027,-3.8201,-3.8321,-3.8564,-3.9133,-3.9394,-3.8989,-3.9394,-3.974,-3.974,-4.0427,-4.0912,-4.0912,-4.0912,-4.0912,-4.0912,-4.0912,-4.0912,-4.0912,-4.0912,-4.0912,-4.0912,-4.0912,-4.0912,-4.0912,-4.0912,-4.0912,-4.0912,-4.0912,-4.0912,-4.0912,-4.0912,-4.0912,-4.086,-4.0199,-3.9911,-3.979,-3.8352,-3.7715,-3.7559,-3.6741,-3.6678,-3.7094,-3.7433,-3.7826,-3.8168,-3.8185,-3.8462,-3.8758,-3.8376,-3.831,-3.8373,-3.8402,-3.8418,-3.8496,-3.8898,-3.9003,-3.9003,-3.905,-3.9064,-3.9064,-3.9087,-3.9101,-3.9101,-3.9101,-3.9101,-3.9115,-3.9142,-3.9137,-3.9137,-3.9178,-3.9178,-3.9313,-3.9742,-3.9808,-3.9808,-3.9808,-3.9808,-3.9808,-3.9808,-3.9808,-3.9808,-3.9808,-3.9808,-3.9819,-3.984,-3.9851,-3.9963,-4.0213,-4.0242,-4.0321,-4.0516,-4.033,-4.0212,-4.0117,-3.9919,-3.9831,-3.986,-3.9966,-4.0204,-3.5633,-3.5767,0.0,0.0,-3.5613,-3.6051,-3.6339,-3.6405,-3.6654,-3.7448,-3.7399,-3.7482,-3.8294,-3.8453,-3.8498,0.0,-3.8843,-3.8908,-3.8745,-3.8924,-3.9086,-3.9086,-3.9404,-3.9902,-4.059,-4.068,-4.0704,-4.0793,-4.0793,-4.0817,-4.0912,-4.0912,-4.0912,-4.0912,-4.0912,-4.0912,-4.0912,-4.0912,-4.0912,-4.0912,-4.0912,-4.0912,-4.0912,-4.0912,-4.0912,-4.086,-4.0043,-3.9457,-3.8974,-3.7944,-3.7236,-3.6766,-3.6422,-3.6388,-3.6597,-3.6997,-3.7414,-3.7738,-3.7738,-3.7878,-3.8015,-3.7843,-3.7808,-3.7842,-3.7876,-3.7893,-3.7945,-3.8127,-3.8373,-3.8566,-3.8597,-3.8766,-3.8935,-3.8979,-3.8993,-3.8917,-3.8685,-3.8733,-3.8752,-3.8551,-3.8615,-3.8691,-3.8691,-3.8691,-3.8763,-3.8966,-3.921,-3.9383,-3.9383,-3.9383,-3.9383,-3.9383,-3.9383,-3.9383,-3.9383,-3.9383,-3.9464,-3.9621,-3.9632,-3.9728,-3.9953,-3.9963,-4.0003,-4.0091,-4.0013,-3.9963,-3.9963,-3.9922,-3.9901,-3.9901,-3.9965,-4.0137,-3.5283,-3.5612,0.0,-3.5441,-3.5716,-3.6142,-3.6362,-3.6411,-3.6632,-3.7465,-3.7501,-3.7579,-3.8221,-3.8346,-3.829,-3.8104,-3.8234,-3.8274,-3.8104,-3.8234,-3.8346,-3.8346,-3.8486,-3.8924,-3.9817,-4.0037,-4.0179,-4.0271,-4.0345,-4.0444,-4.0541,-4.0524,-4.0524,-4.0524,-4.0524,-4.0524,-4.0524,-4.068,-4.0728,-4.0728,-4.0728,-4.0776,-4.0912,-4.0912,-4.0791,-4.0509,-3.964,-3.8883,-3.8232,-3.7386,-3.6754,-3.6301,-3.6301,-3.6301,-3.6343,-3.6618,-3.6997,-3.7322,-3.7322,-3.7414,-3.7487,-3.7377,-3.7322,-3.734,-3.7396,-3.7414,-3.7433,-3.7614,-3.7858,-3.8079,-3.8096,-3.831,-3.8554,-3.8566,-3.8566,-3.8486,-3.8211,-3.8243,-3.8296,-3.8048,-3.8099,-3.8216,-3.8216,-3.8216,-3.8232,-3.8318,-3.8533,-3.8789,-3.8989,-3.9073,-3.9101,-3.9101,-3.9101,-3.9101,-3.9101,-3.9101,-3.9178,-3.9389,-3.9401,-3.9495,-3.9717,-3.9728,-3.9742,-3.9797,-3.9761,-3.9728,-3.9728,-3.9694,-3.9683,-3.9683,-3.9724,-3.9813,-3.6082,-3.6088,-3.6077,-3.6061,-3.6077,-3.6298,-3.6993,-3.7171,-3.7392,-3.8116,-3.7822,-3.7415,-3.7431,-3.7447,-3.7238,-3.6662,-3.7074,-3.7238,-3.6662,-3.7058,-3.7447,-3.7447,-3.7953,-3.8351,-3.8362,-3.892,-3.9259,-3.9259,-3.948,-3.9636,-3.9636,-3.9636,-3.9636,-3.9636,-3.9636,-3.9636,-3.9636,-4.0096,-4.033,-4.033,-4.033,-4.051,-4.0912,-4.0912,-4.0457,-3.9675,-3.8606,-3.79,-3.7456,-3.6317,-3.6041,-3.6301,-3.6301,-3.6301,-3.6301,-3.6322,-3.6557,-3.6919,-3.6919,-3.717,-3.745,-3.7055,-3.6919,-3.6919,-3.6919,-3.6919,-3.7017,-3.7414,-3.7506,-3.7542,-3.7596,-3.7632,-3.7667,-3.7718,-3.7736,-3.7736,-3.7718,-3.7718,-3.7718,-3.7718,-3.7718,-3.7718,-3.7718,-3.7718,-3.7824,-3.8066,-3.7893,-3.8011,-3.8728,-3.8974,-3.9101,-3.9101,-3.9101,-3.9101,-3.9101,-3.9101,-3.9101,-3.9115,-3.9115,-3.9232,-3.9514,-3.9495,-3.9597,-3.9797,-3.9609,-3.9495,-3.9495,-3.9245,-3.911,-3.9142,-3.9259,-3.9389,-3.5693,-3.5966,-3.626,-3.5819,-3.6025,-3.6432,-3.6697,-3.6743,-3.6866,-3.7356,-3.7104,-3.6877,-3.7089,-3.6938,-3.6723,-3.6523,-3.6662,-3.6723,-3.6523,-3.6662,-3.68,-3.68,-3.6967,0.0,-3.7118,-3.801,-3.8629,-3.8739,-3.9028,-3.9242,-3.9322,-3.9506,-3.961,-3.961,-3.961,-3.961,-3.961,-3.9756,-3.9833,-3.9833,-3.9833,-3.991,-4.002,-4.002,-3.9656,-3.8928,-3.8022,-3.732,-3.6734,-3.6067,-3.5871,-3.6002,-3.6216,-3.6301,-3.6301,-3.6301,-3.6388,-3.6512,-3.6512,-3.6577,-3.6678,-3.6553,-3.6512,-3.6512,-3.6512,-3.6512,-3.6516,-3.6658,-3.69,-3.7113,-3.7133,-3.734,-3.7542,-3.756,-3.756,-3.7488,-3.7229,-3.7267,-3.7303,-3.7073,-3.715,-3.7245,-3.7245,-3.7245,-3.7339,-3.7596,-3.7826,-3.7997,-3.8044,-3.8125,-3.8241,-3.8426,-3.8442,-3.8491,-3.8615,-3.88,-3.8906,-3.8906,-3.9017,-3.9142,-3.9232,-3.9232,-3.9272,-3.9338,-3.9151,-3.9045,-3.9027,-3.877,-3.8725,-3.8906,-3.8752,-3.8933,-3.6058,-3.6474,-3.6738,-3.6307,-3.6353,-3.6492,-3.6492,-3.6492,-3.6554,-3.6785,-3.6647,-3.6554,-3.6785,-3.6662,-3.6569,-3.6815,-3.6861,-3.6861,-3.6861,-3.6861,-3.6769,-3.6522,-3.6492,-3.6492,0.0,0.0,0.0,-3.794,-3.8254,-3.8479,-3.8562,-3.8712,-3.8805,-3.8805,-3.8805,-3.8859,-3.8984,-3.9146,-3.9269,-3.9391,-3.9428,-3.9375,-3.9209,-3.9023,-3.8534,-3.7818,-3.7012,-3.6372,-3.5799,-3.5518,-3.5543,-3.5805,-3.5876,-3.5985,-3.6092,-3.5963,-3.592,-3.5941,-3.6216,-3.6301,-3.6301,-3.6301,-3.6301,-3.6301,-3.6301,-3.6301,-3.6301,-3.6301,-3.6492,-3.6698,-3.6698,-3.688,-3.7075,-3.7075,-3.7075,-3.6997,-3.6741,-3.6799,-3.6799,-3.6606,-3.665,-3.6751,-3.6751,-3.6829,-3.6911,-3.7013,-3.7339,-3.7614,-3.7684,-3.7701,-3.7771,-3.7946,-3.7946,-3.8048,-3.8267,-3.8446,-3.859,-3.8652,-3.8785,-3.884,-3.884,-3.884,-3.884,-3.884,-3.871,-3.8652,-3.8652,-3.8478,-3.8496,-3.8652,-3.8478,-3.86,-3.7153,-3.7477,-3.7461,-3.7492,-3.6999,-3.6492,-3.6492,-3.6492,-3.6492,-3.6523,-3.6523,-3.6523,-3.6523,-3.6523,-3.6707,-3.7353,-3.7446,-3.7446,-3.7446,-3.7446,-3.7215,0.0,0.0,0.0,0.0,0.0,0.0,-3.6938,-3.724,-3.7387,-3.7387,-3.7387,-3.7417,-3.7417,-3.7417,-3.7565,-3.7886,-3.8238,-3.859,-3.8914,-3.9044,-3.8876,-3.843,-3.7872,-3.719,-3.6385,-3.5671,-3.5103,-3.4712,-3.4658,-3.5078,-3.5694,-3.5316,-3.543,-3.5722,-3.5339,-3.5178,-3.5276,-3.5985,-3.622,-3.6237,-3.6237,-3.6237,-3.6237,-3.6237,-3.6237,-3.6259,-3.628,-3.628,-3.628,-3.6301,-3.6301,-3.6301,-3.6301,-3.6301,-3.6301,-3.6301,-3.6301,-3.6301,-3.6301,-3.6301,-3.628,-3.628,-3.6482,-3.6541,-3.628,-3.6482,-3.6893,-3.7542,-3.7631,-3.7631,-3.7648,-3.7648,-3.7754,-3.8034,-3.8068,-3.8152,-3.835,-3.8382,-3.8399,-3.8399,-3.8399,-3.8399,-3.8382,-3.8382,-3.8366,-3.8366,-3.835,-3.8366,-3.8382,-3.8366,-3.8366,-3.7277,-3.7138,-3.6861,-3.7384,-3.6999,-3.6492,-3.6492,-3.6492,-3.6585,-3.6816,-3.6677,-3.6585,-3.6816,-3.6662,-3.6553,-3.6722,-3.6738,0.0,-3.6738,-3.6738,0.0,-3.6507,0.0,-3.6492,-3.6492,-3.6492,0.0,-3.6616,-3.6923,-3.7105,-3.7105,-3.7284,-3.7417,-3.7417,-3.7417,-3.7447,-3.7535,-3.7637,-3.7725,-3.7812,-3.7825,-3.7812,-3.7663,-3.7004,-3.6346,-3.5632,-3.4888,-3.4239,-3.3688,-3.3926,-3.4292,-3.4682,-3.484,-3.5075,-3.5316,-3.5012,-3.4918,-3.4941,-3.5111,-3.5311,-3.5476,-3.5476,-3.5476,-3.5476,-3.5476,-3.5476,-3.5526,-3.5832,-3.5937,-3.6002,-3.6237,-3.6301,-3.6301,-3.6301,-3.6301,-3.6301,-3.6301,-3.6301,-3.6301,-3.6301,-3.611,-3.5937,-3.5937,-3.5722,-3.5566,-3.5498,-3.5788,-3.6178,-3.66,-3.6661,-3.6721,-3.6915,-3.6952,-3.705,-3.7261,-3.7595,-3.7809,-3.788,-3.8219,-3.8399,-3.8399,-3.8399,-3.8334,-3.8168,-3.8136,-3.8035,-3.788,-3.7827,-3.7897,-3.8103,-3.7915,-3.8018,-3.723,-3.723,-3.703,-3.74,-3.6999,-3.6492,-3.6492,-3.6492,-3.6554,-3.6754,-3.6616,-3.6554,-3.6754,-3.6631,-3.6599,0.0,0.0,0.0,-3.6938,-3.6938,-3.683,0.0,-3.6492,0.0,-3.6492,-3.6492,-3.6492,0.0,-3.6677,-3.6785,-3.6785,-3.6938,-3.7013,-3.7013,-3.7013,-3.7074,-3.721,-3.7328,-3.7417,-3.7417,-3.7284,-3.721,-3.7178,-3.607,-3.537,-3.4964,-3.4073,-3.3469,-3.315,-3.3445,-3.3764,-3.4093,-3.4127,-3.4333,-3.4553,-3.426,-3.4136,-3.4136,-3.4136,-3.4251,-3.4464,-3.5015,-3.5201,-3.5201,-3.5201,-3.5201,-3.5247,-3.5476,-3.5543,-3.5588,-3.5766,-3.5832,-3.5832,-3.5832,-3.5832,-3.5832,-3.5832,-3.5832,-3.5832,-3.5832,-3.5677,-3.5543,-3.5543,-3.5362,-3.5201,-3.5201,-3.5385,-3.5611,-3.5788,-3.6092,-3.6343,-3.6502,-3.6523,-3.6606,-3.6849,-3.7106,-3.7223,-3.715,-3.7432,-3.7524,-3.7323,-3.7506,-3.7542,-3.7359,-3.7487,-3.7541,-3.7522,-3.7503,-3.7595,-3.7828,-3.7667,-3.7757,-3.703,-3.7369,-3.7384,-3.7477,-3.6999,-3.6492,-3.6492,-3.6492,-3.6492,-3.6492,-3.6492,-3.6492,-3.6492,-3.6492,-3.6676,-3.7277,0.0,-3.7507,-3.7507,-3.7507,-3.7245,-3.6598,-3.6444,-3.6383,-3.6383,-3.6383,-3.6429,-3.6521,-3.6521,-3.6521,-3.6492,-3.6492,-3.6492,-3.6492,-3.6492,-3.6647,-3.6938,-3.7164,-3.7268,-3.7268,-3.7044,-3.6892,-3.6767,-3.5209,-3.4459,-3.4289,-3.3277,-3.2843,-3.2843,-3.3081,-3.3366,-3.3646,-3.3372,-3.3461,-3.3697,-3.3372,-3.3256,-3.3256,-3.3256,-3.3256,-3.3435,-3.4569,-3.4975,-3.5015,-3.5015,-3.5038,-3.5062,-3.5108,-3.5108,-3.5085,-3.5155,-3.5115,-3.5091,-3.5091,-3.5115,-3.5155,-3.5155,-3.5161,-3.5201,-3.5201,-3.5155,-3.5131,-3.5131,-3.5085,-3.5062,-3.5062,-3.5108,-3.5131,-3.5131,-3.5744,-3.6156,-3.6156,-3.6156,-3.6237,-3.6482,-3.6523,-3.6485,-3.6291,-3.6412,-3.6329,-3.5929,-3.6287,-3.6433,-3.6274,-3.6655,-3.6913,-3.705,-3.7145,-3.7279,-3.743,-3.7466,-3.7466,-3.6445,-3.6661,-3.6799,-3.7353,-3.6999,-3.6492,-3.6492,-3.6492,0.0,0.0,-3.6492,-3.6492,-3.6492,-3.6492,-3.6538,-3.6645,-3.7138,-3.7507,-3.7507,-3.7507,-3.7286,0.0,-3.6181,-3.5847,-3.5847,-3.5847,0.0,-3.6554,-3.6567,-3.6567,-3.6491,-3.6492,-3.6492,-3.6492,-3.6492,-3.6523,-3.6585,-3.6647,-3.6662,-3.6677,-3.6616,-3.6292,-3.5721,-3.4904,-3.4181,-3.3537,-3.2807,-3.2496,-3.2496,-3.2535,-3.2742,-3.3043,-3.3005,-3.315,-3.3346,-3.3069,-3.2978,-3.2978,-3.2978,-3.2978,-3.3043,-3.3503,-3.3781,-3.3958,-3.3958,-3.4109,-3.4358,-3.4675,-3.4643,-3.4513,-3.48,-3.4712,-3.4544,-3.4544,-3.4712,-3.4854,-3.4854,-3.5028,-3.5201,-3.5201,-3.4984,-3.4787,-3.4787,-3.4505,-3.4284,-3.4284,-3.4578,-3.4787,-3.4787,-3.5131,-3.5407,-3.5407,-3.5407,-3.5407,-3.5453,-3.5604,-3.5698,-3.5659,-3.589,-3.5977,-3.589,-3.5972,-3.5912,-3.5659,-3.5933,-3.5998,-3.5812,-3.6295,-3.6577,-3.66,-3.6736,-3.6776,-3.5784,-3.6215,-3.6569,-3.6892,-3.6738,-3.6492,-3.6492,0.0,0.0,0.0,-3.6492,-3.6492,-3.6492,-3.6492,0.0,-3.6492,-3.6769,-3.6874,-3.6604,-3.6829,-3.671,-3.5857,-3.5776,-3.5758,0.0,-3.5758,-3.5993,-3.6599,-3.6658,-3.666,-3.6613,-3.6598,-3.6448,-3.6135,-3.6433,-3.6433,-3.6135,-3.6394,-3.6388,-3.6085,-3.6367,-3.6138,-3.5491,-3.4813,-3.412,-3.3367,-3.269,-3.2398,-3.2398,-3.2398,-3.2496,-3.2648,-3.2648,-3.2715,-3.2823,-3.2703,-3.2648,-3.2648,-3.2648,-3.2648,-3.2676,-3.2796,-3.3118,-3.3503,-3.3503,-3.3581,-3.372,-3.3924,-3.3873,-3.3822,-3.3977,-3.391,-3.3825,-3.3825,-3.3926,-3.4077,-3.4202,-3.4325,-3.4415,-3.4415,-3.4284,-3.4126,-3.4,-3.3797,-3.3668,-3.3668,-3.3975,-3.4176,-3.4176,-3.4431,-3.4778,-3.5155,-3.5201,-3.5201,-3.5201,-3.5283,-3.5283,-3.5098,-3.5276,-3.5253,-3.4981,-3.523,-3.5276,-3.5075,-3.5374,-3.5515,-3.5504,-3.5786,-3.6002,-3.6143,-3.6224,-3.6245,-3.5106,-3.5799,-3.6276,-3.6276,-3.6276,-3.6276,-3.6276,-3.6276,0.0,-3.6461,-3.6492,-3.6492,-3.6492,-3.6492,-3.6492,-3.6492,-3.6738,-3.6749,-3.6174,-3.6634,-3.6626,0.0,-3.5629,0.0,-3.5849,-3.5849,0.0,-3.6687,-3.6756,-3.6748,-3.6702,-3.6687,-3.6487,-3.6001,-3.6457,-3.6487,-3.5987,-3.6428,-3.6375,-3.5932,-3.6336,-3.6116,-3.5339,-3.4774,-3.4085,-3.325,-3.2555,-3.228,-3.2275,-3.2137,-3.2104,-3.2104,-3.2104,-3.2104,-3.2104,-3.2104,-3.2104,-3.2104,-3.2104,-3.2104,-3.2104,-3.2104,-3.2605,-3.3203,-3.3203,-3.3187,-3.316,-3.316,-3.3091,-3.3038,-3.3038,-3.3065,-3.3134,-3.3203,-3.3203,-3.3282,-3.3555,-3.3607,-3.3565,-3.3487,-3.3445,-3.3382,-3.3049,-3.3091,-3.316,-3.316,-3.333,-3.3513,-3.3591,-3.3704,-3.4068,-3.4802,-3.4944,-3.4968,-3.4968,-3.4968,-3.4849,-3.4594,-3.4667,-3.4546,-3.4126,-3.4497,-3.4667,-3.457,-3.4842,-3.5028,-3.5203,-3.5295,-3.5448,-3.5644,-3.5666,-3.5688,-3.4397,-3.509,-3.5598,-3.5598,-3.5598,-3.5598,-3.5598,0.0,-3.5753,-3.6368,-3.6492,-3.6492,-3.6492,-3.6492,-3.6492,-3.6492,-3.7523,-3.8111,-3.7515,-3.8004,-3.8012,-3.6947,0.0,0.0,-3.5985,-3.5985,-3.6245,-3.6843,-3.6945,-3.6896,-3.6726,-3.6687,-3.6658,-3.6614,-3.6658,-3.6658,-3.6614,-3.6683,-3.6639,-3.663,-3.6665,-3.6049,-3.4871,-3.4668,-3.3993,-3.2889,-3.2107,-3.1824,-3.19,-3.1353,-3.1131,-3.1131,-3.1131,-3.1131,-3.1131,-3.1131,-3.1131,-3.1131,-3.1131,-3.1131,-3.1131,-3.1131,-3.1951,-3.2924,-3.2924,-3.2812,-3.2656,-3.2656,-3.2449,-3.2213,-3.2213,-3.2355,-3.2578,-3.2854,-3.2924,-3.3005,-3.3282,-3.3319,-3.3214,-3.2792,-3.2695,-3.2559,-3.2114,-3.2379,-3.2656,-3.2656,-3.2683,-3.2861,-3.3266,-3.2996,-3.3033,-3.3755,-3.4075,-3.4184,-3.4184,-3.4184,-3.4201,-3.4151,-3.4176,-3.4151,-3.4101,-3.4151,-3.4176,-3.4151,-3.4201,-3.4209,-3.4234,-3.4602,-3.4787,-3.4794,-3.493,-3.4977,-3.3752,-3.4366,-3.4905,-3.4905,-3.4905,-3.4905,-3.4905,0.0,-3.4982,-3.5244,-3.5306,-3.5306,-3.5306,-3.5645,-3.5676,-3.4988,-3.6244,-3.6755,-3.5189,-3.6409,-3.6916,-3.551,-3.5762,0.0,0.0,0.0,-3.6315,-3.6902,-3.6993,-3.6947,-3.6876,-3.69,-3.6713,-3.6341,-3.6699,-3.6713,-3.6341,-3.6656,-3.6649,-3.6293,-3.6215,-3.5678,-3.478,-3.4374,-3.3706,-3.2851,-3.2122,-3.1841,-3.1837,-3.1264,-3.0999,-3.0999,-3.0999,-3.0999,-3.0999,-3.0999,-3.0999,-3.0999,-3.0999,-3.0999,-3.0999,-3.0999,-3.135,-3.1752,-3.1752,-3.1709,-3.1637,-3.1637,-3.1522,-3.1436,-3.1436,-3.1508,-3.1595,-3.1724,-3.1752,-3.1838,-3.2102,-3.2158,-3.2102,-3.1918,-3.189,-3.1764,-3.1436,-3.1522,-3.1637,-3.1637,-3.1764,-3.1962,-3.213,-3.2185,-3.2296,-3.2598,-3.3219,-3.3668,-3.3848,-3.3694,-3.3539,-3.3335,-3.3308,-3.323,-3.3087,-3.3087,-3.3245,-3.3553,-3.3553,-3.3662,-3.3848,-3.4025,-3.4101,-3.4101,-3.4151,-3.4047,-3.3352,-3.3767,-3.4181,-3.4181,-3.4181,-3.4181,0.0,0.0,-3.4243,-3.4459,-3.4505,-3.4566,-3.4767,-3.5063,-3.5003,-3.4212,-3.535,-3.5726,-3.3984,-3.5494,-3.6338,0.0,0.0,-3.6385,-3.6385,-3.6385,-3.6553,-3.695,-3.6978,-3.6978,-3.6978,-3.6875,-3.6679,-3.6399,-3.6768,-3.6782,-3.6385,-3.6736,-3.671,-3.6305,-3.6006,-3.5497,-3.4707,-3.4037,-3.3427,-3.2782,-3.2104,-3.1803,-3.1743,-3.1105,-3.0757,-3.0583,-3.0583,-3.0583,-3.0583,-3.0583,-3.0583,-3.0583,-3.0583,-3.0583,-3.0583,-3.0583,-3.0583,-3.0583,-3.0583,-3.0673,-3.0792,-3.0792,-3.0792,-3.0822,-3.097,-3.0999,-3.0999,-3.0999,-3.0999,-3.1043,-3.1247,-3.1276,-3.1232,-3.1087,-3.1057,-3.0984,-3.0643,-3.0703,-3.0792,-3.0792,-3.094,-3.1116,-3.1276,-3.1363,-3.1521,-3.1749,-3.2284,-3.278,-3.314,-3.298,-3.2792,-3.2544,-3.2544,-3.2461,-3.2272,-3.2256,-3.2434,-3.281,-3.281,-3.2933,-3.3166,-3.3166,-3.3166,-3.315,-3.317,-3.2919,-3.3229,-3.3413,-3.3413,-3.3413,-3.3413,-3.3413,0.0,-3.3413,-3.3614,-3.4351,-3.4505,-3.4705,-3.5383,-3.5049,-3.4739,-3.4786,-3.5436,-3.5698,-3.5062,-3.6151,-3.698,0.0,0.0,-3.6978,-3.6978,-3.6978,-3.6978,-3.6978,-3.6978,-3.6978,-3.6978,-3.6615,-3.6589,-3.6978,-3.6978,-3.6978,-3.6978,-3.7017,-3.7017,-3.6989,-3.637,-3.5577,-3.456,-3.3754,-3.3157,-3.2642,-3.1921,-3.1561,-3.1462,-3.0783,-3.015,-2.9602,-2.9602,-2.9602,-2.9602,-2.9602,-2.9602,-2.9602,-2.9602,-2.9602,-2.9602,-2.9602,-2.9602,-2.9602,-2.9602,-2.9929,-3.0312,-3.0312,-3.0312,-3.0403,-3.0881,-3.0999,-3.0999,-3.0999,-3.0999,-3.0999,-3.0984,-3.0984,-3.0881,-3.0403,-3.0312,-3.0174,-2.9696,-2.9991,-3.0312,-3.0312,-3.0312,-3.0493,-3.094,-3.0613,-3.0598,-3.1348,-3.1175,-3.1277,-3.1862,-3.1918,-3.1903,-3.1918,-3.1918,-3.1918,-3.1918,-3.1918,-3.1918,-3.1903,-3.1903,-3.1918,-3.1918,-3.1918,-3.1918,-3.1916,-3.1938,-3.1544,-3.2659,-3.2721,-3.2721,-3.2721,-3.2721,-3.2721,-3.2721,-3.2721,-3.2782,-3.3013,-3.2804,-3.2635,-3.2848,-3.3261,-3.3426,-3.3062,-3.4596,-3.5346,-3.4022,-3.5364,0.0,-3.5363,-3.5774,-3.5937,-3.5454,-3.5413,-3.5237,-3.4719,-3.4678,-3.4678,-3.4678,-3.5033,-3.5642,-3.6575,-3.6284,-3.6284,-3.6589,-3.6589,-3.6589,-3.6575,-3.5558,-3.472,-3.4055,-3.2579,-3.2037,-3.2232,-3.1167,-3.1073,-3.1618,-3.053,-3.0132,-3.0161,-2.9519,-2.9383,-2.9571,-2.9352,-2.9383,-2.9602,-2.9602,-2.9602,-2.9602,-2.9602,-2.9261,-2.8839,-2.8739,-2.923,-2.982,-2.982,-2.982,-2.9851,-2.9991,-3.0052,-3.0052,-3.0052,-3.0052,-3.0052,-3.0052,-3.0052,-2.9991,-2.9837,-2.982,-2.9789,-2.9634,-2.931,-2.9251,-2.9744,-2.9012,-2.8602,-2.9223,-2.8762,-2.8473,-2.8721,-2.8671,-2.9414,-3.1391,-3.1392,-3.1219,-3.1014,-3.1014,-3.0896,-3.0673,-3.0673,-3.0852,-3.129,-3.129,-3.1377,-3.1563,-3.1563,-3.1338,-3.0943,-3.0643,-3.0161,-3.2398,-3.2398,-3.2398,-3.2398,-3.2398,-3.2398,-3.2398,-3.2259,-3.2104,-3.1962,-3.158,-3.1367,-3.1693,-3.2045,-3.2256,-3.2122,-3.3736,-3.4476,-3.3064,-3.4627,0.0,-3.4675,-3.4781,-3.4746,-3.4319,-3.4277,-3.4098,-3.3623,-3.3581,-3.3581,-3.3581,-3.3901,-3.4387,-3.5073,-3.5507,-3.571,-3.575,-3.6018,-3.6152,-3.6125,-3.489,-3.3982,-3.3273,-3.1683,-3.1044,-3.1169,-3.0653,-3.0741,0.0,-3.037,-3.007,-3.0007,-2.9198,-2.9022,-2.9162,-2.872,-2.8862,-2.9149,-2.8725,-2.8725,-2.8835,-2.8661,-2.8266,-2.7894,-2.7789,-2.8149,-2.8583,-2.8583,-2.8661,-2.8771,-2.904,-2.904,-2.9071,-2.9352,-2.932,-2.9162,-2.8944,-2.8867,-2.8835,-2.8725,-2.8693,-2.8739,-2.8771,-2.8422,-2.8247,-2.8629,-2.7966,-2.7524,-2.7861,-2.7611,-2.7404,-2.7404,-2.7438,-2.8168,-2.9787,-3.0013,-3.0101,-3.0219,-3.0219,-3.0127,-2.9927,-2.9927,-3.0083,-3.0464,-3.0464,-3.0539,-3.0718,-3.0718,-3.0397,-2.9809,-2.9573,-2.9124,0.0,-3.2398,-3.2398,-3.2398,-3.2398,-3.2398,-3.2398,-3.2035,0.0,-3.1275,-3.0793,-3.0719,-3.1654,-3.1448,-3.1312,-3.2007,-3.2982,-3.328,-3.2295,-3.384,0.0,0.0,-3.3956,-3.3509,-3.3462,-3.3437,-3.3411,-3.3369,-3.3369,-3.3369,-3.3369,-3.3054,-3.2864,-3.2809,-3.4524,-3.5196,-3.4581,-3.5196,-3.5507,-3.5494,-3.428,-3.3235,-3.2263,-3.0984,-3.0152,-2.9704,-3.019,-3.0321,-3.0217,-3.0128,-2.9812,-2.9214,-2.8628,-2.8432,-2.8411,-2.7855,-2.802,-2.8346,-2.7265,-2.7245,-2.7557,-2.6984,-2.6815,-2.6769,-2.6748,-2.6815,-2.6917,-2.6917,-2.7018,-2.7358,-2.8012,-2.8065,-2.8084,-2.8785,-2.8716,-2.8346,-2.7769,-2.7624,-2.7557,-2.7245,-2.7178,-2.7245,-2.7438,-2.7404,-2.7338,-2.7211,-2.7111,-2.6976,-2.6849,-2.693,-2.701,-2.701,-2.7204,-2.7351,-2.7371,-2.8019,-2.8712,-2.9401,-2.9432,-2.9477,-2.9509,-2.954,-2.954,-2.9602,-2.9602,-2.9602,-2.9602,-2.9602,-2.9275,-2.865,-2.865,-2.8304,-3.252,0.0,-3.2398,-3.2398,-3.2398,-3.2398,0.0,-3.1821,-3.1304,-3.1217,-3.033,-2.9926,-3.1016,-3.1206,-3.1659,-3.3199,-3.3676,-3.3596,-3.2874,-3.2489,0.0,-3.3395,-3.2953,-3.2537,-3.2378,-3.2031,-3.1625,-3.1024,-3.0979,-3.0979,-3.0979,-3.1448,-3.146,-3.0869,-3.2333,-3.3194,-3.3407,-3.3534,-3.3619,-3.3606,-3.2521,-3.1661,-3.1066,-2.9466,-2.8937,-2.9238,-2.8897,-2.8955,-2.9185,-2.8716,-2.8405,-2.8144,-2.7602,-2.7374,-2.7284,-2.7258,-2.728,-2.7265,-2.6984,-2.6984,-2.695,-2.6283,-2.5938,-2.573,-2.5217,-2.5916,-2.6917,-2.6917,-2.6917,-2.7018,-2.7198,-2.7185,-2.7185,-2.7365,-2.7365,-2.7265,-2.7131,-2.7098,-2.7051,-2.6984,-2.6984,-2.7018,-2.7258,-2.6671,-2.6433,-2.7111,-2.6148,-2.5511,-2.5985,-2.5639,-2.5359,-2.5359,-2.5394,-2.5629,-2.6171,-2.6997,-2.7657,-2.798,-2.7855,-2.8051,-2.873,-2.8776,-2.9012,-2.9571,-2.9602,-2.9602,-2.9602,-2.9602,-2.9062,-2.801,-2.801,-2.7173,-3.2029,-3.2151,-3.2398,-3.2398,-3.2398,-3.2342,-3.212,-3.145,-3.0778,-3.0391,-2.968,-2.9323,-3.0092,-3.0264,-3.0771,-3.2315,-3.2471,-3.2542,0.0,0.0,-3.157,-3.2478,-3.2088,-3.1561,-3.12,-3.0955,-3.0623,-3.0216,-3.0216,-3.0216,-3.0216,-3.0578,-3.0623,-3.0216,-3.0958,-3.1613,-3.2227,-3.2519,-3.2692,-3.2679,-3.1846,-3.1033,-3.0264,-2.9044,-2.8421,-2.8235,-2.8207,-2.8345,-2.8513,-2.7973,-2.7717,-2.7605,-2.7041,-2.6667,-2.644,-2.6487,-2.648,-2.6364,-2.5847,-2.5673,-2.5615,-2.5205,-2.5004,-2.4826,-2.4478,-2.4981,-2.5673,-2.5673,-2.572,-2.5881,-2.6168,-2.6214,-2.6261,-2.6591,-2.6557,-2.6364,-2.6077,-2.6042,-2.5985,-2.5824,-2.5789,-2.5859,-2.6045,-2.5687,-2.5476,-2.5906,-2.5206,-2.4766,-2.5052,-2.4838,-2.4646,-2.4646,-2.4754,-2.4957,-2.5312,-2.5709,-2.6308,-2.7178,-2.7131,-2.7265,-2.7749,-2.7782,-2.8005,-2.8487,-2.8597,-2.8643,-2.8643,-2.8643,-2.8135,-2.7193,-2.6982,-2.6178,-3.1532,-3.1951,-3.237,-3.2398,-3.2398,-3.2231,-3.1752,-3.0999,-3.0235,-2.9596,-2.9075,-2.886,-2.9448,-2.9492,-2.9844,-3.0906,-3.0798,-3.1019,-3.2299,-3.1588,-3.1189,-3.1768,-3.1286,-3.0744,-3.0376,-3.0262,-3.0216,-3.0216,-3.0216,-3.0216,-3.0216,-3.0216,-3.0216,-3.0216,-3.0216,-3.0487,-3.1128,-3.1713,-3.1952,-3.1952,-3.1454,-3.0633,-2.9628,-2.9053,-2.8204,-2.7231,-2.7777,-2.8011,-2.7905,-2.7467,-2.7265,-2.7186,-2.6707,-2.621,-2.5764,-2.579,-2.5733,-2.5511,-2.4539,-2.42,-2.42,-2.42,-2.42,-2.42,-2.42,-2.42,-2.42,-2.42,-2.4309,-2.4586,-2.5158,-2.5217,-2.53,-2.5941,-2.5849,-2.5511,-2.4981,-2.4874,-2.4778,-2.4526,-2.4454,-2.4538,-2.4718,-2.4718,-2.4646,-2.4538,-2.4454,-2.4381,-2.4236,-2.4345,-2.4454,-2.4454,-2.461,-2.4718,-2.4718,-2.4538,-2.5028,-2.6408,-2.651,-2.6578,-2.6714,-2.6849,-2.6984,-2.7131,-2.7324,-2.7438,-2.7438,-2.7438,-2.7137,-2.6505,-2.602,-2.5397,-3.2211,-3.2238,-3.2274,-3.237,-3.2315,-3.2064,-3.1435,-3.057,-3.0001,-3.0256,-2.8919,-2.8321,-3.0305,-3.0674,-3.0894,-3.1422,-3.0955,-3.0421,-3.0253,-2.9933,-3.0086,-3.1032,-3.0652,-3.048,-3.0859,-3.048,-3.0216,-3.0216,-3.0216,-3.0216,-3.0216,-3.0216,-3.0216,-3.0216,-3.0216,-3.0261,-3.0352,-3.0476,-3.0521,-3.0521,-3.0034,-2.948,-2.8849,-2.8364,-2.7785,-2.719,-2.7301,-2.714,-2.6764,-2.6695,-2.6398,-2.6008,-2.6371,-2.5897,-2.5115,-2.5546,-2.518,-2.4442,-2.4261,-2.42,-2.42,-2.42,-2.42,-2.42,-2.42,-2.42,-2.42,-2.42,-2.4236,-2.4273,-2.4358,-2.4358,-2.4406,-2.4503,-2.4503,-2.4442,-2.4334,-2.4334,-2.4298,-2.4273,-2.4236,-2.4309,-2.449,-2.4418,-2.4345,-2.449,-2.4345,-2.4236,-2.42,-2.4236,-2.4236,-2.4236,-2.4273,-2.4309,-2.4309,-2.4273,-2.437,-2.4599,-2.479,-2.5194,-2.5951,-2.6578,-2.6917,-2.695,-2.6984,-2.7064,-2.7258,-2.7258,-2.6992,-2.6505,-2.602,-2.5161,-3.111,-3.1601,-3.2023,-3.1722,-3.1608,-3.1305,-3.0391,-2.9704,-2.9259,-2.9199,-2.8796,-2.8694,-2.9363,-2.9758,-2.9811,-2.9295,-2.9682,-2.9977,-2.9647,-3.0004,-3.0491,-3.0962,-3.0801,-3.0629,-3.0583,-3.0354,-2.9977,-2.9417,-2.9371,-2.913,-2.8609,-2.8563,-2.8852,-2.9371,-2.9371,-2.9658,-3.0216,-3.0216,-3.0216,-3.0216,-2.9998,-2.947,-2.8689,-2.8471,-2.7954,-2.719,-2.719,-2.7093,-2.6852,-2.6616,-2.6363,-2.6117,-2.6071,-2.5589,-2.4912,-2.49,-2.4602,-2.42,-2.42,-2.42,-2.42,-2.42,-2.42,-2.42,-2.42,-2.42,-2.42,-2.42,-2.42,-2.42,-2.42,-2.42,-2.42,-2.42,-2.42,-2.42,-2.42,-2.42,-2.42,-2.42,-2.42,-2.4236,-2.4309,-2.4273,-2.4236,-2.4309,-2.4273,-2.42,-2.42,-2.42,-2.42,-2.42,-2.42,-2.42,-2.42,-2.42,-2.4007,-2.3593,-2.4043,-2.4129,-2.3649,-2.4886,-2.5169,-2.428,-2.524,-2.558,-2.5204,-2.5685,-2.5795,-2.5571,-2.5049,-2.4353,-3.0426,-3.1195,-3.1784,-3.1102,-3.094,-3.0644,-2.9453,-2.8949,-2.8701,-2.8612,-2.8751,-2.8831,-2.8722,-2.8764,-2.8647,-2.8075,-2.8899,-2.9597,-2.9523,-3.0262,-3.0824,-3.0824,-3.0824,-3.0663,-3.025,-2.9988,-2.952,-2.8771,-2.8481,-2.8002,-2.7237,-2.7189,-2.7568,-2.8341,-2.8341,-2.8713,-2.9406,-2.9406,-2.9555,-2.984,-2.984,-2.9375,-2.8513,-2.84,-2.8006,-2.7362,-2.7236,-2.719,-2.7156,-2.6806,-2.6616,-2.6427,-2.583,-2.509,-2.4318,-2.4226,-2.408,-2.3934,-2.4116,-2.42,-2.42,-2.42,-2.42,-2.42,-2.42,-2.408,-2.3934,-2.4043,-2.3813,-2.3655,-2.408,-2.4043,-2.397,-2.4164,-2.4055,-2.397,-2.4164,-2.4043,-2.397,-2.4152,-2.42,-2.42,-2.42,-2.42,-2.42,-2.42,-2.42,-2.42,-2.42,-2.42,-2.4127,-2.3934,-2.3934,-2.3849,-2.3655,-2.3629,-2.3287,-2.2467,-2.3176,-2.3091,-2.1842,-2.3128,-2.3265,-2.1962,-2.3386,-2.3863,-2.3452,-2.4129,-2.4562,-2.4778,-2.426,-2.3801,-3.1566,-3.1851,-3.1645,-3.0989,-3.0823,-3.0464,-2.9139,-2.8675,-2.8791,-2.9757,-2.8718,-2.8104,-2.9586,-2.8886,-2.8556,-3.0036,-2.9849,-2.9502,-2.9493,-2.994,-3.0273,-3.0273,-3.0273,-3.0262,-3.0216,-2.9371,-2.8771,-2.8724,-2.7861,-2.7284,-2.7189,-2.7189,-2.7237,-2.7332,-2.7332,-2.7226,-2.7074,-2.7026,-2.7652,-2.8817,-2.8817,-2.8543,-2.8017,-2.7523,-2.7542,-2.7897,-2.7438,-2.719,-2.719,-2.7144,-2.6898,-2.6422,-2.5583,-2.419,-2.2787,-2.3809,-2.3714,-2.3187,-2.3934,-2.42,-2.42,-2.42,-2.42,-2.42,-2.42,-2.3677,-2.315,-2.3519,-2.267,-2.201,-2.3728,-2.3641,-2.3261,-2.4007,-2.3641,-2.3298,-2.4043,-2.3593,-2.3298,-2.4055,-2.42,-2.42,-2.42,-2.42,-2.42,-2.42,-2.42,-2.42,-2.42,-2.42,-2.3897,-2.315,-2.3075,-2.2767,-2.2031,-2.1983,-2.1603,-2.0731,-2.1489,-2.1907,-2.1794,-2.1918,-2.1945,-2.1832,-2.1956,-2.2435,-2.3327,-2.3364,-2.3911,-2.4778,-2.426,-2.399,-3.0852,-3.1037,-3.0836,-3.0142,-2.995,-2.9596,-2.827,-2.8219,-2.8641,-2.9428,-2.9055,-2.87,-2.9221,-2.8322,-2.7911,-2.916,-2.9161,-2.9125,-2.9458,-2.9917,-2.9977,-2.9325,-2.9279,-2.9037,-2.8423,-2.7992,-2.7531,-2.6877,-2.6494,-2.5964,-2.5392,-2.5187,-2.5373,-2.6003,-2.5858,-2.6031,-2.6539,-2.6529,-2.6491,-2.633,-2.7132,-2.7327,-2.7003,-2.6403,-2.6064,-2.5914,-2.5349,-2.5147,-2.5263,-2.5005,-2.4904,-2.477,-2.3727,-2.2621,-2.1732,-2.2574,-2.2435,-2.1962,-2.3054,-2.3213,-2.3016,-2.3629,-2.3482,-2.3102,-2.3239,-2.266,-2.2021,-2.2038,-2.1268,-2.0865,-2.2644,-2.2569,-2.2134,-2.2596,-2.2494,-2.2344,-2.2633,-2.2483,-2.2295,-2.2435,-2.2472,-2.2472,-2.2472,-2.2472,-2.251,-2.267,-2.2708,-2.2708,-2.2708,-2.2708,-2.2596,-2.2295,-2.2268,-2.2145,-2.1832,-2.1308,-2.0847,-2.0498,-2.1308,-2.1336,-2.0304,-2.126,-2.1298,-2.0265,-2.126,-2.1718,-2.1555,-2.2086,-2.282,-2.3666,-2.3464,-2.3468,-3.0597,-3.063,-3.0325,-2.9656,-2.9181,-2.8612,-2.7702,-2.7967,-2.8501,-2.8962,-2.8938,-2.8812,-2.8633,-2.7969,-2.771,-2.8564,-2.8717,-2.8767,-2.8993,-2.9352,-2.9222,-2.8236,-2.8038,-2.7699,-2.7037,-2.6655,-2.6186,-2.5489,-2.5148,-2.4677,-2.3994,-2.3746,-2.3985,-2.4658,-2.451,-2.4737,-2.5344,-2.5334,-2.4963,-2.4313,-2.5158,-2.565,-2.5695,-2.5161,-2.4801,-2.4625,-2.4038,-2.3808,-2.3805,-2.3521,-2.3185,-2.2818,-2.2136,-2.1221,-2.0469,-2.1431,-2.1344,-2.0874,-2.201,-2.2172,-2.1973,-2.2622,-2.2483,-2.2117,-2.2161,-2.1621,-2.0932,-2.0913,-2.0187,-1.9708,-2.1078,-2.1221,-2.1125,-2.1555,-2.1489,-2.1364,-2.1603,-2.1403,-2.1211,-2.1278,-2.1306,-2.1344,-2.1392,-2.1392,-2.1479,-2.1756,-2.1794,-2.1794,-2.1794,-2.1794,-2.168,-2.1413,-2.1145,-2.1029,-2.1029,-2.0459,-2.0109,-2.0109,-2.0692,-2.0489,-1.9341,-2.0421,-2.0459,-1.9301,-2.0411,-2.0837,-2.0498,-2.1116,-2.1804,-2.2617,-2.2617,-2.2742,-3.1074,-3.0891,-3.0234,-2.9547,-2.8545,-2.7668,-2.7516,-2.791,-2.8321,-2.8474,-2.8327,-2.8129,-2.8008,-2.7977,-2.8128,-2.8589,-2.8683,-2.8519,-2.8036,-2.8143,-2.7887,-2.6884,-2.6539,-2.6386,-2.6386,-2.545,-2.4894,-2.4894,-2.3976,-2.3397,-2.3397,-2.3397,-2.3397,-2.3397,-2.3397,-2.3247,-2.2996,-2.2996,-2.2996,-2.2996,-2.2996,-2.3462,-2.4279,-2.3786,-2.3912,-2.4438,-2.3985,-2.3541,-2.3148,-2.318,-2.2162,-2.0703,-2.0966,-2.009,-1.8882,-2.0498,-2.0566,-2.0012,-2.0797,-2.1229,-2.1354,-2.1181,-2.1219,-2.1354,-2.1143,-2.0537,-1.9972,-2.0343,-1.9471,-1.8514,-1.9143,-1.9708,-2.0391,-2.1163,-2.0778,-2.0391,-2.1201,-2.0595,-2.0119,-2.0903,-2.1056,-2.1143,-2.1354,-2.1354,-2.1479,-2.1718,-2.1766,-2.1766,-2.1794,-2.1794,-2.1461,-2.0576,-1.9766,-1.9301,-1.9301,-1.9301,-1.9301,-1.9301,-1.9301,-1.9301,-1.9301,-1.9301,-1.9301,-1.9301,-1.9301,-1.9687,-2.0508,-2.0508,-2.0914,-2.1804,-2.1804,-2.1794,-3.0657,-3.0266,-2.961,-2.892,-2.8172,-2.7608,-2.7585,-2.7903,-2.8231,-2.829,-2.8033,-2.7668,-2.7097,-2.6757,-2.6622,-2.6972,-2.6938,-2.6787,-2.6481,-2.6773,-2.6587,-2.5606,-2.5412,-2.507,-2.4353,-2.4026,-2.3827,-2.3827,-2.3596,-2.3397,-2.3397,-2.3197,-2.3097,-2.3097,-2.2946,-2.2795,-2.2695,-2.2695,-2.2695,-2.2745,-2.2427,-2.2632,-2.322,-2.2631,-2.2321,-2.219,-2.1309,-2.0947,-2.0976,-2.061,-1.9902,-1.9097,-1.917,-1.8776,-1.8322,-1.9253,-1.9164,-1.8736,-1.9855,-2.0012,-1.9835,-2.0459,-2.0353,-1.9952,-2.0012,-1.9481,-1.8825,-1.8767,-1.8425,-1.8161,-1.8353,-1.8665,-1.9015,-1.942,-1.9301,-1.9192,-1.946,-1.9271,-1.9073,-1.9164,-1.9204,-1.9244,-1.9283,-1.9283,-1.9402,-1.9766,-1.9844,-1.9883,-2.0031,-2.0031,-1.9952,-1.9687,-1.9301,-1.9073,-1.9073,-1.8962,-1.8891,-1.8891,-1.8891,-1.9002,-1.9301,-1.9301,-1.9301,-1.9301,-1.9152,-1.9271,-1.9648,-1.9499,-1.9923,-2.0885,-2.0885,-2.1221,-3.0353,-2.9767,-2.8979,-2.8571,-2.7502,-2.6634,-2.6834,-2.7135,-2.7345,-2.73,-2.7133,-2.6871,-2.6386,-2.6021,-2.5776,-2.5693,-2.5588,-2.5355,-2.4959,-2.5205,-2.5102,-2.4236,-2.4066,-2.3777,-2.3147,-2.3097,-2.3097,-2.3097,-2.3097,-2.3097,-2.3097,-2.2946,-2.2846,-2.2846,-2.2695,-2.2594,-2.2594,-2.2594,-2.2594,-2.2594,-2.2175,-2.2114,-2.2232,-2.1704,-2.1237,-2.083,-1.9891,-1.9514,-1.9445,-1.8963,-1.8571,-1.8241,-1.8241,-1.8161,-1.804,-1.8434,-1.8362,-1.8112,-1.8895,-1.8984,-1.8834,-1.9353,-1.9244,-1.8944,-1.8984,-1.8625,-1.8201,-1.804,-1.8,-1.8,-1.8,-1.8121,-1.8282,-1.8531,-1.8571,-1.8571,-1.8571,-1.8491,-1.8411,-1.8282,-1.8241,-1.8273,-1.8402,-1.8402,-1.8523,-1.8843,-1.8891,-1.8922,-1.9042,-1.9073,-1.9073,-1.9073,-1.8962,-1.8891,-1.8891,-1.8772,-1.87,-1.87,-1.87,-1.8812,-1.9042,-1.9073,-1.9112,-1.9192,-1.8962,-1.8922,-1.9073,-1.8922,-1.9192,-1.9775,-1.9883,-2.0187,-3.0044,-2.935,-2.8407,-2.8335,-2.6661,-2.5126,-2.552,-2.5768,-2.5935,-2.5908,-2.5894,-2.5829,-2.5772,-2.5583,-2.524,-2.4659,-2.4414,-2.4039,-2.3452,-2.3542,-2.3523,-2.295,-2.2728,-2.2594,-2.2594,-2.2594,-2.2594,-2.2594,-2.2594,-2.2594,-2.2594,-2.2594,-2.2594,-2.2594,-2.2594,-2.2594,-2.2594,-2.2594,-2.2544,-2.2434,-2.2034,-2.1553,-2.11,-2.099,-2.0626,-2.0146,-1.947,-1.893,-1.8511,-1.8136,-1.8,-1.8,-1.8,-1.8,-1.8,-1.8,-1.8,-1.8,-1.8,-1.8161,-1.8322,-1.808,-1.8161,-1.8322,-1.8072,-1.8,-1.8,-1.8,-1.8,-1.8,-1.8,-1.8,-1.808,-1.8322,-1.8362,-1.8362,-1.8362,-1.8152,-1.8,-1.8,-1.8,-1.808,-1.8322,-1.8362,-1.8442,-1.8652,-1.87,-1.87,-1.87,-1.87,-1.87,-1.87,-1.87,-1.866,-1.866,-1.866,-1.866,-1.866,-1.866,-1.866,-1.866,-1.87,-1.8772,-1.8962,-1.8772,-1.87,-1.87,-1.87,-1.87,-1.87,-1.8882,-1.8962,-2.9558,-2.9059,-2.8343,-2.7892,-2.6444,-2.4984,-2.4371,-2.4532,-2.5061,-2.5829,-2.5347,-2.4826,-2.4817,-2.4354,-2.37,-2.3022,-2.2676,-2.2235,-2.155,-2.1996,-2.2348,-2.2255,-2.2422,-2.2594,-2.2594,-2.2594,-2.2594,-2.2594,-2.2594,-2.2594,-2.2594,-2.2594,-2.2594,-2.2594,-2.2594,-2.2594,-2.2594,-2.2594,-2.2131,-2.1242,-2.0646,-1.9859,-1.8992,-2.032,-2.0343,-1.9453,-1.9282,-1.8785,-1.8102,-1.8034,-1.8,-1.8,-1.8,-1.8,-1.8,-1.8,-1.8,-1.8,-1.8,-1.804,-1.808,-1.804,-1.804,-1.808,-1.804,-1.8,-1.8,-1.8,-1.8,-1.8,-1.8,-1.8,-1.7991,-1.8072,-1.808,-1.808,-1.808,-1.804,-1.8,-1.8,-1.8,-1.804,-1.808,-1.808,-1.8161,-1.8442,-1.8612,-1.87,-1.87,-1.87,-1.87,-1.87,-1.8571,-1.8442,-1.8442,-1.8282,-1.8161,-1.8161,-1.8161,-1.8241,-1.8442,-1.8612,-1.874,-1.8772,-1.8571,-1.8523,-1.87,-1.8523,-1.8571,-1.87,-1.8732,-1.8772,-2.8653,-2.8052,-2.7051,-2.5996,-2.5116,-2.4381,-2.3897,-2.4179,-2.4655,-2.5153,-2.5055,-2.4741,-2.4415,-2.3791,-2.3005,-2.2087,-2.1644,-2.1346,-2.1152,-2.1636,-2.2064,-2.2235,-2.2482,-2.2594,-2.2594,-2.2594,-2.2594,-2.2594,-2.2594,-2.2594,-2.2594,-2.2594,-2.2594,-2.2594,-2.208,-2.1768,-2.1768,-2.1251,-2.0594,-1.987,-1.9391,-1.8929,-1.8567,-1.9489,-1.9656,-1.9213,-1.9213,-1.8742,-1.8,-1.8,-1.8,-1.8,-1.8,-1.8,-1.8,-1.8,-1.8,-1.8,-1.8,-1.8,-1.8,-1.8,-1.8,-1.8,-1.8,-1.8,-1.8,-1.8,-1.8,-1.8,-1.8,-1.8,-1.8,-1.8,-1.8,-1.8,-1.8,-1.8,-1.8,-1.8,-1.8,-1.8,-1.8,-1.8,-1.804,-1.8201,-1.8282,-1.8362,-1.8362,-1.8362,-1.8362,-1.8362,-1.8282,-1.8201,-1.8201,-1.808,-1.8,-1.8,-1.8,-1.808,-1.8201,-1.791,-1.7991,-1.8571,-1.8322,-1.8241,-1.8362,-1.8241,-1.8241,-1.8371,-1.8491,-1.8571,-2.7881,-2.7156,-2.5737,-2.4115,-2.3741,-2.3777,-2.3708,-2.4012,-2.4332,-2.4569,-2.4771,-2.4757,-2.4196,-2.3374,-2.2496,-2.1544,-2.1061,-2.0883,-2.1174,-2.1559,-2.1944,-2.2362,-2.2465,-2.2525,-2.2594,-2.2594,-2.2594,-2.2594,-2.2594,-2.2594,-2.2594,-2.2384,-2.2232,-2.2232,-2.114,-2.0518,-2.0518,-1.9583,-1.8912,-1.8441,-1.7818,-1.777,-1.8133,-1.828,-1.868,-1.9264,-1.9247,-1.8776,-1.8085,-1.8025,-1.8,-1.8,-1.8,-1.8,-1.8,-1.8,-1.8,-1.8,-1.8,-1.8,-1.8,-1.8,-1.8,-1.8,-1.8,-1.8,-1.8,-1.8,-1.8,-1.8,-1.8,-1.8,-1.8,-1.8,-1.8,-1.8,-1.8,-1.8,-1.8,-1.8,-1.8,-1.8,-1.8,-1.8,-1.8,-1.8,-1.8,-1.8,-1.8,-1.8,-1.8,-1.8,-1.8,-1.8,-1.8,-1.8,-1.8,-1.8,-1.8,-1.791,-1.7781,-1.7074,-1.7074,-1.7861,-1.7659,-1.7538,-1.7538,-1.7708,-1.7789,-1.7781,-1.8152,-1.8313,-2.8052,-2.7527,-2.6224,-2.4258,-2.377,-2.3708,-2.3346,-2.3328,-2.3701,-2.4848,-2.4392,-2.3723,-2.3626,-2.2508,-2.1589,-2.141,-2.0825,-2.0386,-2.0429,-2.078,-2.1156,-2.1516,-2.1859,-2.2201,-2.2568,-2.2594,-2.2594,-2.2594,-2.2594,-2.2594,-2.2594,-2.1438,-2.0759,-2.0759,-1.9672,-1.9102,-1.9102,-1.8954,-1.8271,-1.7043,-1.5319,-1.4869,-1.5507,-1.6231,-1.7666,-1.9606,-1.9316,-1.8922,-1.8485,-1.8128,-1.8,-1.8,-1.8,-1.8,-1.8,-1.8,-1.8,-1.8,-1.8,-1.8,-1.8,-1.8,-1.8,-1.8,-1.8,-1.8,-1.8,-1.8,-1.8,-1.8,-1.8,-1.8,-1.8,-1.8,-1.8,-1.8,-1.8,-1.8,-1.8,-1.8,-1.8,-1.8,-1.8,-1.8,-1.8,-1.8,-1.8,-1.8,-1.8,-1.8,-1.8,-1.8,-1.8,-1.8,-1.8,-1.8,-1.8,-1.8,-1.8,-1.7659,-1.6903,-1.6739,-1.6412,-1.5801,-1.5767,-1.5767,-1.5767,-1.6501,-1.6862,-1.6903,-1.7659,-1.8031,-2.6281,-2.5754,-2.4759,-2.4047,-2.3477,-2.3039,-2.2841,-2.3194,-2.367,-2.4022,-2.3566,-2.3146,-2.3266,-2.2449,-2.1518,-2.0906,-2.07,-2.0617,-2.0617,-2.1131,-2.1567,-2.1722,-2.2073,-2.2414,-2.2577,-2.2594,-2.2443,-2.2131,-2.208,-2.1768,-2.0979,-2.0357,-1.9775,-1.9347,-1.821,-1.764,-1.764,-1.6969,-1.6227,-1.5393,-1.4082,-1.4019,-1.4997,-1.5229,-1.6511,-1.8665,-1.8709,-1.8684,-1.8554,-1.8186,-1.8,-1.8,-1.8,-1.8,-1.8,-1.8,-1.8,-1.8,-1.8,-1.8,-1.8,-1.8,-1.8,-1.8,-1.8,-1.8,-1.8,-1.8,-1.8,-1.8,-1.8,-1.8,-1.8,-1.8,-1.8,-1.8,-1.8,-1.8,-1.8,-1.8,-1.8,-1.8,-1.8,-1.8,-1.8,-1.8,-1.8,-1.8,-1.8,-1.8,-1.8,-1.8,-1.8,-1.8,-1.8,-1.8,-1.8,-1.8,-1.7538,-1.7115,-1.6739,-1.5745,-1.4998,-1.4636,-1.5144,-1.5394,-1.5394,-1.5801,-1.6206,-1.6698,-1.7074,-1.7286,-2.44,-2.4078,-2.3629,-2.3494,-2.3067,-2.2619,-2.253,-2.2946,-2.3318,-2.3215,-2.2653,-2.2308,-2.2555,-2.2104,-2.1346,-2.0454,-2.054,-2.0737,-2.0737,-2.1293,-2.1713,-2.1713,-2.2173,-2.2407,-2.2248,-2.2333,-2.2139,-2.1522,-2.1623,-2.1097,-1.9679,-1.9413,-1.8835,-1.7882,-1.6745,-1.6174,-1.6174,-1.5217,-1.4496,-1.4072,-1.338,-1.3528,-1.4424,-1.4418,-1.5383,-1.6992,-1.7489,-1.7768,-1.7792,-1.7343,-1.7164,-1.7164,-1.7164,-1.7286,-1.7416,-1.7416,-1.7538,-1.7676,-1.7797,-1.7838,-1.7878,-1.7959,-1.8,-1.8,-1.8,-1.8,-1.8,-1.8,-1.8,-1.8,-1.8,-1.8,-1.8,-1.8,-1.8,-1.8,-1.8,-1.8,-1.8,-1.8,-1.8,-1.8,-1.8,-1.8,-1.7959,-1.7878,-1.7838,-1.7789,-1.7668,-1.7668,-1.7668,-1.7668,-1.7797,-1.7838,-1.7838,-1.7959,-1.8,-1.8,-1.7115,-1.6527,-1.6281,-1.4706,-1.3789,-1.3584,-1.43,-1.4678,-1.472,-1.4929,-1.5511,-1.637,-1.6617,-1.6657,-2.3042,-2.3381,-2.385,-2.2612,-2.2671,-2.296,-2.2569,-2.219,-2.2159,-2.3008,-2.1827,-2.0746,-2.1191,-2.0992,-2.0668,-2.0367,-2.0309,-2.0317,-2.0317,-2.0677,-2.0942,-2.0942,-2.1576,-2.1816,-2.1304,-2.1569,-2.1522,-2.0968,-2.142,-2.1097,-1.9679,-1.8887,-1.7837,-1.6474,-1.528,-1.4708,-1.4708,-1.4192,-1.3793,-1.3521,-1.304,-1.2861,-1.2953,-1.3619,-1.422,-1.4785,-1.5468,-1.5742,-1.5722,-1.512,-1.4866,-1.4866,-1.4866,-1.524,-1.582,-1.582,-1.6214,-1.6812,-1.727,-1.7432,-1.7473,-1.7878,-1.8,-1.8,-1.8,-1.8,-1.8,-1.8,-1.8,-1.8,-1.8,-1.8,-1.8,-1.8,-1.8,-1.8,-1.8,-1.8,-1.8,-1.8,-1.8,-1.8,-1.8,-1.8,-1.7878,-1.7473,-1.7432,-1.727,-1.6812,-1.6779,-1.6779,-1.6779,-1.7188,-1.7432,-1.7432,-1.7797,-1.8,-1.8,-1.6984,-1.6034,-1.5123,-1.4035,-1.3118,-1.2491,-1.2534,-1.2662,-1.2833,-1.3669,-1.4545,-1.5477,-1.6329,-1.6609,-2.3714,-2.322,-2.2884,-2.3096,-2.2724,-2.2314,-2.2391,-2.2342,-2.2136,-2.1815,-2.1432,-2.0949,-2.0245,-1.9909,-1.9791,-1.9917,-1.9896,-2.0026,-2.0257,-2.0634,-2.0968,-2.1191,-2.1371,-2.1528,-2.1502,-2.1296,-2.0968,-2.0447,-2.0542,-1.9805,-1.7818,-1.745,-1.6605,-1.4976,-1.4557,-1.4347,-1.4347,-1.4015,-1.3719,-1.3475,-1.3141,-1.2904,-1.2813,-1.305,-1.3286,-1.3445,-1.339,-1.4193,-1.5529,-1.4958,-1.4699,-1.4699,-1.4699,-1.5115,-1.5696,-1.5696,-1.6131,-1.673,-1.6902,-1.6943,-1.6984,-1.7098,-1.7392,-1.7595,-1.7595,-1.7797,-1.8,-1.8,-1.8,-1.8,-1.8,-1.8,-1.8,-1.8,-1.8,-1.8,-1.8,-1.7797,-1.7595,-1.7595,-1.7595,-1.7514,-1.7221,-1.7432,-1.7473,-1.7025,-1.6943,-1.6902,-1.673,-1.6689,-1.6689,-1.6689,-1.6861,-1.6943,-1.6943,-1.6706,-1.6829,-1.7554,-1.5662,-1.4615,-1.4998,-1.3372,-1.2369,-1.2166,-1.2118,-1.2326,-1.2705,-1.2997,-1.3922,-1.5394,-1.4963,-1.5039,-2.3641,-2.2813,-2.2121,-2.2797,-2.2438,-2.1945,-2.1945,-2.2123,-2.2025,-2.1081,-2.0928,-2.0639,-1.9534,-1.902,-1.8956,-1.947,-1.9512,-1.9684,-2.0052,-2.03,-2.053,-2.0767,-2.0798,-2.0744,-2.0676,-2.0445,-2.0101,-1.9706,-1.9808,-1.897,-1.6829,-1.6882,-1.614,-1.4245,-1.4196,-1.4196,-1.4196,-1.3943,-1.3744,-1.3588,-1.326,-1.3023,-1.2921,-1.2845,-1.2813,-1.2786,-1.2305,-1.299,-1.4372,-1.3804,-1.3571,-1.3571,-1.3571,-1.3993,-1.4573,-1.4573,-1.5005,-1.565,-1.6023,-1.6147,-1.6229,-1.6566,-1.6902,-1.7188,-1.7188,-1.7351,-1.7546,-1.7546,-1.7546,-1.7546,-1.7546,-1.7546,-1.7587,-1.7757,-1.7797,-1.7838,-1.7951,-1.7797,-1.7595,-1.7595,-1.7473,-1.731,-1.6984,-1.7066,-1.7025,-1.6574,-1.6492,-1.6451,-1.6286,-1.6245,-1.6245,-1.6245,-1.6409,-1.6409,-1.6188,-1.5876,-1.591,-1.6468,-1.4448,-1.3613,-1.428,-1.2662,-1.1828,-1.1914,-1.1914,-1.208,-1.2454,-1.2454,-1.3252,-1.472,-1.3957,-1.3866,0.0,0.0,0.0,-2.1539,-2.1828,-2.198,-2.1298,-2.1466,-2.1624,-2.1001,-2.0362,-1.9737,-1.9094,-1.8456,-1.8263,-1.9059,-1.9144,-1.929,-1.9631,-1.9622,-1.9621,-1.9637,-1.9795,-1.9564,-1.8732,-1.8936,-1.9011,-1.8803,-1.9265,-1.8731,-1.6797,-1.7114,-1.6433,-1.4245,-1.4196,-1.4196,-1.4196,-1.3954,-1.383,-1.3814,-1.334,-1.3109,-1.3093,-1.2867,-1.2813,-1.2786,-1.2305,-1.2094,-1.2056,-1.1498,-1.1305,-1.1305,-1.1305,-1.1731,-1.2406,-1.2406,-1.2833,-1.3561,-1.4685,-1.5054,-1.5262,-1.627,-1.6648,-1.6697,-1.6697,-1.6689,-1.6689,-1.6689,-1.6689,-1.6689,-1.6689,-1.6689,-1.6812,-1.727,-1.7392,-1.7473,-1.7878,-1.7959,-1.7959,-1.7959,-1.7635,-1.7351,-1.7351,-1.6984,-1.6533,-1.6128,-1.6087,-1.5922,-1.5472,-1.5389,-1.5389,-1.5389,-1.5805,-1.5831,-1.5137,-1.5421,-1.5365,-1.4699,-1.3607,-1.2972,-1.3014,-1.1892,-1.144,-1.1699,-1.1699,-1.1785,-1.2,-1.2,-1.2497,-1.3408,-1.3408,-1.3233,-2.2736,0.0,0.0,0.0,0.0,0.0,-2.1506,-2.1392,-2.1114,-2.0504,-2.023,-1.9774,-1.8677,-1.8335,-1.8219,-1.8312,-1.8571,-1.8888,-1.9273,-1.9332,-1.9499,-2.0042,-1.9828,-1.9751,-2.0022,-1.9764,-1.9427,-1.8969,-1.8572,-1.7696,-1.6209,-1.5319,-1.4629,-1.4186,-1.4196,-1.4196,-1.4196,-1.4126,-1.3997,-1.382,-1.3518,-1.3281,-1.3093,-1.2867,-1.2813,-1.2786,-1.2305,-1.2094,-1.2056,-1.1498,-1.1305,-1.1305,-1.1305,-1.1731,-1.2406,-1.2406,-1.2833,-1.3434,-1.3766,-1.4188,-1.4643,-1.4936,-1.5567,-1.6252,-1.6252,-1.6451,-1.6689,-1.6689,-1.6689,-1.6689,-1.6689,-1.6689,-1.6738,-1.6861,-1.6902,-1.6935,-1.7025,-1.7057,-1.7057,-1.7057,-1.6984,-1.6697,-1.6046,-1.6128,-1.6128,-1.568,-1.5597,-1.5555,-1.5431,-1.5389,-1.5389,-1.5389,-1.5514,-1.5333,-1.4643,-1.4265,-1.409,-1.421,-1.265,-1.2143,-1.2972,-1.1892,-1.1348,-1.1397,-1.1397,-1.1435,-1.1478,-1.1828,-1.2497,-1.3408,-1.319,-1.2644,-2.3001,-2.1882,-2.0979,-2.103,0.0,0.0,-2.1111,-2.1126,-2.0981,-2.0601,-2.0331,-1.9902,-1.885,-1.8667,-1.8625,-1.8508,-1.8865,-1.9085,-1.8955,-1.8769,-1.8853,-1.9434,-1.9064,-1.883,-1.9102,-1.8942,-1.8704,-1.8315,-1.7714,-1.6801,-1.5462,-1.4355,-1.3884,-1.4035,-1.4137,-1.4196,-1.4196,-1.4196,-1.4121,-1.397,-1.3733,-1.3545,-1.3389,-1.3055,-1.2904,-1.2872,-1.2343,-1.2094,-1.2056,-1.1498,-1.1305,-1.1305,-1.1305,-1.1559,-1.194,-1.194,-1.2198,-1.2625,-1.3185,-1.3646,-1.4062,-1.4657,-1.5249,-1.5805,-1.5805,-1.5963,-1.6162,-1.6162,-1.6162,-1.6162,-1.6162,-1.6162,-1.6203,-1.6409,-1.6451,-1.6492,-1.6656,-1.6689,-1.6689,-1.6689,-1.6574,-1.6286,-1.5797,-1.5763,-1.5714,-1.5431,-1.5389,-1.5389,-1.5389,-1.5389,-1.5389,-1.5389,-1.5389,-1.5006,-1.4062,-1.3603,-1.3264,-1.2912,-1.1897,-1.1602,-1.2266,-1.1639,-1.1305,-1.1305,-1.1305,-1.1305,-1.1305,-1.1564,-1.1989,-1.2528,-1.2351,-1.1935,-2.3317,-2.197,-2.0769,-2.0682,-2.0653,0.0,-2.0407,-2.0652,-2.0875,-2.0777,-2.0404,-1.9893,-1.9278,-1.9099,-1.9071,-1.9118,-1.9419,-1.945,-1.8821,-1.8329,-1.8137,-1.8478,-1.8062,-1.7573,-1.7218,-1.7391,-1.747,-1.7345,-1.6805,-1.5934,-1.4607,-1.4029,-1.3766,-1.382,-1.4035,-1.4164,-1.4196,-1.4196,-1.4196,-1.4191,-1.3943,-1.382,-1.3803,-1.3351,-1.3147,-1.3109,-1.2472,-1.2175,-1.2137,-1.1623,-1.1354,-1.1305,-1.1305,-1.1305,-1.1305,-1.1305,-1.1327,-1.1516,-1.2759,-1.3266,-1.3521,-1.4797,-1.5244,-1.5298,-1.5389,-1.5389,-1.5389,-1.5389,-1.5389,-1.5389,-1.5389,-1.5389,-1.5514,-1.5922,-1.6004,-1.6128,-1.6492,-1.6574,-1.6574,-1.6574,-1.6327,-1.6087,-1.6046,-1.568,-1.5389,-1.5389,-1.5389,-1.5389,-1.5389,-1.5389,-1.5389,-1.5389,-1.534,-1.479,-1.3519,-1.3307,-1.2711,-1.1392,-1.1305,-1.1305,-1.1305,-1.1305,-1.1305,-1.1305,-1.1332,-1.1343,-1.1343,-1.1343,-1.1343,-1.1348,-1.137,-1.1386,-2.3491,-2.2036,-2.0729,-2.0456,0.0,0.0,-2.0248,-1.9922,-1.9702,0.0,-1.964,-1.9239,-1.8925,-1.8519,-1.8345,-1.8656,-1.8387,-1.8483,-1.9481,-1.9132,-1.8931,-1.9253,-1.8431,-1.7965,-1.8181,-1.7973,-1.776,-1.7561,-1.6202,-1.4819,-1.3502,-1.3317,-1.3421,-1.3809,-1.3868,-1.3992,-1.4191,-1.4196,-1.4196,-1.4191,-1.3943,-1.382,-1.3809,-1.3534,-1.3405,-1.3373,-1.2899,-1.2672,-1.2635,-1.2154,-1.1693,-1.1305,-1.1305,-1.1305,-1.1305,-1.1305,-1.1429,-1.1673,-1.1938,-1.2367,-1.2969,-1.3759,-1.4298,-1.4699,-1.5257,-1.5389,-1.5389,-1.5389,-1.5389,-1.5389,-1.5389,-1.5389,-1.5431,-1.5514,-1.5555,-1.5555,-1.5631,-1.5631,-1.5631,-1.5631,-1.588,-1.5963,-1.559,-1.5472,-1.5389,-1.5389,-1.5389,-1.5389,-1.5389,-1.5389,-1.5389,-1.5389,-1.4908,-1.4279,-1.3476,-1.2924,-1.224,-1.1348,-1.1305,-1.1305,-1.1305,-1.1305,-1.1305,-1.1305,-1.1493,-1.1634,-1.1634,-1.1634,-1.1634,-1.1634,-1.1822,-1.1954,-2.3953,-2.2617,-2.1461,-2.0852,0.0,0.0,0.0,-1.9602,-1.9424,-1.944,-1.945,-1.9411,-1.9302,-1.9223,-1.9265,-1.9456,-1.9258,-1.9284,-2.0058,-1.9554,-1.9263,-1.9651,-1.9205,-1.8766,-1.8446,-1.8204,-1.7664,-1.6708,-1.6019,-1.5013,-1.3601,-1.3627,-1.3613,-1.3453,-1.3583,-1.3766,-1.4003,-1.4008,-1.4073,-1.4191,-1.4067,-1.4008,-1.3997,-1.376,-1.3588,-1.3453,-1.3024,-1.2694,-1.256,-1.2245,-1.1954,-1.1688,-1.1569,-1.1482,-1.1482,-1.1482,-1.1596,-1.1759,-1.2238,-1.2545,-1.2827,-1.3486,-1.4038,-1.4398,-1.4405,-1.4622,-1.4957,-1.5305,-1.5389,-1.5389,-1.5389,-1.5389,-1.5389,-1.5389,-1.5389,-1.5389,-1.5389,-1.5389,-1.5389,-1.5389,-1.5597,-1.568,-1.5431,-1.5389,-1.5389,-1.5389,-1.5389,-1.5389,-1.5389,-1.5389,-1.5389,-1.5389,-1.4783,-1.4146,-1.3483,-1.279,-1.2112,-1.1348,-1.1305,-1.1305,-1.1305,-1.1305,-1.1364,-1.1477,-1.1639,-1.1758,-1.1921,-1.1995,-1.1995,-1.1921,-1.204,-1.2094,0.0,0.0,0.0,0.0,0.0,-2.1007,0.0,0.0,0.0,0.0,0.0,0.0,0.0,0.0,0.0,-2.0013,0.0,0.0,0.0,-1.9504,0.0,-1.9735,-1.9694,-1.9273,-1.8382,-1.8233,-1.7497,-1.5875,-1.6032,-1.5568,-1.419,-1.4199,-1.3941,-1.3347,-1.3404,-1.354,-1.382,-1.382,-1.3943,-1.4196,-1.4196,-1.4196,-1.4186,-1.3986,-1.3766,-1.3523,-1.3137,-1.2764,-1.2527,-1.2332,-1.2229,-1.2202,-1.1921,-1.1768,-1.1768,-1.1768,-1.1795,-1.1956,-1.2694,-1.2818,-1.2676,-1.339,-1.3868,-1.4146,-1.373,-1.3977,-1.4524,-1.5215,-1.5389,-1.5389,-1.5389,-1.5389,-1.5389,-1.5389,-1.5389,-1.5389,-1.5389,-1.5389,-1.5389,-1.5389,-1.5389,-1.5389,-1.5389,-1.5389,-1.5389,-1.5389,-1.5389,-1.5389,-1.5389,-1.5389,-1.5389,-1.5389,-1.4699,-1.3977,-1.3434,-1.2668,-1.194,-1.1354,-1.1305,-1.1305,-1.1305,-1.1354,-1.1482,-1.1763,-1.1817,-1.193,-1.2164,-1.2361,-1.2355,-1.2164,-1.2213,-1.2229,0.0,0.0,0.0,0.0,-2.1911,0.0,0.0,0.0,-1.8901,-1.869,0.0,0.0,0.0,0.0,0.0,0.0,0.0,0.0,-1.857,0.0,0.0,-1.9246,-1.8967,-1.8647,-1.8309,-1.8136,-1.7439,-1.5983,-1.6093,-1.5859,-1.5003,-1.4316,-1.4006,-1.4179,-1.3474,-1.3362,-1.3814,-1.382,-1.3943,-1.4196,-1.4196,-1.4196,-1.4196,-1.4164,-1.4013,-1.3766,-1.3507,-1.326,-1.3007,-1.2775,-1.2732,-1.2683,-1.2229,-1.2051,-1.2051,-1.2051,-1.2191,-1.2339,-1.2455,-1.2349,-1.2279,-1.2961,-1.3341,-1.3603,-1.4146,-1.4349,-1.4524,-1.5215,-1.5389,-1.5389,-1.5389,-1.5389,-1.5389,-1.5389,-1.5389,-1.5389,-1.5389,-1.5389,-1.5389,-1.5389,-1.5389,-1.5389,-1.5389,-1.5389,-1.5389,-1.5389,-1.5389,-1.5389,-1.5389,-1.5389,-1.5389,-1.5389,-1.4286,-1.3476,-1.3398,-1.2203,-1.1392,-1.1311,-1.1305,-1.1305,-1.1305,-1.1548,-1.1768,-1.2051,-1.2221,-1.2344,-1.2371,-1.2608,-1.2603,-1.2377,-1.2635,-1.2732,0.0,0.0,0.0,0.0,0.0,0.0,-2.1251,0.0,-1.9403,0.0,0.0,0.0,0.0,0.0,0.0,0.0,-1.8291,0.0,0.0,0.0,0.0,0.0,0.0,0.0,-1.8942,-1.8571,-1.8116,-1.7575,-1.697,-1.6339,-1.5758,-1.4845,-1.4225,-1.4054,-1.334,-1.3066,-1.34,-1.3405,-1.3599,-1.3976,-1.3976,-1.4051,-1.4186,-1.4046,-1.3846,-1.361,-1.3057,-1.267,-1.2451,-1.2016,-1.1878,-1.1863,-1.1624,-1.1858,-1.2258,-1.2258,-1.2328,-1.2436,-1.2571,-1.2457,-1.2349,-1.2739,-1.2575,-1.2369,-1.3476,-1.3555,-1.3379,-1.4068,-1.4243,-1.4243,-1.4243,-1.4531,-1.4699,-1.4328,-1.4838,-1.5298,-1.4915,-1.5124,-1.5389,-1.5389,-1.5389,-1.5389,-1.5389,-1.5389,-1.5389,-1.5389,-1.5389,-1.5389,-1.5389,-1.5389,-1.5257,-1.4866,-1.3984,-1.3222,-1.2833,-1.1903,-1.1364,-1.1504,-1.1677,-1.1752,-1.1752,-1.1849,-1.2062,-1.2258,-1.2361,-1.2484,-1.2619,-1.242,-1.2275,-1.2181,-1.2619,-1.2813,-2.8326,0.0,0.0,0.0,0.0,0.0,0.0,0.0,0.0,0.0,0.0,0.0,0.0,0.0,0.0,0.0,0.0,-1.7864,0.0,0.0,0.0,0.0,0.0,0.0,0.0,-1.8616,-1.839,-1.8137,-1.7371,-1.6769,-1.6388,-1.5438,-1.4767,-1.4409,-1.3536,-1.3209,-1.3447,-1.3203,-1.3346,-1.382,-1.382,-1.3916,-1.4083,-1.3906,-1.3554,-1.3158,-1.2576,-1.2078,-1.1731,-1.134,-1.1194,-1.1194,-1.1194,-1.154,-1.2077,-1.2077,-1.2077,-1.2103,-1.2313,-1.2272,-1.2193,-1.2378,-1.197,-1.1603,-1.2778,-1.279,-1.2534,-1.3222,-1.3398,-1.3398,-1.3398,-1.3773,-1.4019,-1.3519,-1.4159,-1.479,-1.4482,-1.4783,-1.5173,-1.5347,-1.5257,-1.5166,-1.5389,-1.5389,-1.5389,-1.5389,-1.5389,-1.534,-1.5131,-1.5124,-1.4957,-1.444,-1.3639,-1.3009,-1.2705,-1.1879,-1.146,-1.16,-1.1906,-1.2075,-1.196,-1.196,-1.2072,-1.2268,-1.2125,-1.216,-1.237,-1.198,-1.178,-1.178,-1.2175,-1.237,0.0,0.0,0.0,-2.6293,0.0,0.0,0.0,0.0,-2.1916,0.0,0.0,0.0,0.0,0.0,0.0,-1.7995,0.0,0.0,0.0,0.0,0.0,0.0,0.0,0.0,0.0,0.0,-1.7726,0.0,-1.6818,-1.6903,-1.6872,-1.6113,-1.5647,-1.5654,-1.4479,-1.3977,-1.4283,-1.3496,-1.3346,-1.382,-1.382,-1.382,-1.383,-1.382,-1.3251,-1.2359,-1.2304,-1.188,-1.1243,-1.1194,-1.1194,-1.1194,-1.1194,-1.1243,-1.1233,-1.1233,-1.1233,-1.1233,-1.1243,-1.14,-1.1623,-1.1719,-1.1693,-1.1772,-1.2267,-1.2406,-1.2534,-1.3222,-1.3398,-1.3398,-1.3398,-1.3434,-1.344,-1.3398,-1.344,-1.3646,-1.4265,-1.4433,-1.4608,-1.5257,-1.4873,-1.4657,-1.5298,-1.5389,-1.5389,-1.5389,-1.5389,-1.5173,-1.4524,-1.444,-1.4433,-1.4398,-1.3209,-1.2705,-1.3307,-1.2342,-1.156,-1.1329,-1.1814,-1.1966,-1.1632,-1.1642,-1.1743,-1.2014,-1.1477,-1.1238,-1.1243,-1.1243,-1.1243,-1.1243,-1.1243,-1.1243,-2.8436,-2.756,-2.6785,-2.7403,-2.6777,-2.5916,0.0,0.0,0.0,0.0,0.0,0.0,0.0,0.0,-1.8092,0.0,0.0,0.0,0.0,0.0,0.0,0.0,0.0,0.0,0.0,0.0,0.0,0.0,0.0,0.0,-1.6565,-1.5805,-1.5481,-1.5679,-1.5046,-1.476,-1.4854,-1.4031,-1.3813,-1.4094,-1.3594,-1.3227,-1.3065,-1.2905,-1.244,-1.1738,-1.1255,-1.0915,-1.0659,-1.0314,-1.0117,-1.0117,-1.0117,-1.0117,-1.0216,-1.0953,-1.1194,-1.1194,-1.1194,-1.1158,-1.1081,-1.0976,-1.0829,-1.0716,-1.0799,-1.0814,-1.0857,-1.1073,-1.1327,-1.1542,-1.1542,-1.2143,-1.2625,-1.2118,-1.2717,-1.3349,-1.3124,-1.3428,-1.3815,-1.4033,-1.3899,-1.3815,-1.4026,-1.4075,-1.4237,-1.4657,-1.4363,-1.3984,-1.3773,-1.373,-1.3561,-1.3124,-1.2812,-1.2528,-1.2277,-1.1895,-1.1595,-1.1484,-1.1482,-1.1447,-1.1332,-1.1337,-1.1366,-1.1487,-1.1292,-1.1194,-1.1194,-1.085,-1.0654,-1.0654,-1.0314,-1.0511,-2.8492,-2.7934,-2.7439,-2.7907,-2.7292,-2.6445,-2.6006,0.0,-2.4117,0.0,0.0,0.0,0.0,0.0,0.0,0.0,0.0,0.0,0.0,0.0,0.0,0.0,0.0,0.0,0.0,0.0,0.0,0.0,0.0,0.0,0.0,-1.586,-1.5735,-1.5938,-1.5544,-1.5375,-1.548,-1.443,-1.3934,-1.403,-1.3198,-1.2632,-1.2266,-1.2067,-1.1654,-1.1084,-1.0614,-1.0314,-1.0068,-0.9723,-0.9579,-0.9579,-0.9579,-0.9579,-0.9677,-1.0364,-1.0605,-1.0659,-1.0855,-1.0817,-1.0665,-1.0618,-1.0485,-1.0279,-1.008,-0.9994,-1.0009,-1.0045,-1.0226,-1.0396,-1.0431,-1.1001,-1.1419,-1.0954,-1.1634,-1.2357,-1.2192,-1.2491,-1.2875,-1.3082,-1.2826,-1.2619,-1.2869,-1.2528,-1.2613,-1.3851,-1.3688,-1.3307,-1.3094,-1.3052,-1.2918,-1.253,-1.2426,-1.2154,-1.1708,-1.1625,-1.1492,-1.1183,-1.1171,-1.1096,-1.09,-1.09,-1.0936,-1.101,-1.0744,-1.069,-1.0758,-1.0295,-1.0117,-1.0117,-0.9776,-0.9969]},{"header":{"parameterUnit":"m.s-1","parameterCategory":1,"la1":30.6,"la2":29.2853,"lo1":-89.7004,"lo2":-87.6739,"dx":0.0162,"dy":0.0183,"nx":112,"ny":82,"refTime":"2022-12-03T06:00:00:Z","depth":0,"parameterNumber":3,"parameterNumberName":"V-component_of_WINDS"},"data":[0.0,0.0,0.0,0.0,0.0,0.0,0.0,0.0,0.0,0.0,0.0,0.0,0.0,0.0,0.0,0.0,0.0,0.0,0.0,0.0,0.0,0.0,0.0,0.0,0.0,0.0,0.0,0.0,0.0,0.0,0.0,0.0,0.0,0.0,0.0,0.0,0.0,0.0,0.0,0.0,0.0,0.0,0.0,0.0,0.0,0.0,0.0,0.0,0.0,0.0,0.0,0.0,0.0,0.0,0.0,0.0,0.0,0.0,0.0,0.0,0.0,0.0,0.0,0.0,0.0,0.0,0.0,0.0,0.0,0.0,0.0,0.0,0.0,0.0,0.0,0.0,0.0,0.0,0.0,0.0,0.0,0.0,0.0,0.0,0.0,0.0,0.0,0.0,0.0,0.0,-0.2096,-0.1566,-0.2726,-0.3972,-0.4956,-0.6293,-0.7613,-0.8969,0.0,0.0,0.0,0.0,0.0,0.0,0.0,0.0,0.0,0.0,0.0,0.0,0.0,0.0,0.0,0.0,0.0,0.0,0.0,0.0,0.0,0.0,0.0,0.0,0.0,0.0,0.0,0.0,0.0,0.0,0.0,0.0,0.0,0.0,0.0,0.0,0.0,0.0,0.0,0.0,0.0,0.0,0.0,0.0,0.0,0.0,0.0,0.0,0.0,0.0,0.0,0.0,0.0,0.0,0.0,0.0,0.0,0.0,0.0,0.0,0.0,0.0,0.0,0.0,0.0,0.0,0.0,0.0,0.0,0.0,0.0,0.0,0.0,0.0,0.0,0.0,0.0,0.0,0.0,0.0,0.0,0.0,0.0,0.0,0.0,0.0,0.0,0.0,0.0,0.0,0.0,0.0,0.0,0.0,0.0,0.0,0.0,0.0,0.0,0.0,0.0,0.0,0.0,0.0,-0.2369,-0.0493,-0.2059,-0.3352,-0.353,-0.5583,-0.7397,-0.875,0.0,0.0,0.0,0.0,0.0,0.0,0.0,0.0,0.0,0.0,0.0,0.0,0.0,0.0,0.0,0.0,0.0,0.0,0.0,0.0,0.0,0.0,0.0,0.0,0.0,0.0,0.0,0.0,0.0,0.0,0.0,0.0,0.0,0.0,0.0,0.0,0.0,0.0,0.0,0.0,0.0,0.0,0.0,0.0,0.0,0.0,0.0,0.0,0.0,0.0,0.0,0.0,0.0,0.0,0.0,0.0,0.0,0.0,0.0,0.0,0.0,0.0,0.0,0.0,0.0,0.0,0.0,0.0,0.0,0.0,0.0,0.0,0.0,0.0,0.0,0.0,0.0,0.0,0.0,0.0,0.0,0.0,0.0,0.0,0.0,0.0,0.0,0.0,0.0,0.0,0.0,0.0,0.0,0.0,0.0,0.0,0.0,0.0,0.0,0.0,0.0,0.0,0.0,-0.2827,-0.186,-0.0179,-0.1926,-0.3218,-0.3218,-0.5406,-0.7353,-0.8709,-0.8477,0.0,0.0,0.0,0.0,0.0,0.0,0.0,0.0,0.0,0.0,0.0,0.0,0.0,0.0,0.0,0.0,0.0,0.0,0.0,0.0,0.0,0.0,0.0,0.0,0.0,0.0,0.0,0.0,0.0,0.0,0.0,0.0,0.0,0.0,0.0,0.0,0.0,0.0,0.0,0.0,0.0,0.0,0.0,0.0,0.0,0.0,0.0,0.0,0.0,0.0,0.0,0.0,0.0,0.0,0.0,0.0,0.0,0.0,0.0,0.0,0.0,0.0,0.0,0.0,0.0,0.0,0.0,0.0,0.0,0.0,0.0,0.0,0.0,0.0,0.0,0.0,0.0,0.0,0.0,0.0,0.0,0.0,0.0,0.0,0.0,0.0,0.0,0.0,0.0,0.0,0.0,0.0,0.0,0.0,0.0,0.0,0.0,0.0,0.0,0.0,0.0,0.0,-0.1718,-0.1031,-0.009,-0.1881,-0.313,-0.313,-0.5387,-0.7309,-0.8632,-0.8483,0.0,0.0,0.0,0.0,0.0,0.0,0.0,0.0,0.0,0.0,0.0,0.0,0.0,0.0,0.0,0.0,0.0,0.0,0.0,0.0,0.0,0.0,0.0,0.0,0.0,0.0,0.0,0.0,0.0,0.0,0.0,0.0,0.0,0.0,0.0,0.0,0.0,0.0,0.0,0.0,0.0,0.0,0.0,0.0,0.0,0.0,0.0,0.0,0.0,0.0,0.0,0.0,0.0,0.0,0.0,0.0,0.0,0.0,0.0,0.0,0.0,0.0,0.0,0.0,0.0,0.0,0.0,0.0,0.0,0.0,0.0,0.0,0.0,0.0,0.0,0.0,0.0,0.0,0.0,0.0,0.0,0.0,0.0,0.0,0.0,0.0,0.0,0.0,0.0,0.0,0.0,0.0,0.0,0.0,0.0,0.0,0.0,0.0,0.0,0.0,0.0,0.0,-0.1311,-0.009,0.0,-0.1749,-0.2911,-0.2911,-0.5232,-0.72,-0.8353,-0.8538,0.0,0.0,0.0,0.0,0.0,0.0,0.0,0.0,0.0,0.0,0.0,0.0,0.0,0.0,0.0,0.0,0.0,0.0,0.0,0.0,0.0,0.0,0.0,0.0,0.0,0.0,0.0,0.0,0.0,0.0,0.0,0.0,0.0,0.0,0.0,0.0,0.0,0.0,0.0,0.0,0.0,0.0,0.0,0.0,0.0,0.0,0.0,0.0,0.0,0.0,0.0,0.0,0.0,0.0,0.0,0.0,0.0,0.0,0.0,0.0,0.0,0.0,0.0,0.0,0.0,0.0,0.0,0.0,0.0,0.0,0.0,0.0,0.0,0.0,0.0,0.0,0.0,0.0,0.0,0.0,0.0,0.0,0.0,0.0,0.0,0.0,0.0,0.0,0.0,0.0,0.0,0.0,0.0,0.0,0.0,0.0,0.0,0.0,0.0,0.0,0.0,0.0,-0.1961,-0.0852,-0.009,-0.1166,-0.2241,-0.2867,-0.4459,-0.6314,-0.8263,0.0,0.0,0.0,0.0,0.0,0.0,0.0,0.0,0.0,0.0,0.0,0.0,0.0,0.0,0.0,0.0,0.0,0.0,0.0,0.0,0.0,0.0,0.0,0.0,0.0,0.0,0.0,0.0,0.0,0.0,0.0,0.0,0.0,0.0,0.0,0.0,0.0,0.0,0.0,0.0,0.0,0.0,0.0,0.0,0.0,0.0,0.0,0.0,0.0,0.0,0.0,0.0,0.0,0.0,0.0,0.0,0.0,0.0,0.0,0.0,0.0,0.0,0.0,0.0,0.0,0.0,0.0,0.0,0.0,0.0,0.0,0.0,0.0,0.0,0.0,0.0,0.0,0.0,0.0,0.0,0.0,0.0,0.0,0.0,0.0,0.0,0.0,0.0,0.0,0.0,0.0,0.0,0.0,0.0,0.0,0.0,0.0,0.0,0.0,0.0,0.0,0.0,-0.2847,-0.1831,-0.0897,-0.009,-0.0853,-0.1793,-0.2823,-0.4051,-0.5692,-0.7892,0.0,0.0,0.0,0.0,0.0,0.0,0.0,0.0,0.0,0.0,0.0,0.0,0.0,0.0,0.0,0.0,0.0,0.0,0.0,0.0,0.0,0.0,0.0,0.0,0.0,0.0,0.0,0.0,0.0,0.0,0.0,0.0,0.0,0.0,0.0,0.0,0.0,0.0,0.0,0.0,0.0,0.0,0.0,0.0,0.0,0.0,0.0,0.0,0.0,0.0,0.0,0.0,0.0,0.0,0.0,0.0,0.0,0.0,0.0,0.0,0.0,0.0,0.0,0.0,0.0,0.0,0.0,0.0,0.0,0.0,0.0,0.0,0.0,0.0,0.0,0.0,0.0,0.0,0.0,0.0,0.0,0.0,0.0,0.0,0.0,0.0,0.0,0.0,0.0,0.0,0.0,0.0,0.0,0.0,0.0,0.0,0.0,0.0,0.0,0.0,0.0,0.0,-0.2012,-0.0786,0.0,0.0,-0.0853,-0.1793,-0.2823,-0.4104,-0.556,0.0,0.0,0.0,0.0,0.0,0.0,0.0,0.0,0.0,0.0,0.0,0.0,0.0,0.0,0.0,0.0,0.0,0.0,0.0,0.0,0.0,0.0,0.0,0.0,0.0,0.0,0.0,0.0,0.0,0.0,0.0,0.0,0.0,0.0,0.0,0.0,0.0,0.0,0.0,0.0,0.0,0.0,0.0,0.0,0.0,0.0,0.0,0.0,0.0,0.0,0.0,0.0,0.0,0.0,0.0,0.0,0.0,0.0,0.0,0.0,0.0,0.0,0.0,0.0,0.0,0.0,0.0,0.0,0.0,0.0,0.0,0.0,0.0,0.0,0.0,0.0,0.0,0.0,0.0,0.0,0.0,0.0,0.0,0.0,0.0,0.0,0.0,0.0,0.0,0.0,0.0,0.0,0.0,0.0,0.0,0.0,0.0,0.0,0.0,0.0,0.0,0.0,0.0,-0.1802,-0.0699,0.0,0.0,-0.0853,-0.1793,-0.2823,-0.3873,-0.5256,-0.7078,0.0,0.0,0.0,0.0,0.0,0.0,0.0,0.0,0.0,0.0,0.0,0.0,0.0,0.0,0.0,0.0,0.0,0.0,0.0,0.0,0.0,0.0,0.0,0.0,0.0,0.0,0.0,0.0,0.0,0.0,0.0,0.0,0.0,0.0,0.0,0.0,0.0,0.0,0.0,0.0,0.0,0.0,0.0,0.0,0.0,0.0,0.0,0.0,0.0,0.0,0.0,0.0,0.0,0.0,0.0,0.0,0.0,0.0,0.0,0.0,0.0,0.0,0.0,0.0,0.0,0.0,0.0,0.0,0.0,0.0,0.0,0.0,0.0,0.0,0.0,0.0,0.0,0.0,0.0,0.0,0.0,0.0,0.0,0.0,0.0,0.0,0.0,0.0,0.0,0.0,0.0,0.0,0.0,0.0,0.0,0.0,0.0,0.0,0.0,0.0,0.0,0.0,-0.1722,-0.0655,0.0,0.0,-0.0494,-0.1256,-0.2196,-0.3181,-0.4391,-0.591,0.0,0.0,0.0,0.0,0.0,0.0,0.0,0.0,0.0,0.0,0.0,0.0,0.0,0.0,0.0,0.0,0.0,0.0,0.0,0.0,0.0,0.0,0.0,0.0,0.0,0.0,0.0,0.0,0.0,0.0,0.0,0.0,0.0,0.0,0.0,0.0,0.0,0.0,0.0,0.0,0.0,0.0,0.0,0.0,0.0,0.0,0.0,0.0,0.0,0.0,0.0,0.0,0.0,0.0,0.0,0.0,0.0,0.0,0.0,0.0,0.0,0.0,0.0,0.0,0.0,0.0,0.0,0.0,0.0,0.0,0.0,0.0,0.0,0.0,0.0,0.0,0.0,0.0,0.0,0.0,0.0,0.0,0.0,0.0,0.0,0.0,0.0,0.0,0.0,0.0,0.0,0.0,0.0,0.0,0.0,0.0,0.0,0.0,0.0,0.0,0.0,0.0,-0.1601,-0.0612,0.0,0.0,-0.009,-0.0494,-0.1346,-0.2331,-0.3255,-0.4164,0.0,0.0,0.0,0.0,0.0,0.0,0.0,0.0,0.0,0.0,0.0,0.0,0.0,0.0,0.0,0.0,0.0,0.0,0.0,0.0,0.0,0.0,0.0,0.0,0.0,0.0,0.0,0.0,0.0,0.0,0.0,0.0,0.0,0.0,0.0,0.0,0.0,0.0,0.0,0.0,0.0,0.0,0.0,0.0,0.0,0.0,0.0,0.0,0.0,0.0,0.0,0.0,0.0,0.0,0.0,0.0,0.0,0.0,0.0,0.0,0.2094,0.0582,0.0,0.0,0.0,0.0,0.0,0.0,0.0,0.0,0.0,0.0,0.0,0.0,0.0,0.0,0.0,0.0,0.0,0.0,0.0,0.0,0.0,0.0,0.0,0.0,0.0,0.0,0.0,0.0,0.0,0.0,0.0,0.0,0.0,0.0,0.0,0.0,0.0,0.0,0.0,0.0,-0.0591,-0.0131,0.0,0.0,-0.0673,-0.1166,-0.1391,-0.2331,-0.3255,-0.4164,-0.4631,0.0,0.0,0.0,0.0,0.0,0.0,0.0,0.0,0.0,0.0,0.0,0.0,0.0,0.0,0.0,0.0,0.0,0.0,0.0,0.0,0.0,0.0,0.0,0.0,0.0,0.0,0.0,0.0,0.0,0.0,0.0,0.0,0.0,0.0,0.0,0.0,0.0,0.0,0.0,0.0,0.0,0.0,0.0,0.0,0.0,0.0,0.0,0.0,0.0,0.0,0.0,0.0,0.0,0.0,0.0,0.0,0.0,0.0,0.0,0.383,0.2862,0.0,0.0,0.0,0.0,0.0,0.0,0.0,0.0,0.0,0.0,0.0,0.0,0.0,0.0,0.0,0.0,0.0,0.0,0.0,0.0,0.0,0.0,0.0,0.0,0.0,0.0,0.0,0.0,0.0,0.0,0.0,0.0,0.0,0.0,0.0,0.0,0.0,0.0,0.0,0.0,-0.076,-0.0262,0.0,0.0,-0.0449,-0.0718,-0.0718,-0.1614,-0.2343,-0.2777,-0.3365,0.0,0.0,0.0,0.0,0.0,0.0,0.0,0.0,0.0,0.0,0.0,0.0,0.0,0.0,0.0,0.0,0.0,0.0,0.0,0.0,0.0,0.0,0.0,0.0,0.0,0.0,0.0,0.0,0.0,0.0,0.0,0.0,0.0,0.0,0.0,0.0,0.0,0.0,0.0,0.0,0.0,0.0,0.0,0.0,0.0,0.0,0.0,0.0,0.0,0.0,0.0,0.0,0.0,0.5881,0.5999,0.5989,0.5989,0.6214,0.6512,0.5491,0.5195,0.534,0.37,0.0,0.0,0.0,0.0,0.0,0.0,0.0,0.0,0.0,0.0,0.0,0.0,0.0,0.0,0.0,0.0,0.0,0.0,0.0,0.0,0.0,0.0,0.0,-0.0777,-0.0258,0.0126,-0.0884,0.0,0.0,0.0,0.0,0.0,0.0,0.0,0.0,0.0,0.0,0.0,-0.1063,-0.0307,0.018,0.0,0.0,0.0,0.0,-0.0718,-0.12,-0.1305,-0.2289,-0.3173,0.0,0.0,0.0,0.0,0.0,0.0,0.0,0.0,0.0,0.0,0.0,0.0,0.0,0.0,0.0,0.0,0.0,0.0,0.0,0.0,0.0,0.0,0.0,0.0,0.0,0.0,0.0,0.0,0.0,0.0,0.0,0.0,0.9961,1.0103,0.0,0.0,0.0,0.0,0.0,0.0,0.0,0.0,0.0,0.0,0.0,0.0,0.0,0.7353,0.7425,0.8225,0.8649,0.8653,0.9504,0.9953,0.9957,0.9957,0.9424,0.8529,0.8368,0.0,0.5642,0.5391,0.0,0.0,0.0,0.0,0.0,0.0,0.0,0.0,0.0,0.0,0.0,0.0,0.0,0.0,0.0,0.0,0.0,0.0,0.0,0.0,0.0,0.0,0.3274,0.3158,0.2932,0.2688,0.2539,0.0042,-0.2157,-0.2144,-0.2519,-0.2777,0.0,0.0,0.0,0.0,0.0,0.0,-0.0174,0.0619,0.0898,0.009,0.0,0.0,0.0,-0.0135,-0.049,-0.1261,-0.145,-0.1959,-0.2922,-0.3029,0.0,0.0,0.0,0.0,0.0,0.0,0.0,0.0,0.0,0.0,0.0,0.0,0.0,0.0,0.0,0.0,0.0,0.0,0.0,0.0,0.0,0.0,0.0,0.0,0.0,0.0,0.0,0.0,0.0,1.1046,1.1114,1.1949,1.1186,1.0611,0.0,0.0,0.0,0.0,0.0,0.0,0.0,0.0,0.0,0.9862,0.98,0.9925,1.0274,1.0691,1.0885,1.089,1.1187,1.1334,1.1288,1.115,1.0733,1.0145,1.0145,0.9494,0.8355,0.6467,0.5156,0.4232,0.0,0.0,0.0,0.0,0.3033,0.3118,0.4241,0.3998,0.3298,0.3795,0.0,0.0,0.0,0.0,0.0,0.0,0.0,0.2558,0.3634,0.3909,0.3923,0.4101,0.3846,0.3614,0.3583,0.2144,0.0862,0.0716,0.0084,-0.0423,-0.0303,0.0044,0.0,0.0,0.0,0.1615,0.1613,0.1505,0.1256,0.0853,0.0314,0.0,0.0,0.0,-0.0179,-0.0532,-0.0558,-0.1004,-0.1903,-0.2077,-0.2553,0.0,0.0,0.0,0.0,0.0,0.0,0.0,0.0,0.0,0.0,0.0,0.0,0.0,0.0,0.0,0.0,0.0,0.0,0.0,0.0,0.0,0.0,0.0,0.0,0.0,0.0,0.0,0.0,1.2223,1.2162,1.3213,1.2516,1.1976,0.0,0.0,0.0,0.0,0.0,0.0,1.1596,1.1542,1.1833,1.2467,1.2277,1.245,1.2899,1.2676,1.2676,1.2802,1.2468,1.2331,1.2398,1.2215,1.1889,1.1518,1.1518,1.1247,1.0578,0.774,0.6418,0.6073,0.5084,0.4442,0.4013,0.426,0.428,0.4322,0.5451,0.5366,0.4857,0.5598,0.5134,0.4241,0.4105,0.0,0.0,0.0,0.0,0.4161,0.4619,0.4672,0.4692,0.4896,0.4736,0.4561,0.4561,0.4024,0.3456,0.3048,0.2348,0.177,0.1784,0.2399,0.0,0.1879,0.2609,0.3179,0.2939,0.2441,0.2062,0.1793,0.0942,0.0359,0.0359,0.0135,0.0,0.0,0.0,-0.0296,-0.0925,-0.1092,-0.1564,-0.2325,0.0,0.0,0.0,0.0,0.0,0.0,0.0,0.0,0.0,0.0,0.0,0.0,0.0,0.0,0.0,0.0,0.0,0.0,0.0,0.0,0.0,0.0,0.0,0.0,0.0,0.0,0.0,0.0,0.0,1.4059,1.338,0.0,0.0,0.0,0.0,1.1593,1.1693,1.2137,1.2977,1.33,1.389,1.4822,1.4493,1.4524,1.4867,1.4056,1.392,1.445,1.3957,1.3837,1.4063,1.4063,1.3547,1.2706,1.2706,1.2067,1.0971,0.9612,0.839,0.7284,0.6241,0.5177,0.4376,0.5265,0.562,0.5711,0.6684,0.6997,0.6953,0.7003,0.6248,0.5314,0.5314,0.4493,0.0,0.0,0.5316,0.5561,0.6649,0.6779,0.665,0.6659,0.6476,0.6251,0.6251,0.5406,0.4334,0.3388,0.2989,0.2815,0.2822,0.0,0.288,0.283,0.3639,0.393,0.3004,0.3624,0.3807,0.2913,0.1928,0.1346,0.1346,0.0494,0.0,0.0,0.0,0.0,-0.0084,-0.0082,-0.0562,-0.1643,-0.145,0.0,0.0,0.0,0.0,0.0,0.0,0.0,0.0,0.0,0.0,0.0,0.0,0.0,0.0,0.0,0.0,0.0,0.0,0.0,0.0,0.0,0.0,0.0,0.0,0.0,0.0,0.0,0.0,1.4385,1.4482,0.0,1.4004,1.3667,1.3567,1.3792,1.3849,1.3989,1.4307,1.4449,1.4642,1.5008,1.4863,1.4901,1.5008,1.4847,1.4895,1.51,1.495,1.4948,1.5012,1.4878,1.459,1.4296,1.4296,1.4061,1.3584,1.2432,1.0898,0.9201,0.8208,0.7479,0.6993,0.6691,0.6605,0.665,0.6962,0.7095,0.7095,0.7095,0.6827,0.6517,0.6517,0.6172,0.5923,0.6369,0.6483,0.6587,0.6993,0.7054,0.701,0.701,0.6833,0.6656,0.6656,0.621,0.5672,0.5314,0.4472,0.3868,0.4008,0.4406,0.4488,0.3875,0.4585,0.5101,0.4752,0.4478,0.4164,0.3851,0.2957,0.2376,0.2376,0.148,0.0898,0.0898,0.0352,0.0,0.0,0.0,-0.0162,-0.0562,-0.051,-0.0975,0.0,0.0,0.0,0.0,0.0,0.0,0.0,0.0,0.0,0.0,0.0,0.0,0.0,0.0,0.0,0.0,0.0,0.0,0.0,0.0,0.0,0.0,0.0,0.0,0.0,1.5698,1.5881,1.5505,1.5909,1.6102,1.5676,1.535,1.5214,1.5466,1.5269,1.511,1.511,1.5204,1.5257,1.5257,1.5164,1.5157,1.5257,1.5251,1.5297,1.5398,1.5352,1.5351,1.5351,1.5171,1.5136,1.522,1.522,1.5225,1.5172,1.4484,1.3209,1.1631,1.014,0.9454,0.9147,0.834,0.7837,0.7536,0.7228,0.7095,0.7095,0.7095,0.7095,0.7095,0.7095,0.7095,0.7095,0.7095,0.7095,0.7095,0.7095,0.7095,0.7095,0.7095,0.701,0.6881,0.6881,0.67,0.6564,0.6609,0.5764,0.5077,0.5234,0.5642,0.5707,0.5008,0.5417,0.5819,0.5733,0.5151,0.4792,0.4792,0.3941,0.336,0.336,0.2164,0.1535,0.1884,0.1025,0.0662,0.1043,0.0681,0.0501,0.0616,0.0201,-0.056,-0.1663,0.0,0.0,0.0,0.0,0.0,0.0,0.0,0.0,0.0,0.0,0.0,0.0,0.0,0.0,0.0,0.0,0.0,0.0,0.0,0.0,0.0,0.0,0.0,1.6714,1.7084,1.7341,1.7307,1.7704,1.7929,1.7893,1.7012,1.6441,1.6448,1.5868,1.5503,1.5503,1.5772,1.5872,1.5859,1.5591,1.5571,1.5846,1.5342,1.5208,1.5483,1.5253,1.508,1.508,1.508,1.5189,1.5411,1.5411,1.5431,1.5493,1.5493,1.5188,1.448,1.1975,1.0869,1.0692,1.0129,0.9318,0.8412,0.7489,0.7183,0.7183,0.7139,0.7139,0.7139,0.7095,0.7095,0.7095,0.7095,0.7095,0.7095,0.7095,0.7095,0.7095,0.7095,0.7095,0.7095,0.7095,0.6966,0.6881,0.7051,0.6741,0.6432,0.6432,0.6384,0.6343,0.6127,0.6127,0.0,0.5733,0.5733,0.5733,0.5733,0.4884,0.4346,0.4344,0.26,0.1922,0.2915,0.2007,0.1992,0.3169,0.2081,0.158,0.1844,0.0658,-0.0528,-0.1742,0.0,0.0,0.0,0.0,0.0,0.0,0.0,0.0,0.0,0.0,0.0,0.0,0.0,0.0,0.0,0.0,0.0,0.0,0.0,0.0,0.0,1.7929,1.7879,1.7231,1.7787,1.812,1.7787,1.8382,1.8677,1.8229,1.7943,1.7866,1.8115,1.7949,1.7873,1.7873,1.7956,1.7842,1.7599,1.6872,1.6762,1.7323,1.6667,1.674,1.75,1.7659,1.7377,1.6654,1.6654,1.6325,1.5712,1.5712,1.5711,1.5737,1.5737,1.5636,1.5276,1.3107,1.2057,1.1595,1.0566,0.9923,0.9492,0.9226,0.9139,0.9008,0.8321,0.8105,0.7973,0.7316,0.7095,0.7095,0.7095,0.7095,0.7095,0.7095,0.7095,0.7095,0.7095,0.7095,0.7095,0.7095,0.7051,0.7054,0.7095,0.7007,0.6874,0.67,0.652,0.6387,0.6343,0.6299,0.6299,0.621,0.621,0.6169,0.5994,0.5851,0.5732,0.5599,0.442,0.3793,0.4166,0.3281,0.2871,0.3192,0.3075,0.2955,0.2904,0.1654,0.0453,0.0,0.0,0.0,0.0,0.0,0.0,0.0,0.0,0.0,0.0,0.0,0.0,0.0,0.0,0.0,0.0,0.0,0.0,0.0,0.0,0.0,0.0,1.9259,1.9459,1.9126,1.9382,1.9563,1.9255,1.9818,2.0097,1.9773,1.9387,1.92,1.9413,1.9018,1.8788,1.8788,1.8788,1.87,1.8539,1.7979,1.7886,1.8273,1.7886,1.7979,1.8531,1.8692,1.8473,1.7924,1.7924,1.7591,1.7037,1.6622,1.644,1.6393,1.5967,1.5711,1.5504,0.0,0.0,0.0,0.0,1.0794,1.0577,1.0096,0.9879,0.9792,0.9274,0.9104,0.893,0.7969,0.7665,0.7621,0.7228,0.7095,0.7183,0.758,0.7665,0.7797,0.8185,0.8273,0.8273,0.8273,0.8273,0.8141,0.7753,0.7665,0.0,0.701,0.6789,0.6653,0.6567,0.6567,0.652,0.6432,0.6384,0.6343,0.6257,0.6281,0.6298,0.6219,0.5282,0.0,0.0,0.0,0.3937,0.3937,0.4215,0.0,0.0,0.0,0.1758,0.101,0.0369,0.0,0.0,-0.163,-0.2177,0.0,0.0,0.0,0.0,0.0,0.0,0.0,0.0,0.0,0.0,0.0,0.0,0.0,0.0,0.0,0.0,2.0338,2.1114,2.1472,2.1311,2.1181,2.1181,2.1467,2.1696,2.1696,2.0943,2.0484,2.0484,1.9613,1.9109,1.9109,1.9109,0.0,0.0,0.0,1.9018,1.9109,1.9018,1.9018,1.9109,1.9109,1.9063,1.8972,1.8972,1.8926,1.8742,1.7878,1.7466,1.7419,1.6527,1.5959,1.5579,1.483,1.4526,1.4295,1.2533,1.1886,1.1757,1.0664,0.0,0.0,1.0139,1.0096,0.9879,0.8934,0.8671,0.8496,0.7665,0.7401,0.7621,0.8452,0.8671,0.8886,0.9705,0.9879,0.9879,0.9879,0.9879,0.9662,0.8803,0.8671,0.8408,0.7577,0.7224,0.7054,0.6881,0.6836,0.6748,0.652,0.6476,0.6473,0.6432,0.6444,0.0,0.6432,0.5687,0.5479,0.6133,0.5543,0.523,0.5228,0.5457,0.4952,0.3652,0.3496,0.3267,0.2969,0.2808,0.2767,0.2685,-0.0203,-0.1405,0.0,0.0,0.0,0.0,0.0,0.0,0.0,0.0,0.0,0.0,0.0,0.0,0.0,0.0,0.0,2.0854,2.1243,2.1448,2.1646,2.1612,2.1568,2.1568,2.1641,2.1696,2.1696,2.1553,2.1419,2.1419,2.123,2.1141,2.1141,2.1141,2.1141,2.1141,2.0393,2.0348,2.1132,2.0393,2.0393,2.1141,2.1141,0.0,2.0022,2.0022,1.9567,1.8796,1.8611,1.8519,1.8473,1.828,1.7818,1.7051,1.5048,1.4109,1.3801,1.3259,1.3052,1.3045,1.279,1.2613,1.2357,1.158,1.1192,1.0842,0.9927,0.9623,0.0,0.9401,0.9357,0.9401,0.9575,0.9623,0.9662,0.9879,0.9879,0.9879,0.9879,0.9879,0.9836,0.9662,0.9623,0.9575,0.9401,0.8097,0.7095,0.7054,0.7054,0.701,0.6962,0.6962,0.6922,0.6748,0.6809,0.6828,0.6713,0.6466,0.6394,0.6669,0.6551,0.6516,0.6688,0.658,0.6427,0.6186,0.5163,0.4657,0.4612,0.3618,0.3122,0.3079,0.2205,0.1878,0.0,0.0,0.0,0.0,0.0,0.0,0.0,0.0,0.0,0.0,0.0,1.8514,0.0,0.0,2.0683,2.1536,2.1736,2.181,2.1882,2.1785,2.1696,2.1696,2.1696,2.1696,2.1696,2.1696,2.1696,2.1696,2.1696,2.1696,2.1696,2.1696,2.1696,2.1696,2.1266,2.1221,2.1696,2.1221,2.123,2.1696,2.1696,2.1463,2.0997,2.0997,2.0718,2.0221,1.9749,1.9567,1.9497,1.8624,1.7894,1.7258,1.5957,1.5071,1.4524,1.4307,1.3935,1.3519,1.344,1.3307,1.3179,1.2705,1.2448,1.2143,1.1101,1.0799,1.0664,1.0053,0.9879,1.0009,1.0491,1.0577,1.0707,1.1182,1.1311,1.1311,1.1311,1.1311,1.1139,1.0707,1.0577,1.0448,0.9966,0.9139,0.8488,0.8488,0.8488,0.8488,0.8488,0.8488,0.8444,0.836,0.8396,0.8415,0.8368,0.8219,0.7967,0.7672,0.7533,0.7401,0.7095,0.701,0.6936,0.6867,0.6206,0.5832,0.5704,0.4939,0.4556,0.4554,0.4256,0.365,0.0,0.0,0.0,0.0,0.0,0.0,0.0,0.0,1.8232,1.9279,1.9628,2.0076,2.1159,2.1688,2.2083,2.2469,2.2519,2.252,2.2643,2.2344,2.2122,2.2122,2.1865,2.1696,2.1696,2.1696,2.1696,2.1696,2.1696,2.1696,2.1696,2.1696,2.1696,2.1696,2.1696,2.1696,2.1696,2.1696,2.1696,2.1696,2.1696,2.1696,2.1696,2.1696,2.1696,2.1642,2.0819,2.0461,2.0311,1.8787,1.793,1.7595,1.7327,1.6657,1.5842,1.5462,1.4761,1.4026,1.3857,1.3646,1.3483,1.3646,1.3682,1.3464,1.2565,1.2266,1.2046,1.0918,1.0572,1.0745,1.1451,1.1671,1.1843,1.2534,1.2705,1.2705,1.2705,1.2705,1.2485,1.1714,1.158,1.1316,1.0572,1.0443,1.0313,0.9966,0.9879,0.9879,0.9879,0.9879,0.9879,0.9879,0.9879,0.9879,0.9879,0.9753,0.9405,0.8803,0.8619,0.8181,0.7401,0.736,0.7231,0.6881,0.7058,0.6997,0.6711,0.6658,0.6612,0.6612,0.627,0.5137,2.0708,2.0515,2.0246,2.0246,2.0187,2.0264,0.0,0.0,2.0709,2.1412,2.2177,2.2869,2.336,2.3524,2.3887,2.4925,2.4394,2.4082,2.466,2.4082,2.3584,2.3584,2.2467,2.1696,2.1696,2.1696,2.1696,2.1696,2.1696,2.1696,2.1696,2.1696,2.1696,2.1696,2.1696,2.1696,2.1696,2.1696,2.1696,2.1696,2.1696,2.1696,2.1696,2.1696,2.1696,2.1668,2.1206,2.0998,2.0934,2.0018,1.9633,1.9552,1.9177,1.8487,1.7594,1.6813,1.5959,1.5228,1.5186,1.4524,1.3773,1.4587,1.4706,1.4538,1.4406,1.4364,1.4154,1.3252,1.3003,1.3003,1.2924,1.2881,1.2881,1.2747,1.2705,1.2705,1.2705,1.2705,1.2662,1.2577,1.2528,1.2528,1.24,1.24,1.1832,1.0139,0.9879,0.9879,0.9879,0.9879,0.9879,0.9879,0.9879,0.9879,0.9879,0.9879,0.9836,0.9749,0.9705,0.9318,0.8364,0.8324,0.7929,0.7098,0.7885,0.8273,0.8253,0.8896,0.9196,0.9157,0.8495,0.7179,2.1357,2.2187,0.0,0.0,2.2579,2.2801,2.3039,2.3081,2.3127,2.3514,2.3883,2.4225,2.4514,2.4556,2.4703,0.0,2.4925,2.4787,2.5041,2.4798,2.4542,2.4542,2.4029,2.327,2.2211,2.2087,2.2043,2.1919,2.1919,2.1874,2.1696,2.1696,2.1696,2.1696,2.1696,2.1696,2.1696,2.1696,2.1696,2.1696,2.1696,2.1696,2.1696,2.1696,2.1696,2.1668,2.1291,2.0979,2.0723,2.0122,1.9747,1.9549,1.9366,1.9094,1.8647,1.7796,1.6903,1.6165,1.6165,1.5835,1.5504,1.5869,1.5951,1.582,1.5737,1.5696,1.5572,1.5067,1.4538,1.4132,1.4048,1.3633,1.3264,1.3137,1.3094,1.3258,1.3747,1.3669,1.3675,1.4174,1.4055,1.3844,1.3844,1.3844,1.3584,1.2802,1.2035,1.1526,1.1526,1.1526,1.1526,1.1526,1.1526,1.1526,1.1526,1.1526,1.1316,1.0755,1.0712,1.0274,0.9362,0.9318,0.9144,0.875,0.91,0.9318,0.9318,0.9492,0.9579,0.9579,0.9135,0.8348,2.237,2.3515,0.0,2.4018,2.4204,2.455,2.4642,2.4675,2.4767,2.5033,2.5295,2.5527,2.5659,2.5683,2.5766,2.6005,2.585,2.5755,2.6005,2.585,2.5683,2.5683,2.5473,2.4798,2.3454,2.3115,2.2906,2.2784,2.2652,2.2476,2.2299,2.229,2.229,2.229,2.229,2.229,2.229,2.2087,2.1998,2.1998,2.1998,2.1909,2.1696,2.1696,2.1632,2.1539,2.1299,2.0893,2.0328,2.0088,1.9697,1.9301,1.9301,1.9301,1.9222,1.8607,1.7796,1.7058,1.7058,1.6903,1.6739,1.6984,1.7058,1.7017,1.6895,1.6854,1.6764,1.6306,1.573,1.524,1.5199,1.4706,1.4223,1.4132,1.4132,1.4294,1.4907,1.4824,1.4796,1.5421,1.5296,1.5054,1.5054,1.5054,1.5012,1.4901,1.4168,1.3451,1.3045,1.279,1.2705,1.2705,1.2705,1.2705,1.2705,1.2705,1.24,1.1714,1.1671,1.1278,1.0318,1.0274,1.0139,0.9923,1.0144,1.0274,1.0274,1.0404,1.0448,1.0448,1.0135,0.9696,2.4395,2.4456,2.4506,2.4495,2.4506,2.4598,2.507,2.519,2.5281,2.571,2.6483,2.7121,2.7133,2.7144,2.7429,2.8259,2.7684,2.7429,2.8259,2.7672,2.7144,2.7144,2.6329,2.5746,2.5694,2.4914,2.4413,2.4413,2.4016,2.3757,2.3757,2.3757,2.3757,2.3757,2.3757,2.3757,2.3757,2.3091,2.2759,2.2759,2.2759,2.2397,2.1696,2.1696,2.1511,2.1151,2.14,2.09,1.9916,2.0131,1.9824,1.9301,1.9301,1.9301,1.9301,1.9262,1.8727,1.7957,1.7957,1.7432,1.6821,1.7674,1.7957,1.7957,1.7957,1.7957,1.7755,1.6903,1.665,1.6568,1.6396,1.6314,1.6232,1.5962,1.5921,1.5921,1.5962,1.5962,1.5962,1.5962,1.5962,1.5962,1.5962,1.5962,1.5812,1.5428,1.5696,1.5357,1.3857,1.3088,1.2705,1.2705,1.2705,1.2705,1.2705,1.2705,1.2705,1.2662,1.2662,1.2229,1.1284,1.1278,1.0842,0.9923,1.0799,1.1278,1.1278,1.2186,1.2613,1.2577,1.2143,1.1574,2.5401,2.6191,2.7076,2.6687,2.6901,2.7205,2.734,2.7375,2.7342,2.7203,2.7644,2.7978,2.7696,2.7898,2.8179,2.8471,2.8259,2.8179,2.8471,2.8259,2.8047,2.8047,2.7794,0.0,2.7592,2.6246,2.5326,2.5158,2.4744,2.4402,2.4274,2.3973,2.38,2.38,2.38,2.38,2.38,2.3594,2.3464,2.3464,2.3464,2.3333,2.3105,2.3105,2.2838,2.2418,2.2229,2.1765,2.1102,2.0458,2.0089,1.9854,1.946,1.9301,1.9301,1.9301,1.9094,1.8856,1.8856,1.8687,1.8487,1.8776,1.8856,1.8856,1.8856,1.8856,1.8807,1.8527,1.7997,1.7553,1.7464,1.7017,1.6568,1.6478,1.6478,1.6642,1.7212,1.7131,1.7098,1.7683,1.7521,1.7318,1.7318,1.7318,1.7115,1.6542,1.5959,1.5496,1.5274,1.5018,1.4775,1.451,1.4468,1.4391,1.4055,1.3597,1.3349,1.3349,1.296,1.2577,1.2229,1.2229,1.21,1.1746,1.2485,1.2875,1.2869,1.3682,1.3808,1.3349,1.3675,1.3027,2.6987,2.7862,2.8703,2.8366,2.8402,2.851,2.851,2.851,2.8431,2.8163,2.8311,2.8431,2.8163,2.8323,2.857,2.8763,2.8799,2.8799,2.8799,2.8799,2.8727,2.8534,2.851,2.851,0.0,0.0,0.0,2.6381,2.5924,2.5589,2.5463,2.52,2.502,2.502,2.502,2.4935,2.4776,2.452,2.436,2.4198,2.4102,2.4188,2.4382,2.4089,2.3729,2.3289,2.2959,2.2398,2.1724,2.1131,2.0624,2.0206,2.004,1.9844,1.9648,1.9883,1.9962,1.9923,1.946,1.9301,1.9301,1.9301,1.9301,1.9301,1.9301,1.9301,1.9301,1.9301,1.8895,1.8447,1.8447,1.8037,1.7634,1.7634,1.7634,1.7796,1.8318,1.8247,1.8247,1.8803,1.8674,1.8474,1.8474,1.8362,1.8152,1.7853,1.7115,1.6453,1.6044,1.6003,1.5887,1.5621,1.5621,1.5421,1.4977,1.4566,1.4237,1.4068,1.3639,1.3421,1.3421,1.3421,1.3421,1.3421,1.3851,1.4068,1.4068,1.4482,1.4489,1.4068,1.4482,1.4097,2.9027,2.928,2.9268,2.9292,2.8907,2.851,2.851,2.851,2.851,2.8471,2.8471,2.8471,2.8471,2.8471,2.8679,2.9184,2.9256,2.9256,2.9256,2.9256,2.9076,0.0,0.0,0.0,0.0,0.0,0.0,2.7962,2.7493,2.7226,2.7226,2.7226,2.7185,2.7185,2.7185,2.6981,2.6528,2.5913,2.5421,2.5031,2.4754,2.4946,2.5557,2.4771,2.4209,2.3798,2.3498,2.2796,2.1849,2.208,2.1443,2.0401,2.1011,2.0818,2.0313,2.0972,2.1242,2.1039,1.9844,1.9411,1.942,1.942,1.942,1.942,1.942,1.942,1.9381,1.9341,1.9341,1.9341,1.9301,1.9301,1.9301,1.9301,1.9301,1.9301,1.9301,1.9301,1.9301,1.9301,1.9301,1.9341,1.9341,1.9042,1.8971,1.9341,1.9042,1.8144,1.6373,1.6167,1.6167,1.6126,1.6126,1.5977,1.556,1.5477,1.5269,1.4817,1.4734,1.4692,1.4692,1.4692,1.4692,1.4734,1.4734,1.4776,1.4776,1.4817,1.4776,1.4734,1.4776,1.4776,2.9124,2.9015,2.8799,2.9208,2.8907,2.851,2.851,2.851,2.8391,2.8122,2.8271,2.8391,2.8122,2.8323,2.8558,2.8691,2.8703,0.0,2.8703,2.8703,0.0,2.8522,0.0,2.851,2.851,2.851,0.0,2.8351,2.795,2.7708,2.7708,2.74,2.7185,2.7185,2.7185,2.7144,2.7021,2.6846,2.6723,2.6599,2.6547,2.6599,2.6741,2.6152,2.5627,2.5182,2.4713,2.4142,2.3534,2.3154,2.2644,2.2042,2.1718,2.1336,2.1011,2.1403,2.1555,2.1517,2.1201,2.0904,2.0741,2.0741,2.0741,2.0741,2.0741,2.0741,2.0615,2.0118,1.9971,1.9854,1.942,1.9301,1.9301,1.9301,1.9301,1.9301,1.9301,1.9301,1.9301,1.9301,1.9657,1.9971,1.9971,2.0313,2.0586,2.0702,2.0196,1.949,1.8598,1.8479,1.8359,1.8055,1.8023,1.7821,1.7375,1.6591,1.6098,1.5982,1.5151,1.4692,1.4692,1.4692,1.4859,1.5228,1.536,1.5609,1.5982,1.6105,1.594,1.5443,1.5948,1.565,2.9088,2.9088,2.8931,2.922,2.8907,2.851,2.851,2.851,2.8431,2.8203,2.8351,2.8431,2.8203,2.8363,2.8595,0.0,0.0,0.0,2.8859,2.8859,2.8775,0.0,2.851,0.0,2.851,2.851,2.851,0.0,2.8271,2.8163,2.8163,2.7898,2.7765,2.7765,2.7765,2.7684,2.7534,2.7307,2.7185,2.7185,2.74,2.7534,2.751,2.6874,2.6472,2.6168,2.5271,2.4709,2.4418,2.3911,2.3423,2.2942,2.2857,2.251,2.2172,2.2622,2.2809,2.2809,2.2809,2.267,2.2381,2.151,2.1203,2.1203,2.1203,2.1203,2.1126,2.0741,2.0624,2.0547,2.0235,2.0118,2.0118,2.0118,2.0118,2.0118,2.0118,2.0118,2.0118,2.0118,2.0391,2.0624,2.0624,2.0934,2.1203,2.1203,2.0895,2.0508,2.0196,1.9648,1.9222,1.9002,1.8962,1.8803,1.8322,1.7749,1.7456,1.7521,1.6862,1.6609,1.696,1.665,1.6617,1.6976,1.6788,1.6763,1.6853,1.6943,1.6689,1.6154,1.6525,1.6319,2.8931,2.9196,2.9208,2.928,2.8907,2.851,2.851,2.851,2.851,2.851,2.851,2.851,2.851,2.851,2.8655,2.9124,0.0,2.9304,2.9304,2.9304,2.9164,2.8787,2.8666,2.8618,2.8618,2.8618,2.8654,2.8726,2.8726,2.8662,2.851,2.851,2.851,2.851,2.851,2.8311,2.7962,2.7563,2.7389,2.7389,2.7788,2.7926,2.7832,2.72,2.6861,2.6729,2.5419,2.4861,2.4861,2.4478,2.402,2.3559,2.408,2.3922,2.3486,2.408,2.4273,2.4273,2.4273,2.4273,2.3959,2.2182,2.1538,2.151,2.151,2.1471,2.1433,2.1357,2.1357,2.1395,2.128,2.1308,2.1346,2.1346,2.1308,2.128,2.128,2.1231,2.1203,2.1203,2.128,2.1318,2.1318,2.1395,2.1433,2.1433,2.1357,2.1318,2.1318,2.0274,1.9529,1.9529,1.9529,1.942,1.9042,1.8962,1.8993,1.9195,1.9006,1.9164,1.9864,1.9244,1.8966,1.9186,1.8576,1.8103,1.7821,1.7668,1.7383,1.7009,1.6976,1.6976,2.8474,2.8643,2.8751,2.9184,2.8907,2.851,2.851,2.851,0.0,0.0,2.851,2.851,2.851,2.851,2.8546,2.8631,2.9015,2.9304,2.9304,2.9304,2.946,0.0,2.9495,2.9223,2.9223,2.9223,0.0,2.9933,3.001,2.9545,2.8574,2.851,2.851,2.851,2.851,2.8471,2.8391,2.8311,2.8259,2.8271,2.8351,2.8163,2.772,2.7148,2.6645,2.6202,2.5517,2.5218,2.5218,2.5135,2.4897,2.4562,2.4646,2.4418,2.4116,2.4526,2.4682,2.4682,2.4682,2.4682,2.4562,2.3897,2.3434,2.3176,2.3176,2.2953,2.258,2.209,2.2176,2.2306,2.1745,2.1849,2.2113,2.2113,2.1849,2.1621,2.1621,2.1413,2.1203,2.1203,2.1596,2.1949,2.1949,2.2354,2.2692,2.2692,2.2241,2.1949,2.1949,2.1318,2.0857,2.0857,2.0857,2.0857,2.0779,2.0401,2.0197,2.0226,1.9894,1.9737,1.9894,1.9786,1.9855,2.0226,1.9816,1.9698,1.9953,1.9146,1.8687,1.8598,1.8416,1.8336,2.7957,2.8294,2.857,2.8823,2.8703,2.851,2.851,0.0,0.0,0.0,2.851,2.851,2.851,2.851,0.0,2.851,2.8727,2.9004,2.9312,2.9625,2.9927,3.0221,3.0287,3.0339,0.0,3.0339,3.0605,3.1189,3.124,3.0966,3.0383,3.0371,3.0246,2.992,3.0234,3.0234,2.992,2.9603,2.927,2.8961,2.8669,2.8234,2.7666,2.7138,2.6597,2.6069,2.554,2.5312,2.5312,2.5312,2.5218,2.5052,2.5052,2.4933,2.479,2.4981,2.5052,2.5052,2.5052,2.5052,2.5016,2.4826,2.4394,2.3897,2.3897,2.3787,2.3556,2.3261,2.3335,2.3409,2.308,2.3143,2.3302,2.3302,2.3154,2.2931,2.2745,2.2558,2.2456,2.2456,2.2692,2.2964,2.315,2.3446,2.3629,2.3629,2.3187,2.2889,2.2889,2.2467,2.189,2.128,2.1203,2.1203,2.1203,2.0991,2.0991,2.1298,2.1039,2.1078,2.1489,2.1116,2.1039,2.1336,2.0837,2.0556,2.0498,2.0041,1.965,1.9471,1.9362,1.9323,2.7366,2.7906,2.8342,2.8342,2.8342,2.8342,2.8342,2.8342,0.0,2.8486,2.851,2.851,2.851,2.851,2.851,2.851,2.8703,2.9036,2.9688,3.0266,3.0733,0.0,3.1384,0.0,3.1577,3.1577,0.0,3.2458,3.2734,3.2655,3.2116,3.2103,3.1857,3.1434,3.1832,3.1857,3.1421,3.0907,3.0455,2.995,2.949,2.8922,2.8236,2.7598,2.7052,2.6627,2.5838,2.5619,2.5845,2.5735,2.5652,2.5652,2.5652,2.5652,2.5652,2.5652,2.5652,2.5652,2.5652,2.5652,2.5652,2.5652,2.5076,2.4345,2.4345,2.4334,2.437,2.437,2.4431,2.4503,2.4503,2.4467,2.4406,2.4345,2.4345,2.4236,2.3824,2.3751,2.3776,2.3886,2.3911,2.4032,2.4455,2.4431,2.437,2.437,2.4105,2.3849,2.374,2.3545,2.2979,2.1852,2.1624,2.1586,2.1586,2.1586,2.1776,2.2252,2.2138,2.2327,2.2964,2.2402,2.2138,2.2289,2.1825,2.1413,2.1048,2.0894,2.0672,2.0372,2.0333,2.0294,2.6813,2.7354,2.775,2.775,2.775,2.775,2.775,0.0,2.7933,2.8414,2.851,2.851,2.851,2.851,2.851,2.851,2.9316,3.0179,3.0856,3.1398,3.218,3.334,0.0,0.0,3.283,3.283,3.3067,3.3686,3.4754,3.4406,3.2207,3.2103,3.2077,3.2039,3.2077,3.2077,3.2039,3.1959,3.192,3.1842,3.1802,3.1199,3.0113,2.9026,2.8524,2.8464,2.6822,2.6703,2.7608,2.7075,2.6824,2.6824,2.6824,2.6824,2.6824,2.6824,2.6824,2.6824,2.6824,2.6824,2.6824,2.6824,2.5873,2.4754,2.4754,2.4838,2.4945,2.4945,2.5182,2.5452,2.5452,2.5335,2.5111,2.4814,2.4754,2.4646,2.4236,2.4152,2.4298,2.4767,2.4862,2.504,2.5545,2.524,2.4945,2.4945,2.4909,2.4707,2.4225,2.4527,2.4443,2.3471,2.3038,2.2841,2.2841,2.2841,2.2852,2.2927,2.2889,2.2927,2.3001,2.2927,2.2889,2.2927,2.2852,2.2804,2.2767,2.2203,2.1949,2.1901,2.1721,2.1645,2.637,2.6789,2.721,2.721,2.721,2.721,2.721,0.0,2.727,2.7474,2.7522,2.7522,2.7522,2.7786,2.7999,2.8018,2.8636,2.9499,3.0522,3.1441,3.2375,3.3258,3.3788,0.0,0.0,0.0,3.4312,3.4942,3.5413,3.5292,3.4313,3.4259,3.4086,3.3741,3.4073,3.4086,3.3741,3.3369,3.2999,3.2607,3.19,3.1151,3.0367,2.9553,2.9043,2.8746,2.7678,2.7496,2.7859,2.7237,2.7007,2.7007,2.7007,2.7007,2.7007,2.7007,2.7007,2.7007,2.7007,2.7007,2.7007,2.7007,2.6598,2.6117,2.6117,2.6139,2.6195,2.6195,2.6333,2.6436,2.6436,2.638,2.6277,2.6151,2.6117,2.6013,2.5592,2.5522,2.5592,2.5789,2.5824,2.601,2.6436,2.6333,2.6195,2.6195,2.601,2.5767,2.5557,2.5487,2.5346,2.4957,2.419,2.3629,2.3372,2.3593,2.3813,2.3998,2.4034,2.4143,2.4371,2.4371,2.4154,2.3658,2.3658,2.357,2.3372,2.3113,2.3001,2.3001,2.2927,2.2589,2.6057,2.6382,2.6645,2.6645,2.6645,2.6645,0.0,0.0,2.6693,2.6861,2.6898,2.6946,2.7102,2.7579,2.7968,2.7953,2.869,2.9647,3.0734,3.1889,3.2935,0.0,0.0,3.5059,3.5059,3.5059,3.5222,3.5683,3.571,3.571,3.571,3.5844,3.5654,3.5073,3.5506,3.552,3.5059,3.4634,3.4233,3.3781,3.2778,3.2031,3.1594,3.0647,3.0098,2.9908,2.897,2.8573,2.8582,2.8007,2.7633,2.7477,2.7477,2.7477,2.7477,2.7477,2.7477,2.7477,2.7477,2.7477,2.7477,2.7477,2.7477,2.7477,2.7477,2.7377,2.7242,2.7242,2.7242,2.7209,2.704,2.7007,2.7007,2.7007,2.7007,2.6926,2.6629,2.6595,2.6616,2.6786,2.682,2.6934,2.741,2.7343,2.7242,2.7242,2.7015,2.6752,2.6595,2.6492,2.6274,2.5998,2.5394,2.4814,2.4299,2.4515,2.4767,2.5028,2.5028,2.5134,2.5441,2.5429,2.517,2.4612,2.4612,2.448,2.4263,2.4263,2.4263,2.4251,2.3824,2.2997,2.5961,2.6105,2.6105,2.6105,2.6105,2.6105,0.0,2.6105,2.6262,2.6777,2.6898,2.7054,2.7582,2.8193,2.8573,2.8485,2.9933,3.1306,3.1988,3.3054,3.4259,0.0,0.0,3.571,3.571,3.571,3.571,3.571,3.571,3.571,3.571,3.6138,3.6192,3.571,3.571,3.571,3.571,3.5669,3.5669,3.5642,3.5046,3.4658,3.441,3.2667,3.216,3.2571,3.0825,3.0213,3.0316,2.9726,2.9116,2.8587,2.8587,2.8587,2.8587,2.8587,2.8587,2.8587,2.8587,2.8587,2.8587,2.8587,2.8587,2.8587,2.8587,2.8216,2.7776,2.7776,2.7776,2.7676,2.7142,2.7007,2.7007,2.7007,2.7007,2.7007,2.6994,2.6994,2.7142,2.7676,2.7776,2.7954,2.849,2.8151,2.7776,2.7776,2.7776,2.7577,2.7074,2.7443,2.743,2.648,2.6744,2.6654,2.5859,2.5789,2.5777,2.5789,2.5789,2.5789,2.5789,2.5789,2.5789,2.5777,2.5777,2.5789,2.5789,2.5789,2.5789,2.573,2.4341,2.2708,2.5516,2.5564,2.5564,2.5564,2.5564,2.5564,2.5564,2.5564,2.5612,2.5793,2.6152,2.6487,2.6659,2.7724,2.8738,2.9186,3.034,3.1409,3.2075,3.3413,0.0,3.4904,3.5931,3.673,3.7116,3.7155,3.7295,3.7724,3.7762,3.7762,3.7762,3.7486,3.6989,3.6178,3.6443,3.6443,3.6192,3.6192,3.6192,3.6178,3.5096,3.472,3.4883,3.3811,3.3248,3.3087,3.2486,3.1898,3.1275,3.0264,2.9611,2.919,2.9008,2.8812,2.8619,2.8844,2.8812,2.8587,2.8587,2.8587,2.8587,2.8587,2.8881,2.9219,2.9373,2.8912,2.836,2.836,2.836,2.8327,2.8151,2.8085,2.8085,2.8085,2.8085,2.8085,2.8085,2.8085,2.8151,2.8314,2.836,2.8392,2.8554,2.8803,2.8807,2.8411,2.9075,2.9425,2.878,2.9268,2.9549,2.9226,2.9303,2.8529,2.6399,2.6458,2.6722,2.696,2.696,2.7095,2.7377,2.7377,2.7116,2.6548,2.6548,2.6445,2.6193,2.6193,2.6005,2.5564,2.4539,2.3511,2.5312,2.5312,2.5312,2.5312,2.5312,2.5312,2.5312,2.5488,2.5652,2.5767,2.6264,2.6849,2.7429,2.8538,2.9557,3.0218,3.1322,3.2219,3.2563,3.3954,0.0,3.5751,3.6893,3.7753,3.8115,3.8153,3.8287,3.8679,3.8715,3.8715,3.8715,3.8487,3.8107,3.7529,3.7173,3.6978,3.694,3.6733,3.6628,3.6601,3.535,3.5036,3.5603,3.4652,3.4177,3.409,3.382,3.3183,0.0,3.1518,3.0666,2.9876,2.9907,2.9533,2.9035,2.9418,2.9306,2.9022,2.9359,2.9359,2.9279,2.9421,2.9721,3.0043,3.0194,2.9858,2.947,2.947,2.9421,2.9341,2.9103,2.9103,2.9071,2.8844,2.8876,2.9035,2.9198,2.9247,2.9279,2.9359,2.939,2.9373,2.9341,2.9625,2.9766,2.9453,3.0056,3.0435,3.0074,3.033,3.0569,3.0569,3.0539,2.9813,2.8082,2.7926,2.7947,2.7934,2.7934,2.8033,2.8276,2.8276,2.8052,2.755,2.755,2.7438,2.7237,2.7237,2.6657,2.5516,2.498,2.4115,0.0,2.5312,2.5312,2.5312,2.5312,2.5312,2.5312,2.5769,0.0,2.6535,2.7124,2.8025,2.9518,3.0303,3.0973,3.1659,3.2839,3.3645,3.3515,3.4738,0.0,0.0,3.8465,3.8803,3.8921,3.8891,3.8862,3.8898,3.8898,3.8898,3.8898,3.9218,3.9427,3.9448,3.8008,3.7414,3.7904,3.7414,3.7173,3.7159,3.5887,3.5718,3.6547,3.5331,3.4993,3.54,3.496,3.4196,3.3266,3.3241,3.218,3.0651,3.1173,3.069,2.9744,3.0266,3.0113,2.9806,3.0615,3.0659,3.0405,3.0837,3.0984,3.0998,3.1042,3.0984,3.0896,3.0896,3.0808,3.0585,3.004,2.9964,2.9919,2.9355,2.9477,2.9806,3.0238,3.0345,3.0405,3.0659,3.0719,3.0659,3.0539,3.0569,3.0629,3.0689,3.0778,3.0896,3.0955,3.0911,3.0867,3.0867,3.0748,3.0644,3.0599,2.9981,2.9345,2.8766,2.8734,2.8716,2.8683,2.8651,2.8651,2.8587,2.8587,2.8587,2.8587,2.8587,2.76,2.5683,2.5683,2.4659,2.5123,0.0,2.5312,2.5312,2.5312,2.5312,0.0,2.5941,2.6501,2.6603,2.7611,2.8899,3.0215,3.1274,3.2499,3.408,3.457,3.4866,3.5253,3.6241,0.0,3.9976,3.9887,4.0001,4.0979,4.0631,4.0478,4.0891,4.0925,4.0925,4.0925,4.0615,4.0631,4.1057,3.9839,3.9124,3.8942,3.8833,3.876,3.8745,3.7411,3.707,3.7519,3.6632,3.6054,3.5785,3.6086,3.5361,3.4021,3.3548,3.2604,3.1533,3.2034,3.156,3.0703,3.1634,3.1382,3.0615,3.0837,3.0837,3.0867,3.1462,3.1747,3.1916,3.2422,3.179,3.0896,3.0896,3.0896,3.0808,3.0675,3.066,3.066,3.0526,3.0526,3.0615,3.0734,3.0763,3.0778,3.0837,3.0837,3.0808,3.0674,3.1159,3.1362,3.0778,3.165,3.2216,3.1734,3.2089,3.2385,3.2385,3.2358,3.2148,3.1607,3.0852,3.0315,3.007,3.0133,2.995,2.93,2.9282,2.9075,2.8619,2.8587,2.8587,2.8587,2.8587,2.7881,2.6522,2.6522,2.6013,2.48,2.5119,2.5312,2.5312,2.5312,2.5382,2.5664,2.6389,2.7111,2.7544,2.8787,3.0167,3.1298,3.2454,3.3581,3.4654,3.5281,3.6062,0.0,0.0,3.96,4.1198,4.1256,4.1317,4.1687,4.1359,4.129,4.1588,4.1588,4.1588,4.1588,4.1323,4.129,4.1588,4.099,4.0462,3.9975,3.9713,3.957,3.9555,3.8546,3.8152,3.8218,3.7511,3.6956,3.6631,3.6677,3.6199,3.5368,3.4699,3.3774,3.2826,3.3318,3.2639,3.1509,3.2635,3.2338,3.142,3.1847,3.1987,3.2059,3.2407,3.2586,3.2722,3.3081,3.2629,3.1987,3.1987,3.1975,3.1819,3.1533,3.1519,3.1506,3.1203,3.1232,3.142,3.1634,3.1662,3.1734,3.189,3.1918,3.1862,3.1736,3.2076,3.2244,3.1849,3.248,3.2866,3.2574,3.2812,3.3005,3.3005,3.2924,3.2746,3.2398,3.2033,3.1492,3.0719,3.0734,3.0615,3.0151,3.012,2.9966,2.9563,2.9484,2.9467,2.9467,2.9467,2.9007,2.8098,2.7758,2.7286,2.458,2.4963,2.5347,2.5312,2.5312,2.5523,2.6117,2.6947,2.7888,2.8957,3.0108,3.1358,3.2777,3.3703,3.4407,3.5009,3.606,3.738,3.9008,4.0159,4.1109,4.1871,4.2281,4.2315,4.181,4.1652,4.1588,4.1588,4.1588,4.1588,4.1588,4.1588,4.1588,4.1588,4.1588,4.139,4.0935,4.0409,4.017,4.017,3.9543,3.9121,3.8787,3.812,3.7684,3.748,3.7029,3.6753,3.6614,3.6039,3.5134,3.4178,3.4727,3.3851,3.239,3.3534,3.3159,3.2216,3.3011,3.3309,3.3309,3.3309,3.3309,3.3309,3.3309,3.3309,3.3309,3.3309,3.3229,3.3,3.2419,3.2422,3.2382,3.1821,3.1921,3.2216,3.2629,3.2711,3.2807,3.3069,3.3123,3.3085,3.2951,3.2951,3.3005,3.3085,3.3123,3.3176,3.3282,3.3203,3.3123,3.3123,3.3032,3.2951,3.2951,3.3085,3.2617,3.1332,3.1246,3.1188,3.1071,3.0955,3.0837,3.0734,3.0615,3.0539,3.0539,3.0539,3.0205,2.9566,2.8898,2.833,2.4884,2.5357,2.55,2.5347,2.5418,2.5734,2.6377,2.7345,2.8595,3.0455,3.0742,3.1662,3.4938,3.4901,3.5228,3.7781,3.8742,3.9113,3.8897,3.9903,4.1127,4.2419,4.2092,4.1952,4.2473,4.1952,4.1588,4.1588,4.1588,4.1588,4.1588,4.1588,4.1588,4.1588,4.1588,4.1555,4.1489,4.1374,4.1341,4.1341,4.0681,4.0022,3.9346,3.8684,3.8067,3.751,3.7405,3.7014,3.6418,3.6324,3.5839,3.5228,3.5883,3.5238,3.4019,3.4841,3.4262,3.3107,3.324,3.3309,3.3309,3.3309,3.3309,3.3309,3.3309,3.3309,3.3309,3.3309,3.3282,3.3256,3.3145,3.3145,3.3134,3.3038,3.3038,3.3107,3.3187,3.3187,3.3214,3.3256,3.3282,3.3229,3.3096,3.315,3.3203,3.3096,3.3203,3.3282,3.3309,3.3282,3.3282,3.3282,3.3256,3.3229,3.3229,3.3256,3.316,3.2942,3.2823,3.2465,3.1762,3.1188,3.0896,3.0867,3.0837,3.0793,3.0674,3.0674,3.0309,2.9566,2.8898,2.8565,2.458,2.5249,2.5816,2.6092,2.623,2.6561,2.7544,2.8312,2.9132,3.0369,3.1151,3.222,3.4228,3.4919,3.5844,3.7836,3.877,3.9332,3.9703,4.0921,4.1968,4.2616,4.2394,4.2157,4.2094,4.1778,4.1737,4.211,4.2142,4.2285,4.2615,4.2647,4.2475,4.2142,4.2142,4.1964,4.1588,4.1588,4.1588,4.1588,4.1288,4.0561,3.9487,3.9187,3.8476,3.751,3.751,3.7291,3.6959,3.655,3.6203,3.5947,3.5884,3.5221,3.4288,3.4273,3.3862,3.3309,3.3309,3.3309,3.3309,3.3309,3.3309,3.3309,3.3309,3.3309,3.3309,3.3309,3.3309,3.3309,3.3309,3.3309,3.3309,3.3309,3.3309,3.3309,3.3309,3.3309,3.3309,3.3309,3.3309,3.3282,3.3229,3.3256,3.3282,3.3229,3.3256,3.3309,3.3309,3.3309,3.3309,3.3309,3.3309,3.3309,3.3309,3.3309,3.3424,3.3694,3.3398,3.3288,3.3463,3.2579,3.236,3.2887,3.2305,3.2086,3.2259,3.2003,3.1713,3.1367,3.0658,3.0141,2.4529,2.5317,2.6201,2.7156,2.7193,2.7291,2.8629,2.9139,2.9655,3.0683,3.1722,3.2803,3.3928,3.5441,3.6831,3.7854,3.8701,3.9545,4.045,4.1652,4.2426,4.2426,4.2426,4.2205,4.1636,4.1753,4.2061,4.2554,4.2725,4.3017,4.3482,4.3512,4.3273,4.2818,4.2818,4.2569,4.2094,4.2094,4.2013,4.1835,4.1835,4.1183,3.9974,3.9815,3.8992,3.7747,3.7573,3.751,3.7462,3.6896,3.655,3.6374,3.5962,3.5338,3.4569,3.3652,3.3372,3.3477,3.3346,3.3309,3.3309,3.3309,3.3309,3.3309,3.3309,3.3372,3.3477,3.3398,3.3539,3.3626,3.3372,3.3398,3.345,3.3335,3.3414,3.345,3.3335,3.3398,3.345,3.3319,3.3309,3.3309,3.3309,3.3309,3.3309,3.3309,3.3309,3.3309,3.3309,3.3309,3.3361,3.3477,3.3477,3.3513,3.3626,3.3668,3.3882,3.4431,3.3958,3.3993,3.4785,3.3968,3.385,3.464,3.379,3.3455,3.3649,3.3288,3.3043,3.2881,3.2122,3.1514,2.5448,2.5965,2.6612,2.8396,2.7998,2.755,2.8949,2.9435,3.0273,3.276,3.2746,3.3198,3.6131,3.756,3.8591,3.941,4.0064,4.0513,4.0593,4.1209,4.1667,4.1667,4.1667,4.1652,4.1588,4.2142,4.2554,4.2585,4.3108,4.3453,4.3512,4.3512,4.3482,4.3423,4.3423,4.3466,4.3538,4.3568,4.3196,4.2522,4.2522,4.2118,4.1342,4.0709,3.9702,3.8397,3.7765,3.751,3.751,3.7447,3.7022,3.645,3.6878,3.6548,3.5597,3.3924,3.3633,3.3975,3.3477,3.3309,3.3309,3.3309,3.3309,3.3309,3.3309,3.3658,3.4,3.3745,3.4251,3.4633,3.3575,3.3684,3.3924,3.3424,3.3684,3.3899,3.3398,3.3694,3.3899,3.3414,3.3309,3.3309,3.3309,3.3309,3.3309,3.3309,3.3309,3.3309,3.3309,3.3309,3.3503,3.4,3.405,3.4234,3.4666,3.4673,3.4911,3.5459,3.4981,3.4721,3.4793,3.4738,3.4697,3.4769,3.4714,3.4382,3.3783,3.3758,3.3445,3.2881,3.2122,3.1763,2.5489,2.6333,2.7281,2.8417,2.8986,2.9403,2.9986,3.0461,3.1188,3.2611,3.3204,3.4279,3.6901,3.767,3.8241,3.9408,3.9771,4.0087,4.0546,4.1178,4.1737,4.2174,4.2206,4.2349,4.274,4.3,4.332,4.3752,4.3985,4.4299,4.4652,4.4746,4.4618,4.4254,4.4339,4.4192,4.3843,4.3826,4.3872,4.4037,4.3525,4.2894,4.2081,4.1445,4.0618,3.9715,3.9034,3.8723,3.8624,3.8139,3.7715,3.7335,3.6711,3.6026,3.5291,3.4431,3.4382,3.464,3.4018,3.3933,3.4043,3.3668,3.3771,3.4009,3.3892,3.4235,3.4649,3.4592,3.5048,3.5334,3.4292,3.4341,3.4577,3.4301,3.4391,3.4488,3.4276,3.4374,3.4496,3.4382,3.4358,3.4358,3.4358,3.4358,3.4333,3.4251,3.4226,3.4226,3.4226,3.4226,3.4301,3.4496,3.4537,3.4593,3.4769,3.5115,3.5391,3.5594,3.5115,3.5075,3.5705,3.5121,3.5098,3.5727,3.5121,3.484,3.4918,3.4585,3.4152,3.3642,3.3355,3.2825,2.6248,2.7278,2.8279,2.8952,2.976,3.0549,3.1037,3.1611,3.2286,3.3025,3.441,3.5979,3.7655,3.7884,3.8315,3.977,3.9708,3.996,4.1214,4.1726,4.2221,4.2863,4.297,4.3166,4.3584,4.3818,4.4123,4.4597,4.479,4.5096,4.5485,4.5615,4.5468,4.5062,4.5142,4.4974,4.4567,4.455,4.4804,4.5249,4.4695,4.3872,4.287,4.2187,4.1379,4.0481,3.9809,3.9332,3.9037,3.8478,3.802,3.7511,3.6211,3.5669,3.5543,3.4971,3.5001,3.5261,3.4633,3.4553,3.4657,3.426,3.4374,3.4634,3.4536,3.4854,3.5272,3.5238,3.5681,3.6015,3.5253,3.5144,3.5157,3.4918,3.4981,3.5035,3.4911,3.5012,3.5128,3.5065,3.5025,3.5001,3.4995,3.4995,3.4965,3.4816,3.4793,3.4793,3.4793,3.4793,3.4864,3.5028,3.5191,3.526,3.526,3.5616,3.5815,3.5815,3.5481,3.5577,3.628,3.5638,3.5616,3.6301,3.5621,3.5374,3.5594,3.523,3.4809,3.4333,3.4333,3.3875,2.8041,2.8932,2.9646,3.0331,3.0344,3.0594,3.2005,3.2824,3.3602,3.4542,3.6585,3.8275,3.8461,3.8507,3.9073,4.083,4.0213,4.0353,4.2762,4.2925,4.3045,4.3656,4.3843,4.3913,4.3913,4.4529,4.491,4.491,4.545,4.5795,4.5795,4.5795,4.5795,4.5795,4.5795,4.5871,4.5998,4.5998,4.5998,4.5998,4.5998,4.519,4.3687,4.3022,4.1944,4.0572,3.9819,3.9083,3.843,3.8388,3.7812,3.678,3.5593,3.5781,3.6564,3.5504,3.5442,3.5825,3.5307,3.5071,3.5018,3.5078,3.5054,3.5018,3.5101,3.5481,3.5847,3.5593,3.6143,3.6731,3.6385,3.6015,3.5587,3.5134,3.5363,3.5587,3.5111,3.5493,3.5742,3.5221,3.513,3.5101,3.5018,3.5018,3.4965,3.484,3.4833,3.4833,3.4793,3.4793,3.5021,3.5549,3.6028,3.6301,3.6301,3.6301,3.6301,3.6301,3.6301,3.6301,3.6301,3.6301,3.6301,3.6301,3.6301,3.6071,3.5611,3.5611,3.5328,3.4809,3.4809,3.4793,2.7423,2.8285,2.8971,2.9687,3.0744,3.19,3.3021,3.3925,3.5018,3.6786,3.7885,3.861,3.906,3.875,3.9008,4.075,4.0795,4.1151,4.2688,4.3265,4.3814,4.4462,4.4574,4.4766,4.5205,4.5424,4.5529,4.5529,4.5693,4.5795,4.5795,4.5897,4.5947,4.5947,4.6023,4.6097,4.6147,4.6147,4.6147,4.6122,4.5604,4.5022,4.4369,4.3707,4.2878,4.1954,4.0718,4.0026,3.9658,3.8458,3.753,3.6783,3.6437,3.6553,3.6849,3.6305,3.6329,3.6574,3.5912,3.5825,3.5968,3.5526,3.561,3.5902,3.5825,3.6161,3.655,3.6536,3.6753,3.6928,3.6811,3.6632,3.643,3.6237,3.6301,3.6381,3.6216,3.6339,3.6444,3.6329,3.6308,3.6287,3.6266,3.6266,3.6203,3.6028,3.5985,3.5963,3.5859,3.5859,3.5902,3.6071,3.6301,3.6444,3.6444,3.6523,3.6582,3.6582,3.6582,3.6502,3.6301,3.6301,3.6301,3.6301,3.6402,3.6339,3.6092,3.6195,3.5941,3.5368,3.5368,3.5144,2.8678,2.9702,3.0471,3.0907,3.1707,3.2817,3.4579,3.5604,3.662,3.8009,3.875,3.9098,3.9027,3.9036,3.9409,4.0623,4.0851,4.1477,4.3122,4.3656,4.4255,4.5224,4.5381,4.5555,4.5922,4.5947,4.5947,4.5947,4.5947,4.5947,4.5947,4.6023,4.6073,4.6073,4.6147,4.6196,4.6196,4.6196,4.6196,4.6196,4.5466,4.4844,4.4349,4.3652,4.2946,4.2123,4.067,3.9789,3.9322,3.8035,3.7248,3.6888,3.6888,3.6928,3.6987,3.6771,3.6829,3.693,3.6492,3.6468,3.6568,3.6207,3.6287,3.6489,3.6468,3.6652,3.6908,3.6987,3.7007,3.7007,3.7007,3.6948,3.6869,3.6766,3.6745,3.6745,3.6745,3.6786,3.6826,3.6869,3.6888,3.6851,3.6809,3.6809,3.6748,3.6585,3.6582,3.6544,3.6482,3.6444,3.6444,3.6444,3.6523,3.6582,3.6582,3.6643,3.6702,3.6702,3.6702,3.6623,3.6482,3.6444,3.6423,3.6381,3.6523,3.6544,3.6444,3.6544,3.6381,3.6045,3.5963,3.5771,3.0774,3.2101,3.3041,3.3103,3.2997,3.3572,3.6278,3.7581,3.827,3.8501,3.9214,3.9584,3.8662,3.9301,4.01,4.0438,4.0632,4.1533,4.376,4.4044,4.4475,4.578,4.6087,4.6196,4.6196,4.6196,4.6196,4.6196,4.6196,4.6196,4.6196,4.6196,4.6196,4.6196,4.6196,4.6196,4.6196,4.6196,4.6221,4.6253,4.5427,4.4683,4.399,4.3154,4.2289,4.1306,3.9919,3.8813,3.7953,3.7288,3.7007,3.7007,3.7007,3.7007,3.7007,3.7007,3.7007,3.7007,3.7007,3.6928,3.6849,3.6968,3.6928,3.6849,3.695,3.7007,3.7007,3.7007,3.7007,3.7007,3.7007,3.7007,3.6968,3.6849,3.6829,3.6829,3.6829,3.6911,3.7007,3.7007,3.7007,3.6968,3.6849,3.6829,3.6788,3.6705,3.6702,3.6702,3.6702,3.6702,3.6702,3.6702,3.6702,3.6722,3.6722,3.6722,3.6722,3.6722,3.6722,3.6722,3.6722,3.6702,3.6643,3.6523,3.6643,3.6702,3.6702,3.6702,3.6702,3.6702,3.6564,3.6523,2.8857,3.0422,3.1826,3.2299,3.3694,3.527,3.6474,3.7958,3.915,3.949,3.9501,3.9346,3.9143,3.9548,4.0034,4.0383,4.1226,4.2151,4.2987,4.4117,4.4946,4.5253,4.5846,4.6196,4.6196,4.6196,4.6196,4.6196,4.6196,4.6196,4.6196,4.6196,4.6196,4.6196,4.6196,4.6196,4.6196,4.6196,4.6398,4.6747,4.5302,4.4735,4.4877,4.3452,4.171,3.9775,3.9424,3.8515,3.7218,3.7077,3.7007,3.7007,3.7007,3.7007,3.7007,3.7007,3.7007,3.7007,3.7007,3.6987,3.6968,3.6987,3.6987,3.6968,3.6987,3.7007,3.7007,3.7007,3.7007,3.7007,3.7007,3.7007,3.6989,3.695,3.6968,3.6968,3.6968,3.6987,3.7007,3.7007,3.7007,3.6987,3.6968,3.6968,3.6928,3.6788,3.6725,3.6702,3.6702,3.6702,3.6702,3.6702,3.6745,3.6788,3.6788,3.6869,3.6928,3.6928,3.6928,3.6888,3.6788,3.6725,3.6681,3.6643,3.6745,3.6748,3.6702,3.6748,3.6745,3.6702,3.6664,3.6643,2.8716,3.0747,3.2526,3.3424,3.4888,3.6232,3.6623,3.8045,3.9361,3.9578,3.9709,3.9883,4.0037,4.0389,4.0662,4.068,4.1689,4.2696,4.3249,4.436,4.5238,4.5589,4.5968,4.6196,4.6196,4.6196,4.6196,4.6196,4.6196,4.6196,4.6196,4.6196,4.6196,4.6196,4.6423,4.6548,4.6548,4.6765,4.6802,4.6669,4.5408,4.4458,4.3742,4.2889,4.1325,3.9284,3.9284,3.8427,3.7007,3.7007,3.7007,3.7007,3.7007,3.7007,3.7007,3.7007,3.7007,3.7007,3.7007,3.7007,3.7007,3.7007,3.7007,3.7007,3.7007,3.7007,3.7007,3.7007,3.7007,3.7007,3.7007,3.7007,3.7007,3.7007,3.7007,3.7007,3.7007,3.7007,3.7007,3.7007,3.7007,3.7007,3.7007,3.7007,3.6987,3.6908,3.6869,3.6829,3.6829,3.6829,3.6829,3.6829,3.6869,3.6908,3.6908,3.6968,3.7007,3.7007,3.7007,3.6968,3.6908,3.7029,3.6989,3.6745,3.6849,3.6888,3.6829,3.6888,3.6888,3.6846,3.6786,3.6745,2.8872,3.1516,3.3846,3.4924,3.5955,3.6701,3.677,3.7873,3.9033,3.9415,3.9933,4.04,4.0671,4.1104,4.1324,4.1058,4.1899,4.2816,4.3412,4.4202,4.4992,4.5723,4.5933,4.6056,4.6196,4.6196,4.6196,4.6196,4.6196,4.6196,4.6196,4.6277,4.635,4.635,4.6794,4.7049,4.7049,4.7424,4.7254,4.6517,4.5671,4.4261,4.2462,4.242,4.1347,3.9498,3.9354,3.8497,3.7183,3.706,3.7007,3.7007,3.7007,3.7007,3.7007,3.7007,3.7007,3.7007,3.7007,3.7007,3.7007,3.7007,3.7007,3.7007,3.7007,3.7007,3.7007,3.7007,3.7007,3.7007,3.7007,3.7007,3.7007,3.7007,3.7007,3.7007,3.7007,3.7007,3.7007,3.7007,3.7007,3.7007,3.7007,3.7007,3.7007,3.7007,3.7007,3.7007,3.7007,3.7007,3.7007,3.7007,3.7007,3.7007,3.7007,3.7007,3.7007,3.7007,3.7007,3.7029,3.7069,3.7357,3.7357,3.7031,3.7127,3.7185,3.7185,3.7126,3.7087,3.7069,3.6911,3.6831,2.7687,3.1114,3.4408,3.4968,3.5912,3.677,3.7001,3.7242,3.793,3.9862,4.0097,3.9975,4.001,4.0605,4.1034,4.1018,4.1428,4.1797,4.1885,4.2605,4.3377,4.4115,4.4817,4.5519,4.6144,4.6196,4.6196,4.6196,4.6196,4.6196,4.6196,4.6637,4.69,4.69,4.7345,4.7578,4.7578,4.7658,4.7443,4.6985,4.5951,4.4763,4.349,4.3267,4.2129,4.0309,3.9603,3.8796,3.79,3.7271,3.7007,3.7007,3.7007,3.7007,3.7007,3.7007,3.7007,3.7007,3.7007,3.7007,3.7007,3.7007,3.7007,3.7007,3.7007,3.7007,3.7007,3.7007,3.7007,3.7007,3.7007,3.7007,3.7007,3.7007,3.7007,3.7007,3.7007,3.7007,3.7007,3.7007,3.7007,3.7007,3.7007,3.7007,3.7007,3.7007,3.7007,3.7007,3.7007,3.7007,3.7007,3.7007,3.7007,3.7007,3.7007,3.7007,3.7007,3.7007,3.7007,3.7127,3.7414,3.7487,3.7632,3.7913,3.7948,3.7948,3.7948,3.7614,3.7432,3.7414,3.7127,3.697,2.8555,3.1242,3.3383,3.4663,3.5638,3.6339,3.6464,3.7119,3.788,3.8444,3.8931,3.959,4.0604,4.1239,4.1556,4.1365,4.1861,4.2271,4.2271,4.3325,4.422,4.4536,4.5256,4.5828,4.6161,4.6196,4.627,4.6398,4.6423,4.6548,4.6845,4.7097,4.7302,4.7437,4.7906,4.8139,4.8139,4.8421,4.7974,4.6852,4.5528,4.4463,4.371,4.3609,4.2595,4.0839,3.9893,3.8954,3.8041,3.7286,3.7007,3.7007,3.7007,3.7007,3.7007,3.7007,3.7007,3.7007,3.7007,3.7007,3.7007,3.7007,3.7007,3.7007,3.7007,3.7007,3.7007,3.7007,3.7007,3.7007,3.7007,3.7007,3.7007,3.7007,3.7007,3.7007,3.7007,3.7007,3.7007,3.7007,3.7007,3.7007,3.7007,3.7007,3.7007,3.7007,3.7007,3.7007,3.7007,3.7007,3.7007,3.7007,3.7007,3.7007,3.7007,3.7007,3.7007,3.7007,3.7185,3.7339,3.7487,3.7894,3.8196,3.8378,3.8201,3.8101,3.8101,3.7913,3.7721,3.7505,3.7357,3.7281,2.8886,3.0957,3.2299,3.4024,3.5183,3.5935,3.5968,3.6721,3.7317,3.7152,3.7794,3.8834,4.0377,4.1137,4.1557,4.159,4.2113,4.2517,4.2517,4.3658,4.4518,4.4518,4.5337,4.594,4.5996,4.6172,4.6416,4.6684,4.6637,4.6835,4.7363,4.7452,4.7663,4.7987,4.8458,4.8692,4.8692,4.8632,4.7975,4.6756,4.5169,4.4248,4.3902,4.3884,4.314,4.1795,4.0464,3.9444,3.8704,3.7728,3.7338,3.7338,3.7338,3.7281,3.7242,3.7242,3.7185,3.7163,3.7105,3.7085,3.7066,3.7027,3.7007,3.7007,3.7007,3.7007,3.7007,3.7007,3.7007,3.7007,3.7007,3.7007,3.7007,3.7007,3.7007,3.7007,3.7007,3.7007,3.7007,3.7007,3.7007,3.7007,3.7007,3.7007,3.7027,3.7066,3.7085,3.7087,3.7145,3.7145,3.7145,3.7145,3.7105,3.7085,3.7085,3.7027,3.7007,3.7007,3.7339,3.756,3.7667,3.831,3.867,3.8763,3.8504,3.8362,3.8346,3.8265,3.8033,3.765,3.7542,3.7523,2.74,2.9792,3.1795,3.2901,3.4415,3.5695,3.5943,3.5512,3.5462,3.682,3.7148,3.7427,3.823,3.9273,4.0346,4.1415,4.1639,4.1657,4.1657,4.2394,4.2938,4.2938,4.4237,4.5228,4.5428,4.6124,4.6684,4.6957,4.6731,4.6835,4.7363,4.7643,4.8025,4.853,4.9021,4.9257,4.9257,4.7719,4.6941,4.6959,4.5289,4.4487,4.444,4.4199,4.3927,4.3555,4.1508,4.061,4.0429,3.8882,3.8227,3.8227,3.8227,3.8079,3.7842,3.7842,3.7739,3.754,3.7353,3.7278,3.7259,3.7066,3.7007,3.7007,3.7007,3.7007,3.7007,3.7007,3.7007,3.7007,3.7007,3.7007,3.7007,3.7007,3.7007,3.7007,3.7007,3.7007,3.7007,3.7007,3.7007,3.7007,3.7007,3.7007,3.7066,3.7259,3.7278,3.7353,3.754,3.7576,3.7576,3.7576,3.7391,3.7278,3.7278,3.7105,3.7007,3.7007,3.7377,3.7773,3.8147,3.856,3.8923,3.917,3.9156,3.9115,3.9059,3.8733,3.8392,3.8068,3.7667,3.7524,2.734,2.9322,3.0786,3.2082,3.3769,3.5111,3.5062,3.5324,3.5684,3.595,3.6384,3.6933,3.7679,3.876,3.9804,4.0722,4.0906,4.106,4.1534,4.2306,4.2991,4.3447,4.4554,4.5517,4.6112,4.6594,4.6957,4.7165,4.7102,4.7374,4.8136,4.8271,4.8568,4.9176,4.9343,4.9424,4.9424,4.828,4.7451,4.6993,4.5829,4.5003,4.4501,4.4411,4.4321,4.415,4.2307,4.1219,4.0588,3.8966,3.8291,3.8291,3.8291,3.8129,3.7893,3.7893,3.7774,3.7577,3.7521,3.7503,3.7484,3.7411,3.7297,3.7201,3.7201,3.7105,3.7007,3.7007,3.7007,3.7007,3.7007,3.7007,3.7007,3.7007,3.7007,3.7007,3.7007,3.7105,3.7201,3.7201,3.7201,3.7239,3.7354,3.7278,3.7259,3.7466,3.7503,3.7521,3.7577,3.7595,3.7595,3.7595,3.7539,3.7503,3.7503,3.7523,3.7468,3.722,3.7929,3.8323,3.8196,3.8836,3.9229,3.9333,3.9328,3.9242,3.9101,3.8984,3.8643,3.8101,3.8231,3.818,2.678,2.8297,2.9356,3.102,3.2878,3.4281,3.4281,3.4978,3.5592,3.5434,3.5886,3.648,3.7128,3.7941,3.8866,3.9919,4.0116,4.0358,4.1113,4.1969,4.2682,4.3175,4.435,4.5257,4.5632,4.6056,4.6506,4.6993,4.6949,4.7399,4.8532,4.8514,4.8766,4.9474,4.9509,4.9509,4.9509,4.8626,4.7932,4.7387,4.6242,4.5416,4.4876,4.4613,4.4501,4.4407,4.2736,4.1675,4.1012,3.939,3.8726,3.8726,3.8726,3.8576,3.8339,3.8339,3.8214,3.8018,3.7862,3.781,3.7774,3.7649,3.7521,3.7391,3.7391,3.7316,3.7203,3.7203,3.7203,3.7203,3.7203,3.7203,3.7184,3.7124,3.7105,3.7085,3.7009,3.7105,3.7201,3.7201,3.7259,3.7334,3.7484,3.7447,3.7466,3.7667,3.7703,3.7721,3.7793,3.781,3.781,3.781,3.7739,3.7739,3.7792,3.7861,3.7825,3.765,3.8387,3.8711,3.8449,3.9115,3.9457,3.9431,3.9431,3.936,3.9202,3.9202,3.8898,3.8346,3.8609,3.8621,0.0,0.0,0.0,2.9714,3.1686,3.3209,3.3674,3.4352,3.4944,3.5299,3.5627,3.5977,3.6388,3.6716,3.7444,3.8968,3.9252,3.955,4.0362,4.1255,4.1839,4.1874,4.3436,4.4332,4.3863,4.4476,4.5335,4.6393,4.6224,4.6801,4.844,4.8329,4.8585,4.9474,4.9509,4.9509,4.9509,4.8664,4.8232,4.8176,4.6523,4.5716,4.566,4.4871,4.4501,4.4407,4.2736,4.2004,4.1873,4.0265,3.9589,3.9589,3.9589,3.9445,3.9197,3.9197,3.9059,3.8833,3.838,3.8216,3.8133,3.7757,3.7613,3.7613,3.7613,3.7595,3.7595,3.7595,3.7595,3.7595,3.7595,3.7595,3.754,3.7353,3.7297,3.7259,3.7066,3.7027,3.7027,3.7027,3.7182,3.7316,3.7316,3.7484,3.7685,3.7881,3.7899,3.7969,3.8175,3.8209,3.8209,3.8209,3.8039,3.7985,3.8183,3.8048,3.8029,3.8291,3.8693,3.891,3.8896,3.9356,3.9571,3.9495,3.9495,3.9469,3.9405,3.9405,3.9188,3.8803,3.8803,3.8843,2.5755,0.0,0.0,0.0,0.0,0.0,3.3355,3.3822,3.4203,3.455,3.4688,3.495,3.5593,3.5792,3.6245,3.7441,3.8076,3.8725,3.9515,3.9856,4.0426,4.1552,4.2281,4.3091,4.4062,4.4521,4.4946,4.5374,4.5538,4.5949,4.6742,4.7677,4.8608,4.9471,4.9509,4.9509,4.9509,4.9265,4.8814,4.8194,4.7143,4.6317,4.566,4.4871,4.4501,4.4407,4.2736,4.2004,4.1873,4.0265,3.9589,3.9589,3.9589,3.9445,3.9197,3.9197,3.9059,3.8877,3.874,3.8588,3.8396,3.8283,3.8052,3.7828,3.7828,3.7721,3.7595,3.7595,3.7595,3.7595,3.7595,3.7595,3.7594,3.7539,3.7521,3.7485,3.7466,3.7429,3.7429,3.7429,3.7484,3.7613,3.7916,3.7881,3.7881,3.809,3.8124,3.8141,3.8192,3.8209,3.8209,3.8209,3.8158,3.8189,3.8396,3.8538,3.8582,3.8517,3.9078,3.9259,3.891,3.9356,3.9577,3.9583,3.9583,3.9552,3.954,3.9457,3.9188,3.8803,3.8857,3.9059,2.4991,2.5848,2.6612,2.8099,0.0,0.0,3.282,3.3482,3.3987,3.4628,3.4516,3.4472,3.5081,3.52,3.5399,3.6032,3.6727,3.7558,3.8649,3.8913,3.9415,4.063,4.0999,4.1558,4.2528,4.3048,4.3535,4.4081,4.4683,4.5389,4.6212,4.7507,4.842,4.8945,4.9302,4.9509,4.9509,4.9509,4.9246,4.872,4.7894,4.7237,4.6692,4.5528,4.5003,4.489,4.2868,4.2004,4.1873,4.0265,3.9589,3.9589,3.9589,3.9496,3.9362,3.9362,3.9283,3.9147,3.8983,3.8803,3.8634,3.8433,3.8223,3.8039,3.8039,3.7951,3.7846,3.7846,3.7846,3.7846,3.7846,3.7846,3.7828,3.7739,3.7721,3.7703,3.7631,3.7595,3.7595,3.7595,3.7667,3.7793,3.8021,3.8056,3.8055,3.8192,3.8209,3.8209,3.8209,3.8209,3.8209,3.8209,3.8209,3.834,3.8634,3.8818,3.8935,3.9013,3.9375,3.9483,3.92,3.9452,3.9589,3.9589,3.9589,3.9589,3.9589,3.9514,3.9367,3.9137,3.9173,3.9343,2.3884,2.4293,2.4972,2.6893,2.8232,0.0,3.1879,3.2811,3.357,3.4751,3.4382,3.4026,3.4512,3.4634,3.4671,3.4757,3.5305,3.6199,3.7647,3.8106,3.8565,3.929,3.9633,3.9938,4.0198,4.0846,4.1661,4.2663,4.378,4.4996,4.6326,4.736,4.8007,4.8194,4.8945,4.9396,4.9509,4.9509,4.9509,4.949,4.8626,4.8194,4.8138,4.6561,4.5848,4.5716,4.3318,4.2286,4.2155,4.0534,3.9758,3.9589,3.9589,3.9589,3.9589,3.9589,3.9664,3.9671,3.9268,3.9079,3.8992,3.8547,3.833,3.8224,3.8209,3.8209,3.8209,3.8209,3.8209,3.8209,3.8209,3.8209,3.8158,3.7969,3.7934,3.7881,3.7703,3.7667,3.7667,3.7667,3.7775,3.7899,3.7916,3.809,3.8209,3.8209,3.8209,3.8209,3.8209,3.8209,3.8209,3.8209,3.8207,3.8403,3.8848,3.8921,3.912,3.9564,3.9589,3.9589,3.9589,3.9589,3.9589,3.9589,3.9683,3.9721,3.9721,3.9721,3.9721,3.9739,3.9815,3.9871,2.3905,2.4206,2.4649,2.5205,0.0,0.0,2.9808,3.0027,3.0266,0.0,3.1739,3.155,3.2533,3.29,3.3265,3.3919,3.4309,3.4944,3.6161,3.6655,3.7154,3.7889,3.8425,3.8968,3.9665,4.0016,4.0602,4.1623,4.3048,4.445,4.5765,4.6063,4.6805,4.8157,4.8363,4.8795,4.949,4.9509,4.9509,4.949,4.8626,4.8194,4.8157,4.7199,4.6749,4.6636,4.4801,4.4013,4.3881,4.2211,4.0778,3.9589,3.9589,3.9589,3.9589,3.9589,4.0021,4.054,4.0463,4.0293,4.0062,3.9819,3.915,3.8417,3.8241,3.8209,3.8209,3.8209,3.8209,3.8209,3.8209,3.8209,3.8192,3.8158,3.8141,3.8141,3.8089,3.8089,3.8089,3.8089,3.7986,3.7951,3.8106,3.8175,3.8209,3.8209,3.8209,3.8209,3.8209,3.8209,3.8209,3.8209,3.8336,3.8575,3.8862,3.905,3.9269,3.9577,3.9589,3.9589,3.9589,3.9589,3.9589,3.9589,4.0247,4.0572,4.0572,4.0572,4.0572,4.0572,4.1229,4.1516,2.3693,2.4095,2.4743,2.5183,0.0,0.0,0.0,2.8925,2.9139,3.0735,3.1052,3.1215,3.1809,3.2312,3.2786,3.3195,3.3355,3.3656,3.4223,3.5096,3.5945,3.6668,3.6991,3.7434,3.8136,3.8706,3.9791,4.1615,4.2845,4.3911,4.4838,4.5279,4.5956,4.6918,4.7368,4.8007,4.8833,4.8852,4.9077,4.949,4.9058,4.8852,4.8814,4.7988,4.7387,4.6918,4.5233,4.4271,4.3801,4.253,4.1516,4.076,4.0347,4.0209,4.0209,4.0209,4.044,4.0841,4.1148,4.0872,4.0375,4.0159,3.9369,3.851,3.8528,3.8467,3.8338,3.8242,3.8209,3.8209,3.8209,3.8209,3.8209,3.8209,3.8209,3.8209,3.8209,3.8209,3.8209,3.8209,3.8124,3.809,3.8192,3.8209,3.8209,3.8209,3.8209,3.8209,3.8209,3.8209,3.8209,3.8209,3.8385,3.8603,3.8881,3.9073,3.9309,3.9577,3.9589,3.9589,3.9589,3.9589,3.9796,4.019,4.0591,4.1004,4.1404,4.183,4.183,4.1404,4.1817,4.2004,0.0,0.0,0.0,0.0,0.0,2.6115,0.0,0.0,0.0,0.0,0.0,0.0,0.0,0.0,0.0,3.2105,0.0,0.0,0.0,3.3529,0.0,3.533,3.5621,3.5962,3.6469,3.7697,3.9416,4.1626,4.2736,4.351,4.3999,4.4693,4.5245,4.5606,4.6363,4.7218,4.8194,4.8194,4.8626,4.9509,4.9509,4.9509,4.9471,4.8776,4.8007,4.7162,4.5627,4.4515,4.3688,4.283,4.2474,4.238,4.1404,4.1041,4.1041,4.1041,4.1135,4.1353,4.1847,4.1442,4.0668,4.0459,3.9574,3.8603,3.8773,3.8664,3.8462,3.8257,3.8209,3.8209,3.8209,3.8209,3.8209,3.8209,3.8209,3.8209,3.8209,3.8209,3.8209,3.8209,3.8209,3.8209,3.8209,3.8209,3.8209,3.8209,3.8209,3.8209,3.8209,3.8209,3.8209,3.8209,3.8417,3.8664,3.8877,3.9133,3.9362,3.9596,3.9589,3.9589,3.9589,3.9758,4.0209,4.1022,4.121,4.1605,4.2248,4.3106,4.3088,4.2248,4.2417,4.2474,0.0,0.0,0.0,0.0,2.5206,0.0,0.0,0.0,2.6559,2.7774,0.0,0.0,0.0,0.0,0.0,0.0,0.0,0.0,3.1291,0.0,0.0,3.3588,3.4572,3.5255,3.5454,3.7917,3.9868,4.0705,4.2337,4.3425,4.3728,4.4061,4.459,4.5314,4.5671,4.6599,4.8176,4.8194,4.8626,4.9509,4.9509,4.9509,4.9509,4.9396,4.887,4.8007,4.7105,4.6242,4.5359,4.4552,4.4219,4.405,4.2474,4.1854,4.1854,4.1854,4.2342,4.3031,4.3079,4.2541,4.1788,4.1581,4.031,3.8818,3.8603,3.8507,3.8462,3.8257,3.8209,3.8209,3.8209,3.8209,3.8209,3.8209,3.8209,3.8209,3.8209,3.8209,3.8209,3.8209,3.8209,3.8209,3.8209,3.8209,3.8209,3.8209,3.8209,3.8209,3.8209,3.8209,3.8209,3.8209,3.8593,3.8862,3.891,3.9301,3.9564,3.9608,3.9589,3.9589,3.9589,4.0272,4.1041,4.1854,4.2618,4.305,4.3144,4.397,4.3951,4.3163,4.3881,4.4219,0.0,0.0,0.0,0.0,0.0,0.0,2.6068,0.0,2.5633,0.0,0.0,0.0,0.0,0.0,0.0,0.0,2.9703,0.0,0.0,0.0,0.0,0.0,0.0,0.0,3.5718,3.8076,3.9866,4.0661,4.1741,4.2704,4.3441,4.3266,4.3618,4.4575,4.4855,4.5566,4.673,4.6749,4.7425,4.8739,4.8739,4.9002,4.9471,4.8983,4.8288,4.7462,4.6685,4.588,4.509,4.4844,4.4719,4.4662,4.3958,4.3308,4.275,4.275,4.2994,4.3369,4.3839,4.3444,4.2541,4.1344,4.0188,3.9229,3.8862,3.8815,3.8855,3.8652,3.8609,3.8609,3.8609,3.8481,3.8417,3.8578,3.8405,3.8224,3.8354,3.8272,3.8209,3.8209,3.8209,3.8209,3.8209,3.8209,3.8209,3.8209,3.8209,3.8209,3.8209,3.8209,3.8241,3.8352,3.8683,3.895,3.9059,3.9393,3.9796,4.0284,4.0722,4.0985,4.0985,4.1323,4.1892,4.275,4.3106,4.3538,4.4008,4.4409,4.4449,4.4111,4.4373,4.4501,2.6414,0.0,0.0,0.0,0.0,0.0,0.0,0.0,0.0,0.0,0.0,0.0,0.0,0.0,0.0,0.0,0.0,2.8727,0.0,0.0,0.0,0.0,0.0,0.0,0.0,3.7749,3.9438,4.0263,4.1173,4.2032,4.2831,4.256,4.2735,4.3537,4.4102,4.4772,4.5577,4.5669,4.6542,4.8194,4.8194,4.8532,4.9114,4.8495,4.7661,4.6656,4.6129,4.5474,4.4757,4.4858,4.4895,4.4895,4.4895,4.4424,4.3734,4.3734,4.3734,4.3828,4.4398,4.4065,4.3053,4.1127,4.025,3.9808,3.918,3.9073,3.9156,3.895,3.891,3.891,3.891,3.8758,3.8649,3.8848,3.864,3.8403,3.8478,3.8385,3.8274,3.8225,3.8241,3.8256,3.8209,3.8209,3.8209,3.8209,3.8209,3.8207,3.829,3.8272,3.8338,3.8494,3.8785,3.9021,3.9101,3.9625,4.0297,4.113,4.1693,4.2111,4.2408,4.2408,4.2803,4.3681,4.3721,4.4035,4.4605,4.4712,4.4745,4.4745,4.4659,4.4605,0.0,0.0,0.0,2.8011,0.0,0.0,0.0,0.0,2.7738,0.0,0.0,0.0,0.0,0.0,0.0,2.6805,0.0,0.0,0.0,0.0,0.0,0.0,0.0,0.0,0.0,0.0,3.8562,0.0,4.0727,4.1705,4.1759,4.1975,4.213,4.2148,4.3431,4.4497,4.5301,4.5563,4.6542,4.8194,4.8194,4.8194,4.8232,4.8194,4.7381,4.5925,4.5919,4.5526,4.4883,4.4895,4.4895,4.4895,4.4895,4.4883,4.4845,4.4845,4.4845,4.4845,4.4883,4.4279,4.319,4.138,4.0778,4.0552,3.9506,3.9197,3.9156,3.895,3.891,3.891,3.891,3.8877,3.8896,3.891,3.8896,3.8803,3.8538,3.8476,3.843,3.8241,3.837,3.8433,3.8224,3.8209,3.8209,3.8209,3.8209,3.8274,3.8462,3.8494,3.8476,3.851,3.8913,3.9101,3.8921,4.0056,4.1161,4.2096,4.2064,4.2427,4.341,4.3448,4.3825,4.4642,4.4783,4.4864,4.4883,4.4883,4.4883,4.4883,4.4883,4.4883,2.8685,2.9233,2.9813,2.8438,2.8841,2.9357,0.0,0.0,0.0,0.0,0.0,0.0,0.0,0.0,2.5838,0.0,0.0,0.0,0.0,0.0,0.0,0.0,0.0,0.0,0.0,0.0,0.0,0.0,0.0,0.0,4.0872,4.1172,4.1545,4.2076,4.3238,4.3955,4.4233,4.45,4.5182,4.628,4.645,4.6901,4.7514,4.693,4.6428,4.6007,4.5564,4.5245,4.5045,4.5125,4.517,4.517,4.517,4.517,4.5148,4.4974,4.4895,4.4895,4.4895,4.434,4.3433,4.225,4.1501,4.0884,3.9953,3.9665,3.9654,3.9594,3.9502,3.9439,3.9439,3.9259,3.9147,3.9328,3.9138,3.8906,3.8942,3.8859,3.8743,3.8686,3.8713,3.8743,3.8667,3.867,3.859,3.8433,3.8544,3.8683,3.8758,3.8773,3.8833,3.8942,3.9579,4.0039,4.0157,4.1655,4.2712,4.3045,4.3611,4.4065,4.4417,4.4436,4.4549,4.4821,4.487,4.4895,4.4895,4.4979,4.5026,4.5026,4.5125,4.508,2.9829,3.0352,3.0878,2.928,2.9589,3.0089,2.933,0.0,2.8742,0.0,0.0,0.0,0.0,0.0,0.0,0.0,0.0,0.0,0.0,0.0,0.0,0.0,0.0,0.0,0.0,0.0,0.0,0.0,0.0,0.0,0.0,4.0522,4.099,4.1519,4.2563,4.3267,4.3562,4.3921,4.4531,4.536,4.565,4.6134,4.6798,4.6244,4.5887,4.5727,4.5296,4.5125,4.5181,4.5256,4.5307,4.5307,4.5307,4.5307,4.5286,4.5114,4.5038,4.5045,4.4998,4.4626,4.3999,4.2784,4.2052,4.1419,4.0241,3.99,3.9957,4.029,4.0083,3.9838,4.0152,3.9837,3.9496,3.9668,3.9433,3.9192,3.9264,3.917,3.9045,3.8956,3.9041,3.9129,3.9027,3.9137,3.911,3.871,3.8788,3.8921,3.8993,3.9007,3.9175,3.9588,4.0173,4.0868,4.1688,4.2825,4.3649,4.4032,4.4599,4.4919,4.4967,4.4967,4.5119,4.5423,4.5185,4.5178,4.5463,4.527,4.517,4.517,4.5265,4.5203]}]]